[[[{"header":{"parameterUnit":"kt","parameterCategory":2,"dx":1,"dy":1,"la1":29.285339999999998,"la2":30.599998999999997,"lo1":-89.70041500000002,"lo2":-87.6738589999976,"nx":112,"ny":82,"refTime":"2022-10-28T18:00:00:Z","depth":0,"parameterNumber":1,"parameterNumberName":"U-component_of_WINDS"},"data":[5.0692,4.8989,4.7555,4.673,4.4339,4.2,4.1452,4.0076,3.8424,3.6725,3.5308,3.3884,3.2194,3.1123,3.017,2.9146,2.7333,2.5495,0.0,2.2371,2.2375,2.5045,2.9912,3.3573,3.4924,3.9625,4.2725,4.3098,4.7716,5.0166,4.9278,5.1244,5.2347,5.224,5.5367,5.7392,5.8039,6.0481,6.1889,6.2275,6.2275,6.2292,6.231,6.2379,6.2482,6.2636,6.2721,6.2704,6.2584,6.267,6.2653,6.2584,6.2584,6.2584,6.2602,6.2891,6.2992,6.2958,6.267,6.2738,6.2992,6.2992,6.2992,6.2992,6.2992,6.2992,6.2992,6.2992,6.2992,6.2992,6.2992,6.2992,6.2992,6.2992,6.2992,6.2992,6.2992,6.2992,6.2992,6.2992,6.2992,6.2992,6.2992,6.2992,6.2992,6.2992,6.2992,6.2992,6.2992,6.368,6.4229,6.4229,6.4229,6.3898,6.3058,6.5154,6.6486,6.6486,6.6486,6.6486,6.6486,6.6486,6.6486,6.6486,6.6486,6.6486,6.6486,6.6486,6.6486,6.6486,6.6486,6.6486,4.8895,4.7247,4.5669,4.4308,4.1747,3.9298,3.8148,3.6872,3.5498,3.3928,3.288,3.1744,3.0158,2.9893,2.9416,2.7846,2.6756,2.555,0.0,2.3778,2.5199,2.8943,3.3903,3.7477,3.8596,4.277,4.5534,4.5822,5.0034,5.1887,5.0308,5.2404,5.3386,5.2815,5.6003,5.788,5.8263,6.0697,6.2109,6.2448,6.2448,6.2482,6.2517,6.2568,6.2687,6.2857,6.2924,6.2891,6.2721,6.289,6.2992,6.2992,6.2992,6.2992,6.2992,6.2992,6.2992,6.2992,6.2992,6.2992,6.2992,6.2992,6.2992,6.2992,6.2992,6.2992,6.2992,6.2992,6.2992,6.2992,6.2992,6.2992,6.2992,6.2992,6.2992,6.2992,6.2992,6.2992,6.2992,6.2992,6.2992,6.2992,6.2992,6.2992,6.2992,6.2992,6.2992,6.2992,6.2992,6.2992,6.2992,6.2992,6.2992,6.2992,6.2992,6.4387,6.5647,6.6438,6.6486,6.6486,6.6486,6.6486,6.6486,6.6486,6.6486,6.6486,6.6486,6.6486,6.6486,6.6486,6.6486,6.6486,4.6532,4.6659,4.5576,4.086,3.8515,3.6917,3.5384,3.3872,3.2332,3.0759,3.0521,3.0163,2.8567,2.8384,2.8006,2.653,2.6362,0.0,0.0,2.6696,3.0464,3.5206,3.8208,4.0337,4.1435,4.4426,4.7332,4.9807,5.0203,5.1338,5.3704,5.2502,5.2399,5.3827,5.5348,5.6952,5.8506,5.992,6.1306,6.2602,6.2602,6.2534,6.2413,6.2534,6.2602,6.2602,6.2873,6.2992,6.2992,6.2992,6.2992,6.2992,6.2992,6.2992,6.2992,6.2992,6.2992,6.2992,6.2992,6.2992,6.2992,6.2992,6.2992,6.2992,6.2992,6.2992,6.2992,6.2992,6.2992,6.2992,6.2992,6.2992,6.2992,6.2992,6.2992,6.2992,6.2992,6.2992,6.2992,6.2992,6.2992,6.2992,6.2992,6.2992,6.2992,6.2992,6.2992,6.2992,6.2992,6.2992,6.2992,6.2992,6.2992,6.2992,6.2992,6.2992,6.396,6.6223,6.6438,6.6486,6.6486,6.6486,6.6486,6.6486,6.6486,6.6486,6.6486,6.6486,6.6486,6.6486,6.6486,6.6486,4.2293,4.0693,3.9081,3.6963,3.5011,3.326,3.208,3.1466,3.0723,2.914,2.8933,0.0,0.0,0.0,3.0437,3.1158,0.0,3.0958,3.0664,3.0967,3.3377,3.913,4.0508,4.188,4.416,4.8493,5.1162,5.1209,5.2598,5.3529,5.3807,5.3471,5.3437,5.3812,5.5348,5.6952,5.8506,5.992,6.1406,6.2873,6.2873,6.2857,6.2823,6.2857,6.2873,6.2873,6.2941,6.2992,6.2992,6.2992,6.2992,6.2992,6.2992,6.2992,6.2992,6.2992,6.2992,6.2992,6.2992,6.2992,6.2992,6.2992,6.2992,6.2992,6.2992,6.2992,6.2992,6.2992,6.2992,6.2992,6.2992,6.2992,6.2992,6.2992,6.2992,6.2992,6.2992,6.2992,6.2992,6.2992,6.2992,6.2992,6.2992,6.2992,6.2992,6.2992,6.2992,6.2992,6.2992,6.2992,6.2992,6.2992,6.2992,6.2992,6.2992,6.2992,6.3254,6.3898,6.5543,6.6486,6.6486,6.6486,6.6486,6.6486,6.6486,6.6486,6.6486,6.6486,6.6486,6.6486,6.6486,6.6486,3.8541,3.7008,3.5646,3.3711,3.2316,3.1092,2.9807,2.9551,2.9473,2.9305,0.0,0.0,0.0,0.0,0.0,0.0,3.3521,3.3798,3.3939,3.4625,3.7421,4.3594,4.4039,4.4813,4.7204,5.0511,5.2516,5.2592,5.3657,5.4159,5.3875,5.4461,5.4802,5.4802,5.6338,5.7907,5.9409,6.0244,6.1438,6.2992,6.2992,6.2992,6.2992,6.2992,6.2992,6.2992,6.2992,6.2992,6.2992,6.2992,6.2992,6.2992,6.2992,6.2992,6.2992,6.2992,6.2992,6.2992,6.2992,6.2992,6.2992,6.2992,6.2992,6.2992,6.2992,6.2992,6.2992,6.2992,6.2992,6.2992,6.2992,6.2992,6.2992,6.2992,6.2992,6.2992,6.2992,6.2992,6.2992,6.2992,6.2992,6.2992,6.2992,6.2992,6.2992,6.2992,6.2992,6.2992,6.2992,6.2992,6.2992,6.2992,6.2992,6.2992,6.2992,6.2992,6.2992,6.2992,6.516,6.6486,6.6486,6.6486,6.6486,6.6486,6.6486,6.6486,6.6486,6.6486,6.6486,6.6486,6.6486,6.6486,3.5084,3.467,3.3921,3.0973,3.0259,2.9938,2.8749,0.0,2.8924,3.064,0.0,3.1888,3.3454,0.0,0.0,3.429,3.5307,3.6095,3.6056,3.8528,4.2438,4.8106,4.8032,4.8283,5.0357,5.1269,5.2297,5.3724,5.3861,5.3861,5.3861,5.5314,5.6167,5.6167,5.7687,5.9204,6.0619,6.0653,6.1438,6.2992,6.2992,6.2992,6.2992,6.2992,6.2992,6.2992,6.2992,6.2992,6.2992,6.2992,6.2992,6.2992,6.2992,6.2992,6.2992,6.2992,6.2992,6.2992,6.2992,6.2992,6.2992,6.2992,6.2992,6.2992,6.2992,6.2992,6.2992,6.2992,6.2992,6.2992,6.2992,6.2992,6.2992,6.2992,6.2992,6.2992,6.2992,6.2992,6.2992,6.2992,6.2992,6.2992,6.2992,6.2992,6.2992,6.2992,6.2992,6.2992,6.2992,6.2992,6.2992,6.2992,6.2992,6.2992,6.2992,6.3222,6.3366,6.3366,6.5344,6.6486,6.6486,6.6486,6.6486,6.6486,6.6486,6.6486,6.6486,6.6486,6.6486,6.6486,6.6486,6.6486,3.1846,3.1401,3.0973,2.9106,2.8636,2.8892,0.0,0.0,0.0,3.2251,3.3624,3.5025,3.671,3.8049,3.9352,4.0706,4.2005,4.2763,4.2534,4.5707,4.8754,5.0845,4.9818,5.0065,5.286,5.2264,5.2297,5.3724,5.3861,5.3861,5.3861,5.5314,5.6167,5.6167,5.7687,5.9204,6.0619,6.0653,6.1438,6.2992,6.2992,6.2992,6.2992,6.2992,6.2992,6.2992,6.2992,6.2992,6.2992,6.2992,6.2992,6.2992,6.2992,6.2992,6.2992,6.2992,6.2992,6.2992,6.2992,6.2992,6.2992,6.2992,6.2992,6.2992,6.2992,6.2992,6.2992,6.2992,6.2992,6.2992,6.2992,6.2992,6.2992,6.2992,6.2992,6.2992,6.2992,6.2992,6.2992,6.2992,6.2992,6.2992,6.2992,6.2992,6.2992,6.2992,6.2992,6.2992,6.2992,6.2992,6.2992,6.2992,6.2992,6.2992,6.2992,6.4721,6.5801,6.5801,6.6223,6.6486,6.6486,6.6486,6.6486,6.6486,6.6486,6.6486,6.6486,6.6486,6.6486,6.6486,6.6486,6.6486,2.9564,2.9361,2.9142,2.8387,2.8819,0.0,0.0,3.1882,3.3509,3.5157,3.6786,3.8654,4.1082,4.2127,4.3396,4.5624,4.6534,4.7353,4.8527,5.1502,5.3652,5.3904,5.3935,5.4549,5.6065,5.5538,5.5401,5.6133,5.6167,5.6167,5.6167,5.76,5.8419,5.8419,5.992,6.1081,6.1797,6.1797,6.2207,6.2992,6.2992,6.2992,6.2992,6.2992,6.2992,6.2992,6.2992,6.2992,6.2992,6.2992,6.2992,6.2992,6.2992,6.2992,6.2992,6.2992,6.2992,6.2992,6.2992,6.2992,6.2992,6.2992,6.2992,6.2992,6.2992,6.2992,6.2992,6.2992,6.2992,6.2992,6.2992,6.2992,6.2992,6.2992,6.2992,6.2992,6.2992,6.2992,6.2992,6.2992,6.2992,6.2992,6.2992,6.2992,6.2992,6.2992,6.2992,6.2992,6.2992,6.2992,6.2992,6.2992,6.4017,6.4749,6.4749,6.5801,6.6486,6.6486,6.6486,6.6486,6.6486,6.6486,6.6486,6.6486,6.6486,6.6486,6.6486,6.6486,6.6486,6.6486,6.6486,6.6486,2.8167,2.8167,2.8167,2.8167,2.9205,0.0,3.1793,3.4128,3.6632,3.8805,4.0606,4.2618,4.5483,4.6165,4.7068,4.9396,4.9878,5.0925,5.3719,5.6031,5.7202,5.6705,5.7771,5.8506,5.8506,5.8506,5.8506,5.8506,5.8506,5.8506,5.8506,5.9852,6.0653,6.0653,6.2173,6.2992,6.2992,6.2992,6.2992,6.2992,6.2992,6.2992,6.2992,6.2992,6.2992,6.2992,6.2992,6.2992,6.2992,6.2992,6.2992,6.2992,6.2992,6.2992,6.2992,6.2992,6.2992,6.2992,6.2992,6.2992,6.2992,6.2992,6.2992,6.2992,6.2992,6.2992,6.2992,6.2992,6.2992,6.2992,6.2992,6.2992,6.2992,6.2992,6.2992,6.2992,6.2992,6.2992,6.2992,6.2992,6.2992,6.2992,6.2992,6.2992,6.2992,6.2992,6.2992,6.2992,6.2992,6.3383,6.3668,6.3668,6.5335,6.6486,6.6486,6.6486,6.6486,6.6486,6.6486,6.6486,6.6486,6.6486,6.6486,6.6486,6.6486,6.6486,6.6486,6.6486,6.6486,6.6486,6.6486,6.6486,2.8167,2.8167,2.8167,2.8167,2.8321,0.0,3.563,3.7198,3.874,4.3217,4.5389,4.7041,4.892,4.9986,5.09,5.1795,5.2342,5.3867,5.7401,5.8558,5.8844,5.831,5.8404,5.8506,5.8506,5.8506,5.8506,5.8506,5.8506,5.8506,5.8506,5.9852,6.0653,6.0653,6.2173,6.2992,6.2992,6.2992,6.2992,6.2992,6.2992,6.2992,6.2992,6.2992,6.2992,6.2992,6.2992,6.2992,6.2992,6.2992,6.2992,6.2992,6.2992,6.2992,6.2992,6.2992,6.2992,6.2992,6.2992,6.2992,6.2992,6.2992,6.2992,6.2992,6.2992,6.2992,6.2992,6.2992,6.2992,6.2992,6.2992,6.2992,6.2992,6.2992,6.2992,6.2992,6.2992,6.2992,6.2992,6.2992,6.2992,6.2992,6.2992,6.2992,6.2992,6.2992,6.2992,6.2992,6.2992,6.482,6.61,6.61,6.6307,6.6486,6.6486,6.6486,6.6486,6.6486,6.6486,6.6486,6.6486,6.6486,6.6486,6.6486,6.6486,6.6486,6.6486,6.6486,6.6486,6.6486,6.6486,6.6486,2.8167,2.8167,2.8167,2.8167,0.0,0.0,3.7308,4.0836,4.4065,4.6063,4.845,5.0695,5.2282,5.3469,5.4434,5.5318,5.5908,5.6887,5.8701,5.9607,5.9999,5.9782,6.0569,6.1115,6.1115,6.1115,6.1115,6.1115,6.1115,6.1115,6.1115,6.1661,6.2002,6.2002,6.2616,6.2992,6.2992,6.2992,6.2992,6.2992,6.2992,6.2992,6.2992,6.2992,6.2992,6.2992,6.2992,6.2992,6.2992,6.2992,6.2992,6.2992,6.2992,6.2992,6.2992,6.2992,6.2992,6.2992,6.2992,6.2992,6.2992,6.2992,6.2992,6.2992,6.2992,6.2992,6.2992,6.2992,6.2992,6.2992,6.2992,6.2992,6.2992,6.2992,6.2992,6.2992,6.2992,6.2992,6.2992,6.2992,6.2992,6.2992,6.2992,6.2992,6.2992,6.2992,6.2992,6.2992,6.2992,6.3836,6.4975,6.6319,6.6486,6.6486,6.6486,6.6486,6.6486,6.6486,6.6486,6.6486,6.6486,6.6486,6.6486,6.6486,6.6486,6.6486,6.6486,6.6486,6.6486,6.6486,6.6486,6.6486,2.8259,0.0,0.0,0.0,0.0,0.0,4.0325,4.4283,4.7948,4.9096,5.1264,5.3422,5.5011,5.6026,5.7151,5.8771,5.9421,5.9871,6.0271,6.089,6.1285,6.1285,6.2292,6.2992,6.2992,6.2992,6.2992,6.2992,6.2992,6.2992,6.2992,6.2992,6.2992,6.2992,6.2992,6.2992,6.2992,6.2992,6.2992,6.2992,6.2992,6.2992,6.2992,6.2992,6.2992,6.2992,6.2992,6.2992,6.2992,6.2992,6.2992,6.2992,6.2992,6.2992,6.2992,6.2992,6.2992,6.2992,6.2992,6.2992,6.2992,6.2992,6.2992,6.2992,6.2992,6.2992,6.2992,6.2992,6.2992,6.2992,6.2992,6.2992,6.2992,6.2992,6.2992,6.2992,6.2992,6.2992,6.2992,6.2992,6.2992,6.2992,6.2992,6.2992,6.2992,6.2992,6.2992,6.3205,6.3867,6.396,6.4591,6.6295,6.589,6.5776,6.6438,6.6486,6.6486,6.6486,6.6486,6.6486,6.6486,6.6486,6.6486,6.6486,6.6486,6.6486,6.6486,6.6486,6.6486,6.6486,6.6486,6.6556,0.0,0.0,0.0,2.8167,3.3181,3.9747,4.5917,4.7479,4.8771,5.2835,5.4135,5.5083,5.6755,5.7392,5.8686,6.1768,6.2587,6.2821,6.2855,6.2889,6.2889,6.2889,6.2957,6.2992,6.2992,6.2992,6.2992,6.2992,6.2992,6.2992,6.2992,6.2992,6.2992,6.2992,6.2992,6.2992,6.2992,6.2992,6.2992,6.2992,6.2992,6.2992,6.2992,6.2992,6.2992,6.2992,6.2992,6.2992,6.2992,6.2992,6.2992,6.2992,6.2992,6.2992,6.2992,6.2992,6.2992,6.2992,6.2992,6.2992,6.2992,6.2992,6.2992,6.2992,6.2992,6.2992,6.2992,6.2992,6.2992,6.2992,6.2992,6.2992,6.2992,6.2992,6.2992,6.2992,6.2992,6.2992,6.2992,6.2992,6.2992,6.2992,6.2992,6.2992,6.2992,6.2992,6.2992,6.379,6.61,6.6391,6.6415,6.6474,6.4431,6.4021,6.6271,6.6486,6.6486,6.6486,6.6486,6.6486,6.6486,6.6486,6.6486,6.6486,6.6486,6.6486,6.6486,6.6486,6.6486,6.6486,6.6486,6.674,2.8484,2.8469,2.9485,3.3705,3.9625,4.497,4.7154,5.0911,5.4334,5.5734,5.6998,5.8009,5.8587,5.9861,6.1173,6.2231,6.271,6.2992,6.2992,6.2992,6.2992,6.2992,6.2992,6.2992,6.2992,6.2992,6.2992,6.2992,6.2992,6.2992,6.2992,6.2992,6.2992,6.2992,6.2992,6.2992,6.2992,6.2992,6.2992,6.2992,6.2992,6.2992,6.2992,6.2992,6.2992,6.2992,6.2992,6.2992,6.2992,6.2992,6.2992,6.2992,6.2992,6.2992,6.2992,6.2992,6.2992,6.2992,6.2992,6.2992,6.2992,6.2992,6.2992,6.2992,6.2992,6.2992,6.2992,6.2992,6.2992,6.2992,6.2992,6.2992,6.2992,6.2992,6.2992,6.2992,6.2992,6.2992,6.2992,6.2992,6.2992,6.3256,6.4126,6.4278,6.3987,6.3107,6.2992,6.3271,6.4032,6.5494,6.6486,6.6486,6.5776,6.5634,6.6427,6.6486,6.6486,6.6486,6.6486,6.6486,6.6486,6.6486,6.6486,6.6486,6.6486,6.6486,6.6486,6.6486,6.6648,6.7009,6.7009,6.7085,2.8567,3.0242,3.3496,3.9899,4.4572,4.8238,5.0514,5.4226,5.7152,5.7152,5.8381,5.949,5.949,6.1541,6.3215,6.3236,6.3083,6.2992,6.2992,6.2992,6.2992,6.2992,6.2992,6.2992,6.2992,6.2992,6.2992,6.2992,6.2992,6.2992,6.2992,6.2992,6.2992,6.2992,6.2992,6.2992,6.2992,6.2992,6.2992,6.2992,6.2992,6.2992,6.2992,6.2992,6.2992,6.2992,6.2992,6.2992,6.2992,6.2992,6.2992,6.2992,6.2992,6.2992,6.2992,6.2992,6.2992,6.2992,6.2992,6.2992,6.2992,6.2992,6.2992,6.2992,6.2992,6.2992,6.2992,6.2992,6.2992,6.2992,6.2992,6.2992,6.2992,6.2992,6.2992,6.2992,6.2992,6.2992,6.2992,6.2992,6.2992,6.3239,6.4095,6.4233,6.3941,6.3091,6.2992,6.2992,6.2992,6.4318,6.5249,6.5249,6.5965,6.6486,6.6486,6.6486,6.6486,6.6486,6.6486,6.6486,6.6486,6.6486,6.6486,6.6486,6.6486,6.6567,6.6751,6.6751,6.6907,6.7271,6.7271,6.7271,2.8979,3.349,3.9639,4.6025,4.7876,4.9719,5.5779,5.7152,5.7152,5.7152,5.8453,5.9634,5.9707,6.2474,6.4731,6.4728,6.3762,6.2992,6.2992,6.2992,6.2992,6.2992,6.2992,6.2992,6.2992,6.2992,6.2992,6.2992,6.2992,6.2992,6.2992,6.2992,6.2992,6.2992,6.2992,6.2992,6.2992,6.2992,6.2992,6.2992,6.2992,6.2992,6.2992,6.2992,6.2992,6.2992,6.2992,6.2992,6.2992,6.2992,6.2992,6.2992,6.2992,6.2992,6.2992,6.2992,6.2992,6.2992,6.2992,6.2992,6.2992,6.2992,6.2992,6.2992,6.2992,6.2992,6.2992,6.2992,6.2992,6.2992,6.2992,6.2992,6.2992,6.2992,6.2992,6.2992,6.2992,6.2992,6.2992,6.2992,6.2992,6.2992,6.2992,6.2992,6.2992,6.2992,6.2992,6.2992,6.2992,6.3091,6.3156,6.3189,6.5187,6.6521,6.6521,6.6521,6.6521,6.6521,6.6497,6.6497,6.6521,6.6497,6.6486,6.6486,6.6509,6.6751,6.7271,6.7271,6.7271,6.7271,6.7271,6.7271,3.4392,3.6846,3.9639,4.6025,5.12,5.5129,5.6791,5.7152,5.7152,5.7152,5.9309,6.1585,6.273,6.3944,6.4735,6.4715,6.3725,6.2992,6.2992,6.2992,6.2992,6.2992,6.2992,6.2992,6.2992,6.2992,6.2992,6.2992,6.2992,6.2992,6.2992,6.2992,6.2992,6.2992,6.2992,6.2992,6.2992,6.2992,6.2992,6.2992,6.2992,6.2992,6.2992,6.2992,6.2992,6.2992,6.2992,6.2992,6.2992,6.2992,6.2992,6.2992,6.2992,6.2992,6.2992,6.2992,6.2992,6.2992,6.2992,6.2992,6.2992,6.2992,6.2992,6.2992,6.2992,6.2992,6.2992,6.2992,6.2992,6.2992,6.2992,6.2992,6.2992,6.2992,6.2992,6.2992,6.2992,6.2992,6.2992,6.2992,6.2992,6.2992,6.2992,6.2992,6.2992,6.2992,6.2992,6.2992,6.2992,6.4504,6.5727,6.6126,6.6703,6.7064,6.7064,6.7064,6.7064,6.7064,6.6683,6.6648,6.7042,6.6683,6.6486,6.6486,6.6877,6.7117,6.7271,6.7271,6.7271,6.7271,6.7271,6.7271,3.2949,3.8014,4.3806,5.0216,5.4515,5.7152,5.7152,5.7152,5.7152,5.7152,5.9634,6.208,6.2946,6.4023,6.4739,6.4739,6.3717,6.2992,6.2992,6.2992,6.2992,6.2992,6.2992,6.2992,6.2992,6.2992,6.2992,6.2992,6.2992,6.2992,6.2992,6.2992,6.2992,6.2992,6.2992,6.2992,6.2992,6.2992,6.2992,6.2992,6.2992,6.2992,6.2992,6.2992,6.2992,6.2992,6.2992,6.2992,6.2992,6.2992,6.2992,6.2992,6.2992,6.2992,6.2992,6.2992,6.2992,6.2992,6.2992,6.2992,6.2992,6.2992,6.2992,6.2992,6.2992,6.2992,6.2992,6.2992,6.2992,6.2992,6.2992,6.2992,6.2992,6.2992,6.2992,6.2992,6.2992,6.2992,6.2992,6.2992,6.3468,6.3831,6.3831,6.3831,6.3626,6.3058,6.2992,6.3334,6.4372,6.5854,6.6907,6.7203,6.7271,6.7271,6.7271,6.7271,6.7271,6.7271,6.6998,6.6966,6.7224,6.6987,6.6843,6.6843,6.7107,6.7271,6.7271,6.7271,6.7271,6.7271,6.7271,6.7271,2.9087,3.7595,4.8085,5.5346,5.7152,5.7152,5.7152,5.7152,5.7152,5.7152,5.9634,6.1874,6.208,6.3558,6.4726,6.4743,6.3721,6.2992,6.2992,6.2992,6.2992,6.2992,6.2992,6.2992,6.2992,6.2992,6.2992,6.2992,6.2992,6.2992,6.2992,6.2992,6.2992,6.2992,6.2992,6.2992,6.2992,6.2992,6.2992,6.2992,6.2992,6.2992,6.2992,6.2992,6.2992,6.2992,6.2992,6.2992,6.2992,6.2992,6.2992,6.2992,6.2992,6.2992,6.2992,6.2992,6.2992,6.2992,6.2992,6.2992,6.2992,6.2992,6.2992,6.2992,6.2992,6.2992,6.2992,6.2992,6.2992,6.2992,6.2992,6.2992,6.2992,6.2992,6.2992,6.2992,6.2992,6.2992,6.2992,6.2992,6.3894,6.4665,6.4665,6.4796,6.4547,6.3419,6.3239,6.4052,6.6295,6.6987,6.7271,6.7271,6.7271,6.7271,6.7271,6.7271,6.7271,6.7271,6.7271,6.7271,6.7271,6.7271,6.7271,6.7271,6.7271,6.7271,6.7271,6.7271,6.7271,6.7271,6.7271,6.7271,3.1716,3.6022,4.2571,5.4216,5.7152,5.7152,5.7152,5.7152,5.7152,5.7152,5.9634,6.2188,6.3488,6.4286,6.4715,6.4743,6.3724,6.2992,6.2992,6.2992,6.2992,6.2992,6.2992,6.2992,6.2992,6.2992,6.2992,6.2992,6.2992,6.2992,6.2992,6.2992,6.2992,6.2992,6.2992,6.2992,6.2992,6.2992,6.2992,6.2992,6.2992,6.2992,6.2992,6.2992,6.2992,6.2992,6.2992,6.2992,6.2992,6.2992,6.2992,6.2992,6.2992,6.2992,6.2992,6.2992,6.2992,6.2992,6.2992,6.2992,6.2992,6.2992,6.2992,6.2992,6.2992,6.2992,6.2992,6.2992,6.2992,6.2992,6.2992,6.2992,6.2992,6.2992,6.2992,6.2992,6.2992,6.2992,6.2992,6.2992,6.3157,6.3321,6.3321,6.4217,6.4839,6.4621,6.4592,6.5184,6.6896,6.7181,6.7271,6.7271,6.7271,6.7271,6.7271,6.7271,6.7271,6.7271,6.7271,6.7271,6.7271,6.7271,6.7271,6.7271,6.7271,6.7271,6.7271,6.7271,6.7271,6.7271,6.7271,6.7271,3.269,3.5613,3.956,4.5712,5.223,5.7152,5.7152,5.7152,5.7152,5.7152,5.9634,6.2055,6.2766,6.4194,6.5099,6.4792,6.3971,6.3283,6.3008,6.2992,6.2992,6.2992,6.2992,6.2992,6.2992,6.2992,6.2992,6.2992,6.2992,6.2992,6.2992,6.2992,6.2992,6.2992,6.2992,6.2992,6.2992,6.2992,6.2992,6.2992,6.2992,6.2992,6.2992,6.2992,6.2992,6.2992,6.2992,6.2992,6.2992,6.2992,6.2992,6.2992,6.2992,6.2992,6.2992,6.2992,6.2992,6.2992,6.2992,6.2992,6.2992,6.2992,6.2992,6.2992,6.2992,6.2992,6.2992,6.2992,6.2992,6.2992,6.2992,6.2992,6.2992,6.2992,6.2992,6.2992,6.2992,6.2992,6.2992,6.2992,6.2992,6.2992,6.2992,6.4064,6.4911,6.4911,6.4911,6.5477,6.7053,6.7271,6.6955,6.6136,6.6762,6.7271,6.7271,6.7271,6.7271,6.7271,6.7271,6.7271,6.7271,6.7271,6.7271,6.7271,6.7271,6.7271,6.7271,6.7271,6.7271,6.7271,6.7271,6.7271,3.3015,3.5944,3.8766,3.8766,4.7526,5.6285,5.7008,5.7152,5.7152,5.7152,5.9346,6.1296,6.1296,6.3454,6.4984,6.4334,6.3984,6.3583,6.3058,6.2992,6.2992,6.2992,6.2992,6.2992,6.2992,6.2992,6.2992,6.2992,6.2992,6.2992,6.2992,6.2992,6.2992,6.2992,6.2992,6.2992,6.2992,6.2992,6.2992,6.2992,6.2992,6.2992,6.2992,6.2992,6.2992,6.2992,6.2992,6.2992,6.2992,6.2992,6.2992,6.2992,6.2992,6.2992,6.2992,6.2992,6.2992,6.2992,6.2992,6.2992,6.2992,6.2992,6.2992,6.2992,6.2992,6.2992,6.2992,6.2992,6.2992,6.2992,6.2992,6.2992,6.2992,6.2992,6.2992,6.2992,6.2992,6.2992,6.2992,6.2992,6.2992,6.2992,6.2992,6.4064,6.4911,6.4911,6.4911,6.5477,6.7053,6.7271,6.6773,6.5557,6.6521,6.7271,6.7271,6.7271,6.7271,6.7271,6.7271,6.7271,6.7271,6.7271,6.7271,6.7271,6.7271,6.7271,6.7271,6.7271,6.7271,6.7271,6.7271,6.7271,3.3231,3.6997,4.0902,4.0902,4.6876,5.3503,5.6466,5.7152,5.7152,5.7152,5.8525,5.9707,5.9707,6.184,6.3357,6.2707,6.3257,6.3583,6.3058,6.2992,6.2992,6.2992,6.2992,6.2992,6.2992,6.2992,6.2992,6.2992,6.2992,6.2992,6.2992,6.2992,6.2992,6.2992,6.2992,6.2992,6.2992,6.2992,6.2992,6.2992,6.2992,6.2992,6.2992,6.2992,6.2992,6.2992,6.2992,6.2992,6.2992,6.2992,6.2992,6.2992,6.2992,6.2992,6.2992,6.2992,6.2992,6.2992,6.2992,6.2992,6.2992,6.2992,6.2992,6.2992,6.2992,6.2992,6.2992,6.2992,6.2992,6.2992,6.2992,6.2992,6.2992,6.2992,6.2992,6.2992,6.2992,6.2992,6.2992,6.2992,6.2992,6.2992,6.2992,6.4064,6.4911,6.4911,6.4911,6.5477,6.7053,6.7271,6.7192,6.7064,6.716,6.7271,6.7271,6.7271,6.7271,6.7271,6.7271,6.7271,6.7271,6.7271,6.7271,6.7271,6.7271,6.7271,6.7271,6.7271,6.7271,6.7271,6.7271,6.7271,3.3231,3.6918,4.1184,4.3089,4.6543,5.0541,5.4686,5.5625,5.5914,5.6936,5.8381,5.949,5.949,6.1888,6.3511,6.2551,6.3493,6.4134,6.3504,6.3171,6.309,6.341,6.3189,6.2992,6.2992,6.2992,6.2992,6.2992,6.2992,6.2992,6.2992,6.2992,6.2992,6.2992,6.2992,6.2992,6.2992,6.2992,6.2992,6.2992,6.2992,6.2992,6.2992,6.2992,6.2992,6.2992,6.2992,6.2992,6.2992,6.2992,6.2992,6.2992,6.2992,6.2992,6.2992,6.2992,6.2992,6.2992,6.2992,6.2992,6.2992,6.2992,6.2992,6.2992,6.2992,6.2992,6.2992,6.2992,6.2992,6.2992,6.2992,6.2992,6.2992,6.2992,6.2992,6.2992,6.2992,6.2992,6.2992,6.2992,6.2992,6.2992,6.2992,6.3419,6.4018,6.4796,6.4911,6.5179,6.5793,6.6671,6.7271,6.7271,6.7271,6.7271,6.7271,6.7271,6.7271,6.7271,6.7271,6.7271,6.7271,6.7271,6.7271,6.7271,6.7271,6.7271,6.7271,6.7271,6.7271,6.7271,6.7271,6.7271,3.3123,3.6443,4.0491,4.3623,4.6037,4.8743,5.2952,5.4289,5.4831,5.5563,5.7333,5.8768,5.8768,6.0971,6.2532,6.1802,6.3163,6.4179,6.3836,6.3442,6.3348,6.3721,6.3283,6.2992,6.2992,6.2992,6.2992,6.2992,6.2992,6.2992,6.2992,6.2992,6.2992,6.2992,6.2992,6.2992,6.2992,6.2992,6.2992,6.2992,6.2992,6.2992,6.2992,6.2992,6.2992,6.2992,6.2992,6.2992,6.2992,6.2992,6.2992,6.2992,6.2992,6.2992,6.2992,6.2992,6.2992,6.2992,6.2992,6.2992,6.2992,6.2992,6.2992,6.2992,6.2992,6.2992,6.2992,6.2992,6.2992,6.2992,6.2992,6.2992,6.2992,6.2992,6.2992,6.2992,6.2992,6.2992,6.2992,6.2992,6.2992,6.3189,6.3898,6.4002,6.4219,6.4839,6.5323,6.5623,6.5623,6.6579,6.7271,6.7271,6.7271,6.7271,6.7271,6.7271,6.7271,6.7271,6.7271,6.7271,6.7271,6.7271,6.7271,6.7271,6.7271,6.7271,6.7271,6.7271,6.7271,6.7271,6.7271,6.7271,3.2798,3.5619,3.8867,4.1999,4.5243,4.8454,5.1589,5.353,5.418,5.2663,5.4912,5.7152,5.7152,5.8489,5.9659,6.0035,6.1943,6.348,6.3708,6.3748,6.3748,6.3748,6.3283,6.2992,6.2992,6.2992,6.2992,6.2992,6.2992,6.2992,6.2992,6.2992,6.2992,6.2992,6.2992,6.2992,6.2992,6.2992,6.2992,6.2992,6.2992,6.2992,6.2992,6.2992,6.2992,6.2992,6.2992,6.2992,6.2992,6.2992,6.2992,6.2992,6.2992,6.2992,6.2992,6.2992,6.2992,6.2992,6.2992,6.2992,6.2992,6.2992,6.2992,6.2992,6.2992,6.2992,6.2992,6.2992,6.2992,6.2992,6.2992,6.2992,6.2992,6.2992,6.2992,6.2992,6.2992,6.2992,6.2992,6.2992,6.2992,6.3731,6.6063,6.645,6.6099,6.5095,6.6246,6.725,6.725,6.726,6.7271,6.7271,6.7271,6.7271,6.7271,6.7271,6.7271,6.7271,6.7271,6.7271,6.7271,6.7271,6.7271,6.7271,6.7271,6.7271,6.7271,6.7271,6.7271,6.7271,6.7271,6.7271,3.281,3.5613,3.8867,4.1999,4.5207,4.7876,4.8888,4.9457,4.9999,5.0577,5.3214,5.5408,5.5408,5.7648,5.9014,5.7621,6.0764,6.3399,6.3506,6.4024,6.4416,6.4416,6.386,6.3381,6.3008,6.2992,6.2992,6.2992,6.2992,6.2992,6.2992,6.2992,6.2992,6.2992,6.2992,6.2992,6.2992,6.2992,6.2992,6.2992,6.2992,6.2992,6.2992,6.2992,6.2992,6.2992,6.2992,6.2992,6.2992,6.2992,6.2992,6.2992,6.2992,6.2992,6.2992,6.2992,6.2992,6.2992,6.2992,6.2992,6.2992,6.2992,6.2992,6.2992,6.2992,6.2992,6.2992,6.2992,6.2992,6.2992,6.2992,6.2992,6.2992,6.2992,6.2992,6.2992,6.2992,6.4244,6.5362,6.5362,6.5663,6.6028,6.6427,6.6762,6.6921,6.6567,6.6955,6.7271,6.7271,6.7271,6.7271,6.7271,6.7271,6.7271,6.7271,6.7271,6.7271,6.7271,6.7271,6.7271,6.7271,6.7271,6.7271,6.7271,6.7271,6.7271,6.7271,6.7271,6.7271,6.7271,6.7271,6.7271,3.1949,3.4278,3.7027,4.0195,4.2527,4.4175,4.4753,4.5828,4.6948,4.7923,5.0658,5.2927,5.2889,5.4505,5.614,5.6928,5.9292,6.1567,6.3159,6.3857,6.4346,6.47,6.4129,6.3551,6.3024,6.2992,6.2992,6.2992,6.2992,6.2992,6.2992,6.2992,6.2992,6.2992,6.2992,6.2992,6.2992,6.2992,6.3538,6.4664,6.4664,6.4664,6.4681,6.4918,6.4919,6.4681,6.4918,6.4919,6.4629,6.4032,6.3913,6.4015,6.3265,6.2992,6.2992,6.2992,6.2992,6.2992,6.2992,6.2992,6.2992,6.2992,6.2992,6.2992,6.2992,6.2992,6.2992,6.2992,6.2992,6.2992,6.2992,6.2992,6.2992,6.2992,6.2992,6.2992,6.2992,6.4834,6.6486,6.6486,6.6728,6.6877,6.6532,6.674,6.7031,6.7213,6.7271,6.7271,6.7271,6.7271,6.7271,6.7271,6.7271,6.7271,6.7271,6.7271,6.7271,6.7271,6.7271,6.7271,6.7271,6.7271,6.7271,6.7271,6.7271,6.7271,6.7271,6.7271,6.7271,6.7271,6.7271,6.7271,3.0495,3.1968,3.3881,3.7279,3.8008,3.8369,4.0029,4.2692,4.4749,4.4757,4.7556,4.9887,4.9673,4.9728,5.1576,5.702,5.7586,5.8707,6.2675,6.3363,6.3752,6.4637,6.4209,6.3598,6.3024,6.2992,6.2992,6.2992,6.2992,6.2992,6.2992,6.3094,6.3128,6.3128,6.3265,6.3299,6.3299,6.3299,6.4715,6.7446,6.7499,6.7535,6.7553,6.8195,6.8179,6.7659,6.8263,6.8179,6.7469,6.6032,6.5741,6.5981,6.4167,6.3263,6.2992,6.2992,6.2992,6.2992,6.2992,6.2992,6.2992,6.2992,6.2992,6.2992,6.2992,6.2992,6.2992,6.2992,6.2992,6.2992,6.2992,6.2992,6.2992,6.2992,6.2992,6.2992,6.2992,6.4692,6.6271,6.645,6.6486,6.6497,6.6532,6.6532,6.6694,6.7171,6.7271,6.7271,6.7271,6.7271,6.7271,6.7271,6.7271,6.7271,6.7271,6.7271,6.7271,6.7271,6.7271,6.7271,6.7271,6.7271,6.7271,6.7271,6.749,6.7709,6.7964,6.7964,6.7964,6.7964,6.7964,6.7964,3.0475,3.1175,3.251,3.699,3.7217,3.7045,3.9817,4.1011,4.1568,4.1668,4.5147,4.7892,4.6757,4.7449,4.9022,5.154,5.5881,5.9701,6.1888,6.321,6.4146,6.4658,6.4577,6.4093,6.3074,6.2992,6.2992,6.2992,6.2992,6.2992,6.2992,6.4032,6.4629,6.4629,6.579,6.6387,6.6387,6.6387,6.6763,6.7446,6.7957,6.8195,6.8212,6.8964,6.9236,6.9114,6.9251,6.922,6.9079,6.8693,6.8623,6.8674,6.8219,6.5968,6.2992,6.2992,6.2992,6.2992,6.2992,6.2992,6.2992,6.2992,6.2992,6.2992,6.2992,6.2992,6.2992,6.2992,6.2992,6.2992,6.2992,6.2992,6.2992,6.2992,6.2992,6.2992,6.2992,6.3415,6.4313,6.6137,6.6486,6.6602,6.7009,6.7074,6.7107,6.726,6.7271,6.7271,6.7271,6.7271,6.7271,6.7271,6.7271,6.7271,6.7271,6.7271,6.7271,6.7271,6.7271,6.7271,6.7271,6.7271,6.7271,6.7271,6.9727,7.2209,7.4692,7.4692,7.4692,7.4692,7.4692,7.4692,2.9603,3.035,3.186,3.5937,3.6363,3.639,3.8802,3.9408,3.9666,4.0468,4.269,4.425,4.3408,4.5703,4.7494,4.6854,5.2095,5.7301,6.0321,6.208,6.3334,6.4052,6.4488,6.4363,6.3445,6.3123,6.2992,6.2992,6.3589,6.3964,6.3964,6.538,6.6182,6.6182,6.7018,6.7446,6.7446,6.9138,6.9969,6.9969,7.0304,7.0646,7.103,7.1453,7.1662,7.1678,7.1967,7.1716,7.106,7.0393,7.0725,7.1662,7.1662,7.0523,6.8964,6.8964,6.8162,6.6695,6.3947,6.2992,6.2992,6.2992,6.2992,6.2992,6.2992,6.2992,6.2992,6.2992,6.2992,6.2992,6.2992,6.2992,6.2992,6.2992,6.2992,6.3287,6.4378,6.4591,6.4975,6.6235,6.6671,6.6944,6.7228,6.7271,6.7271,6.7271,6.7271,6.7271,6.7271,6.7271,6.7271,6.7271,6.7271,6.7271,6.7271,6.7271,6.7271,6.7271,6.7271,6.7271,6.7271,6.8694,7.0202,7.1698,7.3451,7.5203,7.6955,7.6955,7.6955,7.6955,7.6955,7.6955,2.8871,3.0061,3.1968,3.4849,3.5495,3.581,3.7397,3.7636,3.7911,3.9254,3.9822,4.0102,4.0261,4.3611,4.5691,4.3684,4.8062,5.3552,5.8742,6.0646,6.1938,6.322,6.4268,6.4577,6.3825,6.3461,6.3308,6.3465,6.4696,6.5518,6.5809,6.7198,6.7949,6.7949,6.8064,6.82,6.8274,7.1357,7.2957,7.308,7.3167,7.3578,7.4225,7.4321,7.4334,7.4381,7.4952,7.4499,7.3269,7.1961,7.2475,7.403,7.3832,7.4393,7.5392,7.5392,7.4184,7.1836,6.6731,6.471,6.4357,6.4357,6.4357,6.4186,6.3265,6.2992,6.3228,6.4581,6.4988,6.4988,6.4988,6.4265,6.3431,6.3058,6.2992,6.3543,6.553,6.6223,6.6391,6.6026,6.6646,6.7271,6.7271,6.7271,6.7271,6.7271,6.7271,6.7271,6.7271,6.7271,6.7271,6.7271,6.7271,6.7271,6.7271,6.7271,6.7271,6.7271,6.7271,6.7271,6.7271,7.0384,7.3524,7.6517,7.6846,7.6955,7.6955,7.6955,7.6955,7.6955,7.6955,7.6955,3.0206,3.168,3.3303,3.5137,3.4664,3.4187,3.5774,3.5086,3.4274,3.4632,3.5778,3.7136,3.8563,3.931,4.0916,4.4513,4.6954,5.0956,5.8417,5.9707,6.0713,6.3077,6.4662,6.5093,6.3871,6.4179,6.4833,6.5725,6.6409,6.7415,6.883,6.9756,7.0252,7.0252,7.0888,7.1503,7.2069,7.2609,7.3219,7.3864,7.4441,7.478,7.4886,7.5471,7.571,7.571,7.5807,7.5738,7.5456,7.4712,7.4264,7.3948,7.274,7.2375,7.256,7.256,7.376,7.5263,7.4323,7.2501,7.057,7.057,7.057,6.9596,6.4493,6.2992,6.4514,7.1936,7.4028,7.4028,7.4028,7.0005,6.5464,6.3447,6.2992,6.3074,6.3431,6.5064,6.589,6.3898,6.5537,6.7271,6.7271,6.7271,6.7271,6.7271,6.7271,6.7271,6.7271,6.7271,6.7271,6.7271,6.7271,6.7271,6.7271,6.7271,6.7271,6.7271,6.7271,6.7271,6.7271,7.0384,7.2965,7.4815,7.6225,7.6955,7.6955,7.6955,7.6955,7.6955,7.6955,7.6955,3.1752,3.3303,3.4891,3.6515,3.6435,3.5919,3.581,3.5249,3.4587,3.3781,3.4187,3.4927,3.57,3.7232,3.9408,4.2456,4.6371,5.0564,5.5073,5.8613,6.1173,6.2376,6.4393,6.5482,6.4862,6.4784,6.5273,6.6593,6.7712,6.904,7.0656,7.1508,7.1933,7.1933,7.1939,7.2448,7.3529,7.3859,7.4058,7.4063,7.4366,7.4507,7.4523,7.4816,7.5145,7.5492,7.5848,7.5793,7.5449,7.5139,7.4627,7.3998,7.3341,7.2613,7.1936,7.1936,7.2707,7.3793,7.3793,7.3958,7.4152,7.4152,7.4152,7.3622,7.0875,7.0022,7.0861,7.4883,7.6006,7.6006,7.6006,7.3804,7.1369,7.0273,7.0022,6.9088,6.5611,6.5725,6.6162,6.5064,6.5953,6.6944,6.7192,6.7271,6.7271,6.7271,6.7271,6.7271,6.7271,6.7271,6.7271,6.7271,6.7271,6.7271,6.7271,6.7271,6.7271,6.7271,6.8099,6.9012,6.9837,7.2125,7.4121,7.5775,7.659,7.6955,7.6955,7.6955,7.6955,7.6955,7.6955,7.6955,3.4278,0.0,3.7489,3.8398,3.8373,3.7697,0.0,3.5279,3.4489,3.3292,3.2731,3.2611,3.3007,3.5425,3.7979,3.9925,4.4869,4.9146,5.1086,5.6121,6.014,6.1657,6.422,6.5822,6.5728,6.5721,6.6303,6.771,6.9433,7.108,7.262,7.3142,7.3391,7.3391,7.2743,7.3044,7.4254,7.4765,7.4765,7.427,7.427,7.427,7.427,7.427,7.4647,7.5291,7.5779,7.5724,7.5248,7.5021,7.4801,7.4445,7.3797,7.2919,7.1997,7.2635,7.2869,7.2797,7.2132,7.3727,7.6006,7.6006,7.6006,7.6006,7.6006,7.6006,7.6006,7.6006,7.6006,7.6006,7.6006,7.6006,7.6006,7.6006,7.6006,7.467,6.9772,6.8712,6.8496,6.775,6.7641,6.7783,6.824,6.8359,6.8147,6.738,6.7271,6.7271,6.7271,6.7271,6.7271,6.7271,6.7271,6.7271,6.7271,6.7964,6.8402,6.8402,6.9961,7.1421,7.2636,7.4194,7.5666,7.6955,7.6955,7.6955,7.6955,7.6955,7.6955,7.6955,7.6955,7.6955,0.0,4.1061,4.1927,4.0599,3.9163,3.7647,3.598,3.3445,0.0,3.1296,3.0126,2.9611,3.1167,3.2835,3.5019,3.8125,4.1349,4.4555,4.7703,5.091,5.5156,6.1115,6.4537,6.6234,6.5732,6.7525,6.9097,7.006,7.2158,7.4059,7.5596,7.5191,7.4886,7.4886,7.4254,7.4238,7.4946,7.5006,7.5006,7.4946,7.4946,7.4946,7.4946,7.4946,7.532,7.5952,7.5993,7.5979,7.5862,7.5021,7.5139,7.5626,7.3045,7.2031,7.2226,7.4775,7.5724,7.5327,7.2797,7.3727,7.6006,7.6006,7.6006,7.6006,7.6006,7.6006,7.6006,7.6006,7.6006,7.6006,7.6006,7.6006,7.6006,7.6006,7.6006,7.5898,7.5428,7.532,7.4454,7.1542,7.1,7.1087,7.1355,7.1601,7.0749,6.7709,6.7271,6.7271,6.7271,6.7271,6.7271,6.7271,6.7271,6.7271,6.7271,7.0045,7.1771,7.1771,7.3245,7.4146,7.4255,7.5921,7.6846,7.6955,7.6955,7.6955,7.6955,7.6955,7.6955,7.6955,7.6955,7.6955,4.1133,4.0888,4.0166,4.153,3.9986,3.7929,3.7279,3.4712,3.2162,3.1166,2.9813,2.8967,2.9619,3.1861,3.469,3.7979,4.1815,4.5897,5.0142,5.2475,5.5734,6.1188,6.4572,6.6403,6.621,6.7893,6.9553,7.0862,7.2653,7.4345,7.5934,7.5392,7.5233,7.5605,7.5392,7.5378,7.5654,7.5654,7.5435,7.5021,7.5021,7.4796,7.4445,7.4826,7.5189,7.5421,7.5821,7.6006,0.0,7.5654,7.571,7.5925,7.4886,7.4468,7.439,7.3711,7.4545,7.5848,7.482,7.5153,7.6006,7.6006,7.6006,7.6006,7.6006,7.6006,7.6006,7.6006,7.6006,7.6006,7.6006,7.6006,7.6006,7.6006,7.6006,7.6006,7.6006,7.6006,7.5645,7.4454,7.328,7.2514,7.2771,7.2437,7.1698,7.0457,7.03,6.9935,6.8939,6.8829,6.8428,6.738,6.822,6.9242,7.0191,7.1406,7.2136,7.2136,7.3574,7.4438,7.4438,7.6067,7.6955,7.6955,7.6955,7.6955,7.6955,7.6955,7.6955,7.6955,7.6955,7.6955,4.4007,4.3466,4.2744,4.3334,4.2303,4.0578,3.8585,3.636,3.4188,3.2148,3.055,2.9515,2.9517,3.1778,3.4836,3.8606,4.2222,4.6405,5.1747,5.3307,5.5878,6.1188,6.3705,6.5402,6.6377,6.8472,7.0182,7.1253,7.3239,7.4887,7.5934,7.5562,7.5534,7.5993,7.6006,7.6006,7.6006,7.6006,7.5682,7.5021,7.5021,7.4816,7.4381,7.5056,7.5349,7.5363,7.5807,7.6006,7.6006,7.6006,7.6006,7.6006,7.6006,7.6006,7.5779,7.3909,7.4405,7.6006,7.6006,7.6006,7.6006,7.6006,7.6006,7.6006,7.6006,7.6006,7.6006,7.6006,7.6006,7.6006,7.6006,7.6006,7.6006,7.6006,7.6006,7.6006,7.6006,7.606,7.6149,7.6176,7.5148,7.4138,7.38,7.3226,7.2673,7.2209,7.2136,7.1724,7.0665,7.0519,7.0081,6.8913,6.9815,7.1176,7.2709,7.3341,7.367,7.367,7.468,7.5252,7.5252,7.6359,7.6955,7.6955,7.6955,7.6955,7.6955,7.6955,7.6955,7.6955,7.6955,7.6955,4.7659,4.9927,5.111,4.6373,4.6398,4.5953,3.9603,3.8134,3.7216,3.4078,3.2193,3.1135,3.1134,3.2512,3.5243,4.0005,4.2054,4.5215,5.1566,5.2376,5.4686,6.1043,6.1802,6.3019,6.6149,6.9411,7.1289,7.1325,7.4214,7.597,7.6006,7.6006,7.6006,7.6006,7.6006,7.6006,7.6006,7.6006,7.5696,7.5071,7.5071,7.5071,7.5086,7.5724,7.6006,7.6006,7.6006,7.6006,7.6006,7.6006,7.6006,7.6006,7.6006,7.6006,7.6006,7.6006,7.6006,7.6006,7.6006,7.6006,7.6006,7.6006,7.6006,7.6006,7.6006,7.6006,7.6006,7.6006,7.6006,7.6006,7.6006,7.6006,7.6006,7.6006,7.6006,7.6006,7.6006,7.6225,7.6419,7.6571,7.6685,7.6263,7.4564,7.4404,7.3939,7.2417,7.2173,7.2173,7.2136,7.2136,7.2136,7.2136,7.2173,7.2782,7.4328,7.5994,7.6955,7.6955,7.6955,7.6955,7.6955,7.6955,7.6955,7.6955,7.6955,7.6955,7.6955,7.6955,7.6955,7.6955,7.6955,7.6955,5.0613,4.9963,4.9204,4.9982,4.7987,4.5335,4.3479,4.0469,3.7493,3.5362,3.3765,3.2757,3.276,3.5044,3.7433,3.8928,4.3233,4.7413,5.0416,5.2611,5.5878,6.1188,6.1802,6.3019,6.6149,6.7352,6.8869,7.1144,7.3239,7.4815,7.5934,7.6006,7.6006,7.6006,7.6006,7.6006,7.6006,7.6006,7.5925,7.5724,7.5724,7.5724,7.5724,7.5889,7.6006,7.6006,7.6006,7.6006,7.6006,7.6006,7.6006,7.6006,7.6006,7.6006,7.6006,7.6006,7.6006,7.6006,7.6006,7.6006,7.6006,7.6006,7.6006,7.6006,7.6006,7.6006,7.6006,7.6006,7.6006,7.6006,7.6006,7.6006,7.6006,7.6006,7.6006,7.6033,7.6126,7.6344,7.6558,7.6596,7.6685,7.6627,7.6117,7.6129,7.6079,7.5605,7.5532,7.513,7.3902,7.3756,7.3318,7.2246,7.4181,7.5751,7.6189,7.67,7.6955,7.6955,7.6955,7.6955,7.6955,7.6955,7.6955,7.6955,7.6955,7.6955,7.6955,7.6955,7.6955,7.6955,7.6955,7.6955,5.2952,5.2347,5.1553,5.2131,4.9657,4.6706,4.5391,4.1963,3.8578,3.6912,3.5393,3.4567,3.5236,3.6985,3.9158,4.1764,4.5865,4.95,5.1714,5.4654,5.7865,6.1404,6.2344,6.3705,6.6221,6.6486,6.7569,7.0205,7.2444,7.4345,7.5934,7.6006,7.6006,7.6006,7.6006,7.6006,7.6006,7.6006,7.6006,7.6006,7.6006,7.6006,7.6006,7.6006,7.6006,7.6006,7.6006,7.6006,7.6006,7.6006,7.6006,7.6006,7.6006,7.6006,7.6006,7.6006,7.6006,7.6006,7.6006,7.6006,7.6006,7.6006,7.6006,7.6006,7.6006,7.6006,7.6006,7.6006,7.6006,7.6006,7.6006,7.6006,7.6006,7.6006,7.6136,7.6291,7.6385,7.6574,7.676,7.676,7.6822,7.6858,7.6858,7.6932,7.6955,7.6955,7.6955,7.6627,7.5593,7.5471,7.5082,7.4144,7.5824,7.6955,7.6955,7.6955,7.6955,7.6955,7.6955,7.6955,7.6955,7.6955,7.6955,7.6955,7.6955,7.6955,7.6955,7.6955,7.6955,7.6955,7.6955,7.6955,5.4831,5.5986,5.643,5.3467,5.1553,4.9485,4.6129,4.3125,4.0563,3.8687,3.7302,3.6837,3.8261,3.8724,4.0807,4.6478,4.9067,5.1433,5.4385,5.7518,6.0104,6.1838,6.3271,6.4788,6.6341,6.6486,6.7136,6.8665,7.1686,7.407,7.5501,7.5862,7.6006,7.6006,7.6006,7.6006,7.6006,7.6006,7.6006,7.6006,7.6006,7.6006,7.6006,7.6006,7.6006,7.6006,7.6006,7.6006,7.6006,7.6006,7.6006,7.6006,7.6006,7.6006,7.6006,7.6006,7.6006,7.6006,7.6006,7.6006,7.6006,7.6006,7.6006,7.6006,7.6006,7.6006,7.6006,7.6006,7.6006,7.6006,7.6006,7.6006,7.6006,7.6006,7.6317,7.6634,7.6747,7.6895,7.6955,7.6955,7.6955,7.6955,7.6955,7.6955,7.6955,7.6955,7.6955,7.6955,7.6955,7.6955,7.6955,7.6955,7.6955,7.6955,7.6955,7.6955,7.6955,7.6955,7.6955,7.6882,7.6736,7.6736,7.6736,7.6736,7.6736,7.6809,7.6955,7.6955,7.6955,7.6955,7.6955,7.6955,5.6249,5.6863,5.6972,5.6285,5.4867,5.2483,4.8076,4.6559,4.4934,4.0787,4.0643,4.1025,4.0273,4.2124,4.388,4.4091,4.8562,5.2656,5.4565,5.7508,6.0501,6.3308,6.3958,6.4788,6.6341,6.6486,6.663,6.6991,7.0025,7.1975,7.23,7.467,7.6006,7.6006,7.6006,7.6006,7.6006,7.6006,7.6006,7.6006,7.6006,7.6006,7.6006,7.6006,7.6006,7.6006,7.6006,7.6006,7.6006,7.6006,7.6006,7.6006,7.6006,7.6006,7.6006,7.6006,7.6006,7.6006,7.6006,7.6006,7.6006,7.6006,7.6006,7.6006,7.6006,7.6006,7.6006,7.6006,7.6006,7.6006,7.6006,7.6006,7.6006,7.6006,7.6317,7.6634,7.6747,7.6895,7.6955,7.6955,7.6955,7.6955,7.6955,7.6955,7.6955,7.6955,7.6955,7.6955,7.6955,7.6955,7.6955,7.6955,7.6955,7.6955,7.6955,7.6955,7.6955,7.6955,7.6955,7.6371,7.5034,7.4997,7.4997,7.4997,7.4997,7.5666,7.6955,7.6955,7.6955,7.6955,7.6955,7.6955,5.6683,5.7152,5.7152,5.7152,5.53,5.3061,5.1372,4.804,4.4773,4.3053,4.153,4.1004,4.2589,4.425,4.6115,4.8373,5.154,5.4486,5.6722,5.9114,6.1477,6.3849,6.4788,6.5583,6.6402,6.6486,6.6486,6.6486,6.8797,7.0205,7.0205,7.3203,7.5212,7.597,7.6006,7.6006,7.6006,7.6006,7.6006,7.6006,7.6006,7.6006,7.6006,7.6006,7.6006,7.6006,7.6006,7.6006,7.6006,7.6006,7.6006,7.6006,7.6006,7.6006,7.6006,7.6006,7.6006,7.6006,7.6006,7.6006,7.6006,7.6006,7.6006,7.6006,7.6006,7.6006,7.6006,7.6006,7.6006,7.6006,7.6006,7.6006,7.6006,7.6006,7.6216,7.6447,7.666,7.6846,7.6955,7.6955,7.6955,7.6955,7.6955,7.6955,7.6955,7.6955,7.6955,7.6955,7.6955,7.6955,7.6955,7.6955,7.6955,7.6955,7.6955,7.6225,7.5775,7.5775,7.5045,7.4242,7.3366,7.3318,7.3318,7.3318,7.3318,7.4133,7.5775,7.5775,7.6177,7.6955,7.6955,7.6955,5.6249,5.6936,5.7152,5.7152,5.5129,5.3313,5.4072,4.9323,4.5038,4.576,4.3061,4.169,4.5398,4.6208,4.8082,5.3544,5.4532,5.5828,5.9434,6.1029,6.2499,6.4355,6.5691,6.6486,6.6486,6.6486,6.6486,6.6486,6.7786,6.8701,6.8977,7.1469,7.3695,7.5537,7.5609,7.5717,7.6006,7.6006,7.6006,7.6006,7.6006,7.6006,7.6006,7.6006,7.6006,7.6006,7.6006,7.6006,7.6006,7.6006,7.6006,7.6006,7.6006,7.6006,7.6006,7.6006,7.6006,7.6006,7.6006,7.6006,7.6006,7.6006,7.6006,7.6006,7.6006,7.6006,7.6006,7.6006,7.6006,7.6006,7.6006,7.6006,7.602,7.6033,7.614,7.632,7.656,7.6785,7.6955,7.6955,7.6955,7.6955,7.6955,7.6955,7.6955,7.6955,7.6955,7.6955,7.6955,7.6736,7.6517,7.6517,7.6298,7.6152,7.6152,7.4863,7.4048,7.4048,7.2819,7.199,7.1724,7.1687,7.1687,7.1687,7.1687,7.249,7.4048,7.4328,7.5179,7.6554,7.6846,7.6955,5.4542,5.6022,5.7152,5.7152,5.6827,5.5816,5.3214,5.2844,5.2329,4.981,4.9882,5.0189,4.9482,4.9461,5.0236,5.2456,5.2909,5.5022,6.0845,6.1838,6.3035,6.5847,6.6329,6.6486,6.6486,6.6486,6.6486,6.6486,6.6702,6.7461,6.8905,6.9375,7.0964,7.3876,7.3997,7.4647,7.597,7.6006,7.6006,7.6006,7.6006,7.6006,7.6006,7.6006,7.6006,7.6006,7.6006,7.6006,7.6006,7.6006,7.6006,7.6006,7.6006,7.6006,7.6006,7.6006,7.6006,7.6006,7.6006,7.6006,7.6006,7.6006,7.6006,7.6006,7.6006,7.6006,7.6006,7.6006,7.6006,7.6006,7.6006,7.6006,7.6033,7.614,7.637,7.656,7.6722,7.6883,7.6955,7.6955,7.6955,7.6955,7.6955,7.6955,7.6955,7.6955,7.6955,7.6955,7.6955,7.5702,7.4778,7.4778,7.3585,7.2757,7.2757,7.2575,7.2428,7.2428,7.2246,7.1505,7.0143,7.0107,7.0107,7.0107,7.0107,7.0884,7.2428,7.3793,7.4559,7.4815,7.6298,7.6955,5.3964,5.5156,5.595,5.6899,5.7152,5.6791,5.5346,5.4154,5.2916,5.1553,5.0433,5.0017,5.1163,5.1469,5.2373,5.4814,5.5332,5.6967,6.1468,6.2046,6.3151,6.6229,6.6521,6.6486,6.6486,6.6486,6.6486,6.6486,6.6486,6.6811,6.7533,6.8472,6.9628,7.1,7.2769,7.3984,7.4683,7.5537,7.6006,7.6006,7.6006,7.6006,7.6006,7.6006,7.6006,7.6006,7.6006,7.6006,7.6006,7.6006,7.6006,7.6006,7.6006,7.6006,7.6006,7.6006,7.6006,7.6006,7.6006,7.6006,7.6006,7.6006,7.6006,7.6006,7.6006,7.6006,7.6006,7.6006,7.6006,7.6033,7.61,7.6113,7.6153,7.6383,7.6509,7.6634,7.6747,7.6822,7.6895,7.6943,7.6955,7.6955,7.6955,7.6955,7.6955,7.6955,7.6955,7.6298,7.4473,7.3585,7.3136,7.3136,7.2527,7.2136,7.2136,7.1322,7.0811,7.0811,6.9935,6.9096,6.8402,6.8355,6.8355,6.8355,6.8355,6.9169,7.0811,7.1494,7.2296,7.3184,7.479,7.5556,5.2808,5.4036,5.4939,5.6213,5.6827,5.7152,5.7152,5.5274,5.354,5.354,5.1661,5.0785,5.3226,5.3435,5.4133,5.6902,5.7123,5.8169,6.1773,6.2152,6.3238,6.6309,6.6591,6.6521,6.6486,6.6486,6.6486,6.6486,6.6486,6.6486,6.6486,6.7677,6.8544,6.8977,7.1253,7.2878,7.3672,7.4815,7.5609,7.6006,7.6006,7.6006,7.6006,7.6006,7.6006,7.6006,7.6006,7.6006,7.6006,7.6006,7.6006,7.6006,7.6006,7.6006,7.6006,7.6006,7.6006,7.6006,7.6006,7.6006,7.6006,7.6006,7.6006,7.6006,7.6006,7.6006,7.6006,7.6006,7.6006,7.6033,7.6126,7.6166,7.6245,7.6522,7.6622,7.6672,7.6797,7.6834,7.6858,7.698,7.6955,7.6955,7.6955,7.6627,7.6335,7.6335,7.6006,7.4874,7.2428,7.176,7.1505,7.1505,7.1151,7.0859,7.0859,6.9789,6.9158,6.9158,6.7964,6.7271,6.7271,6.7271,6.7271,6.7271,6.7271,6.7891,6.9158,6.9559,7.0399,7.1541,7.3136,7.4048,5.0144,5.2384,5.465,5.4722,5.595,5.7152,5.7152,5.7008,5.6899,5.6899,5.6791,5.6719,5.6873,5.5713,5.5292,5.7065,5.6223,5.6969,6.1738,6.2383,6.3465,6.6332,6.666,6.6614,6.6497,6.6486,6.6486,6.6486,6.6486,6.6486,6.6486,6.6558,6.7352,6.8954,6.9158,7.0675,7.3659,7.3744,7.4526,7.6006,7.6006,7.6006,7.6006,7.6006,7.6006,7.6006,7.6006,7.6006,7.6006,7.6006,7.6006,7.6006,7.6006,7.6006,7.6006,7.6006,7.6006,7.6006,7.6006,7.6006,7.6006,7.6006,7.6006,7.6006,7.6006,7.6006,7.6006,7.6006,7.6006,7.6006,7.602,7.6113,7.6245,7.6522,7.6685,7.6809,7.6956,7.6943,7.6992,7.6955,7.6955,7.6955,7.6955,7.5629,7.4584,7.4584,7.333,7.2319,7.2136,7.0811,6.9888,6.9888,6.8464,6.7526,6.7526,6.7417,6.738,6.738,6.7307,6.7271,6.7271,6.7271,6.7271,6.7271,6.7271,6.7307,6.738,6.9012,6.9815,6.9924,7.1505,7.3038,4.9376,5.0758,5.1878,5.288,5.4325,5.5517,5.5517,5.6357,5.7152,5.7152,5.7152,5.7162,5.714,5.6768,5.6637,5.7256,5.6977,5.7661,6.0401,6.0696,6.1845,6.5021,6.5289,6.554,6.653,6.6602,6.6602,6.6602,6.6521,6.6486,6.6486,6.6486,6.6738,6.7352,6.8436,6.9568,7.0639,7.2661,7.3948,7.4526,7.5501,7.6006,7.6006,7.6006,7.6006,7.6006,7.6006,7.6006,7.6006,7.6006,7.6006,7.6006,7.6006,7.6006,7.6006,7.6006,7.6006,7.6006,7.6006,7.6006,7.6006,7.6006,7.6006,7.6006,7.6006,7.6006,7.6006,7.6006,7.6006,7.606,7.631,7.64,7.6513,7.6773,7.6883,7.6932,7.6943,7.6104,7.5325,7.5325,7.4534,7.3852,7.3852,7.3366,7.2965,7.2965,7.0702,6.8986,6.8986,6.8512,6.8147,6.8147,6.7636,6.7271,6.7271,6.7271,6.7271,6.7271,6.7271,6.7271,6.7271,6.7271,6.7271,6.7271,6.7271,6.7271,6.7271,6.7855,6.8147,6.8172,6.9862,7.091,4.694,4.8329,4.9421,5.0469,5.2302,5.3855,5.3855,5.5119,5.6285,5.6285,5.6755,5.7136,5.7144,5.7222,5.73,5.7403,5.7459,5.8089,5.9673,5.9816,6.0832,6.3559,6.4216,6.4854,6.5847,6.5956,6.5933,6.5899,6.629,6.6521,6.6486,6.6486,6.6486,6.6486,6.7569,6.8436,6.9026,7.1072,7.2372,7.2914,7.3948,7.4706,7.5248,7.5753,7.6006,7.6006,7.6006,7.6006,7.6006,7.6006,7.6006,7.6006,7.6006,7.6006,7.6006,7.6006,7.6006,7.6006,7.6006,7.6006,7.6006,7.6006,7.6006,7.6006,7.6006,7.6006,7.6006,7.6006,7.6006,7.6087,7.6475,7.6067,7.5571,7.5741,7.5569,7.5349,7.5349,7.4461,7.3683,7.3683,7.2819,7.2136,7.2136,7.2136,7.1943,7.1432,6.9497,6.7891,6.7344,6.7271,6.7271,6.7271,6.7271,6.7271,6.7271,6.7271,6.7271,6.7271,6.7271,6.7271,6.7271,6.7271,6.7271,6.7271,6.7271,6.7271,6.7271,6.7271,6.7271,6.7307,6.855,6.9407,4.2757,4.5062,4.7479,4.7479,4.9782,5.2085,5.2121,5.335,5.4505,5.4542,5.5924,5.7074,5.7071,5.7127,5.7232,5.7505,5.7533,5.8052,5.9564,5.9922,6.0522,6.196,6.3585,6.4551,6.4408,6.4459,6.4441,6.4356,6.5755,6.6589,6.6497,6.6486,6.6486,6.6486,6.6486,6.728,6.8905,6.8977,6.9772,7.1253,7.1325,7.2155,7.3659,7.5176,7.5862,7.5862,7.597,7.6006,7.6006,7.6006,7.6006,7.6006,7.6006,7.6006,7.6006,7.6006,7.6006,7.597,7.579,7.5717,7.5717,7.5717,7.5717,7.5717,7.5717,7.5717,7.5717,7.5717,7.5731,7.5883,7.646,7.5097,7.3557,7.3448,7.2777,7.2173,7.2173,7.21,7.2027,7.2027,7.199,7.1954,7.1954,7.1954,7.1468,6.9924,6.9705,6.9121,6.7453,6.7271,6.7271,6.7271,6.7271,6.7271,6.7271,6.7271,6.7271,6.7271,6.7271,6.7271,6.7271,6.7271,6.7271,6.7271,6.7271,6.7271,6.7271,6.7271,6.7245,6.7266,6.7676,6.8656,4.2468,4.3414,4.4108,4.4108,4.5588,4.7401,4.8626,5.0108,5.1607,5.2819,5.4348,5.5498,5.5574,5.6602,5.7412,5.7412,5.7496,5.7679,5.8125,5.8216,5.8799,6.0325,6.0934,6.1219,6.1304,6.2229,6.3366,6.4534,6.4931,6.5568,6.6553,6.6614,6.6579,6.6486,6.6486,6.6702,6.7172,6.8364,6.923,6.9676,7.0783,7.1578,7.2011,7.2444,7.2625,7.2769,7.4995,7.6006,7.6006,7.6006,7.6006,7.6006,7.6006,7.6006,7.6006,7.6006,7.6006,7.5356,7.0698,6.9122,6.9122,6.9122,6.9122,6.9122,6.9122,6.9122,6.9122,6.9122,6.9374,7.0754,7.5619,7.647,7.5424,7.3053,7.2883,7.3234,7.3234,7.1785,7.0435,7.0435,6.9424,6.8585,6.8585,6.8585,6.8439,6.8001,6.7964,6.7782,6.7307,6.7271,6.7271,6.7271,6.7271,6.7271,6.7271,6.7271,6.7271,6.7271,6.7271,6.7271,6.7271,6.7271,6.7271,6.7271,6.7271,6.7271,6.7271,6.7271,6.7399,6.7696,6.7772,6.8185,3.8716,3.9257,3.9762,3.9762,4.1444,4.3417,4.4384,4.6383,4.8458,5.0113,5.176,5.31,5.3888,5.5423,5.656,5.6469,5.7097,5.7589,5.7543,5.758,5.7962,5.8799,5.8927,5.8973,5.8918,6.0306,6.1611,6.2567,6.3195,6.422,6.5713,6.5786,6.6053,6.6601,6.6591,6.6567,6.6567,6.7484,6.7966,6.7966,6.8869,6.9772,7.0698,7.0698,7.0205,6.9411,7.124,7.1998,7.2215,7.4887,7.6006,7.6006,7.6006,7.6006,7.5681,7.3009,7.1998,7.1493,6.7774,6.6486,6.6486,6.6486,6.6486,6.6486,6.6486,6.6625,6.6832,6.6832,6.7031,6.8147,7.1917,7.2903,7.2428,7.053,7.0545,7.0983,7.0983,6.9815,6.872,6.872,6.7928,6.7271,6.7271,6.7271,6.7271,6.7271,6.7271,6.7271,6.7271,6.7271,6.7271,6.7271,6.7271,6.7271,6.7271,6.7271,6.7271,6.7271,6.7271,6.7271,6.7271,6.7271,6.7271,6.7271,6.7271,6.7271,6.7271,6.7271,6.7369,6.7609,6.7781,6.7394,3.3622,3.4235,3.5324,3.5326,3.7535,3.9755,0.0,4.2197,4.4781,4.6537,4.8244,4.9947,5.1881,5.3574,5.4793,5.5146,5.6485,5.7489,5.757,5.7644,5.7708,5.757,5.7671,5.7626,5.7385,5.8751,5.9634,5.9718,6.1135,6.265,6.4216,6.4299,6.4989,6.655,6.6486,6.6502,6.6671,6.6567,6.6497,6.6486,6.6486,6.7521,6.9422,6.9422,6.8339,6.6486,6.6486,6.6486,6.6919,7.2612,7.4923,7.4923,7.4923,7.4923,7.4237,6.858,6.6486,6.6486,6.6486,6.6486,6.6486,6.6486,6.6486,6.6497,6.6556,6.6899,6.7271,6.7271,6.7271,6.7271,6.7271,6.7271,6.7271,6.7271,6.7271,6.7271,6.7271,6.7271,6.7271,6.7271,6.7271,6.7271,6.7271,6.7271,6.7271,6.7271,6.7271,6.7271,6.7271,6.7271,6.7271,6.7271,6.7271,6.7271,6.7271,6.7271,6.7271,6.7271,6.7271,6.7161,6.7015,6.7015,6.6906,6.6723,6.6723,6.6744,6.6785,6.6785,6.68,6.6891,6.722,6.6267,0.0,0.0,0.0,0.0,0.0,0.0,0.0,3.7569,3.8807,4.1833,4.3633,4.5614,4.8671,5.045,5.2253,5.479,5.5483,5.6139,5.7489,5.7726,5.7735,5.768,5.7607,5.7589,5.7644,5.788,5.8544,5.9876,6.0286,6.1159,6.2727,6.28,6.3475,6.4931,6.4982,6.5518,6.6671,6.6755,6.6686,6.6486,6.6486,6.6702,6.7124,6.7124,6.6883,6.6486,6.6486,6.6486,6.6582,6.7822,6.8327,6.8327,6.8327,6.8327,6.8171,6.6943,6.6486,6.6486,6.6486,6.6486,6.6486,6.6486,6.6486,6.6556,6.6987,6.7171,6.7271,6.7271,6.7271,6.7271,6.7271,6.7271,6.7271,6.7271,6.7271,6.7271,6.7271,6.7271,6.7271,6.7271,6.7271,6.7271,6.7271,6.7271,6.7271,6.7271,6.7271,6.7271,6.7271,6.7271,6.7271,6.7271,6.7271,6.7271,6.7271,6.7271,6.7271,6.7271,6.7271,6.6687,6.5425,6.5352,6.4742,6.3355,6.3355,6.3502,6.3828,6.3828,6.4096,6.4584,6.4677,6.4462,0.0,0.0,0.0,0.0,0.0,0.0,0.0,0.0,0.0,0.0,0.0,4.1836,4.4267,0.0,4.9932,5.1393,5.3622,5.5483,5.6339,5.7224,5.7744,5.7744,5.7653,5.7626,5.7626,5.757,5.7879,5.8737,5.881,5.9502,6.1152,6.1224,6.1924,6.3439,6.345,6.4041,6.5189,6.5206,6.5648,6.6486,6.6486,6.6486,6.6486,6.6486,6.6486,6.6486,6.6486,6.6486,6.6486,6.6486,6.6486,6.6486,6.6486,6.6486,6.6486,6.6486,6.6486,6.6486,6.6486,6.6486,6.6486,6.6486,6.6648,6.6896,6.7171,6.7271,6.7271,6.7271,6.7271,6.7271,6.7271,6.7271,6.7271,6.7271,6.7271,6.7271,6.7271,6.7271,6.7271,6.7271,6.7271,6.7271,6.7271,6.7271,6.7307,6.752,6.7369,6.7271,6.7271,6.7271,6.7271,6.7271,6.7271,6.7271,6.7271,6.7271,6.6942,6.6165,6.5289,6.4486,6.372,6.3684,6.3282,6.2406,6.2588,6.28,6.2978,6.3111,6.333,6.3576,6.0599,5.9184,0.0,0.0,0.0,0.0,0.0,0.0,0.0,0.0,0.0,0.0,0.0,0.0,0.0,0.0,0.0,4.7488,5.1101,5.4133,5.5081,5.612,5.6904,5.7188,5.726,5.7334,5.7543,5.757,5.757,5.757,5.757,5.819,5.9541,5.9614,6.0353,6.1895,6.2036,6.242,6.3174,6.3878,6.5005,6.6486,6.6486,0.0,6.6486,6.6486,6.6486,6.6486,6.6486,6.6486,6.6486,6.6486,6.6486,6.6486,6.6486,6.6486,6.6486,6.6486,6.6486,6.6532,6.6834,6.6965,6.6976,6.7036,6.734,6.7651,6.7651,6.7651,0.0,6.7651,6.7651,6.7651,6.7651,6.7651,6.7651,6.7651,6.7651,6.7651,6.7651,6.7651,6.7651,6.7651,6.7651,6.7591,6.7297,6.7332,6.7283,6.6842,6.6508,6.6431,6.676,6.6796,6.6942,6.7234,6.6979,6.6796,6.6796,6.6504,6.5764,6.4513,6.3173,6.2299,6.2037,6.2047,6.1892,6.1674,6.195,6.2008,6.1725,6.1952,6.1918,6.1535,5.6673,5.441,0.0,0.0,0.0,0.0,0.0,0.0,0.0,0.0,0.0,0.0,0.0,0.0,0.0,0.0,0.0,0.0,4.7656,5.0311,5.4607,5.4186,5.3931,5.5337,5.5483,5.6075,5.7543,5.7726,5.7726,5.7726,5.7726,5.7799,5.799,5.7999,0.0,0.0,0.0,6.1032,6.0993,6.4884,6.6711,6.6486,6.6486,6.6486,6.6486,6.6486,6.6486,6.6486,6.6486,6.6486,6.6486,6.6486,6.6486,6.6486,6.6486,6.6486,6.6486,6.6486,6.6486,6.6692,6.8213,0.0,0.0,6.8974,6.9109,6.917,6.917,6.917,6.917,6.917,6.917,6.917,6.917,6.917,6.917,6.917,6.917,6.917,6.917,6.917,6.917,6.917,6.917,6.8752,6.7464,6.7736,6.6971,6.354,6.2993,6.3501,6.4987,6.5206,6.5727,6.7088,6.6019,0.0,6.5206,6.383,6.2844,6.2698,6.2479,6.1865,6.0727,6.0662,6.0111,5.8972,5.9007,5.8469,5.7272,5.7344,5.6687,5.5422,5.4723,5.441,0.0,0.0,0.0,0.0,0.0,0.0,0.0,0.0,0.0,0.0,0.0,0.0,0.0,0.0,0.0,0.0,4.4563,4.7837,5.0819,5.0558,5.0975,5.3566,5.385,5.4478,5.6112,5.6258,5.6668,5.7671,5.7744,5.7744,5.7744,5.7744,5.8027,5.8684,5.8903,5.9021,5.8956,6.0808,6.1516,6.1043,6.1043,6.2946,6.6486,6.6486,6.6486,6.6486,6.6486,6.6486,6.6486,6.6486,6.6486,6.6124,0.0,0.0,0.0,0.0,6.6486,6.6566,6.73,6.7735,6.8027,6.8117,6.8131,6.8131,6.8131,6.8131,6.8131,6.8131,6.8131,6.8131,6.8131,6.8131,6.837,6.92,6.9408,6.9408,6.9408,6.9408,6.9408,6.9408,6.9408,0.0,6.5613,6.4954,6.436,6.2938,6.2533,6.2662,6.3355,6.3465,6.3684,6.4351,6.3866,6.3465,6.3465,6.2808,0.0,0.0,0.0,6.0392,5.8953,5.9002,0.0,0.0,0.0,5.6632,5.5084,5.5224,0.0,0.0,4.6852,4.6777,0.0,0.0,0.0,0.0,0.0,0.0,0.0,0.0,0.0,0.0,0.0,0.0,0.0,0.0,0.0,0.0,4.1077,4.4334,4.5605,4.6741,4.849,5.1428,5.2037,5.2878,5.4523,5.4594,5.5054,5.632,5.6393,5.6567,5.7005,5.7042,5.726,5.7707,5.7744,5.7653,5.7588,5.769,5.7607,5.7321,5.7202,5.9526,6.3922,6.3922,6.3922,6.3922,6.3922,6.3922,6.3922,6.3922,6.3922,6.3452,5.8912,5.9923,6.3922,6.3922,6.3922,6.3975,6.442,6.48,6.5129,6.5129,6.5129,6.5129,6.5129,6.5129,6.5129,6.5129,6.5129,6.5129,6.5129,6.5129,6.5403,6.6421,6.6663,6.6663,6.6663,6.7805,6.8399,6.6949,6.6663,6.5665,6.2516,6.1467,6.1252,6.1638,6.1423,6.1389,6.1801,6.1817,6.1932,6.237,6.2005,6.1749,6.1749,6.1348,6.0618,5.9514,5.9497,5.9011,5.7886,5.8169,5.763,5.6189,5.5586,5.4462,0.0,0.0,0.0,0.0,0.0,0.0,0.0,0.0,0.0,0.0,0.0,0.0,0.0,0.0,0.0,0.0,0.0,0.0,0.0,0.0,0.0,0.0,0.0,0.0,3.9155,4.3059,4.6705,4.8681,4.9908,5.1307,5.3158,5.3104,5.2954,5.3027,5.3027,5.3676,5.5191,5.53,5.6039,5.7671,5.7744,5.757,5.7172,5.7524,5.7735,5.7726,5.7341,5.7261,5.7441,5.7441,5.7441,5.7441,5.7441,5.7441,5.7441,5.7441,5.7441,5.7405,5.7225,5.7261,5.7441,5.7441,5.7441,5.7655,5.9156,5.9731,5.9698,5.9698,5.9698,5.9698,5.9698,5.9698,5.9698,5.9698,5.9698,5.9698,5.9698,5.9698,5.9741,5.9773,5.9778,5.9778,5.9778,6.3754,6.5831,6.0763,5.9778,5.9398,5.815,5.7871,5.8022,5.8379,5.8325,0.0,6.0299,6.0282,6.0718,6.2224,6.1046,6.0125,6.0125,5.8757,5.7853,5.7817,5.8029,5.8164,5.809,5.8595,5.8123,5.6574,5.3599,5.1261,4.9691,0.0,0.0,0.0,0.0,0.0,0.0,0.0,0.0,0.0,0.0,0.0,0.0,0.0,0.0,0.0,0.0,0.0,0.0,0.0,0.0,0.0,0.0,0.0,0.0,3.9557,4.1797,4.3669,4.5096,4.6627,4.8448,4.8395,4.8678,4.9808,5.0801,5.1547,5.2086,5.31,5.4231,5.5481,5.486,5.5368,5.7116,5.7292,5.736,5.736,5.7222,5.7152,5.7152,5.7152,5.7152,5.7152,5.7152,5.7152,5.7152,5.7152,5.7152,5.7152,5.7152,5.7688,5.844,5.844,5.844,5.8511,5.9046,5.9358,5.9477,5.9477,5.9477,5.9477,5.9477,5.9477,5.9477,5.9477,5.9477,5.9477,5.9477,5.9477,5.9477,5.9477,5.9477,5.9477,5.9477,6.0869,6.1576,5.9829,5.9477,5.913,5.7925,5.8038,5.8255,5.83,5.8345,5.8551,5.9106,5.9084,5.9237,5.9791,5.9348,5.9053,5.9053,5.8543,5.8255,5.8255,5.8352,5.8366,5.8366,5.7722,5.7114,5.6585,5.2487,4.9548,4.786,0.0,0.0,0.0,0.0,0.0,0.0,0.0,0.0,0.0,0.0,0.0,0.0,0.0,0.0,0.0,0.0,0.0,0.0,0.0,0.0,0.0,0.0,0.0,0.0,0.0,0.0,3.9615,4.1511,0.0,4.3626,4.4056,4.4727,4.5814,4.6754,4.7811,4.8933,5.0468,5.1112,5.0703,5.0968,5.3059,5.7116,5.7152,5.7152,5.7152,5.7152,5.7152,5.7152,5.7152,5.7152,5.7152,5.7152,5.7152,5.7152,5.7152,5.7152,5.7176,5.767,5.836,5.91,5.91,5.91,5.91,5.91,5.9259,5.9101,5.6733,5.5943,5.5943,5.5943,5.5943,5.5943,5.5943,5.7672,5.9477,5.9477,5.9477,5.9477,5.9477,5.9477,5.9477,5.9477,5.9477,5.9477,5.9477,5.756,5.5698,5.4968,5.708,5.8815,5.8739,5.8676,5.8453,5.7877,5.8208,5.8526,5.8526,5.8526,5.8526,5.8526,5.8526,5.8526,5.8526,5.8589,5.838,5.7846,5.7114,5.5851,5.408,5.0536,4.6954,0.0,0.0,0.0,0.0,0.0,0.0,0.0,0.0,0.0,0.0,0.0,0.0,0.0,0.0,0.0,0.0,0.0,0.0,0.0,0.0,0.0,0.0,0.0,0.0,0.0,0.0,0.0,3.6346,3.9024,0.0,0.0,0.0,0.0,4.1054,4.1118,4.2568,4.5739,4.7204,4.6767,4.4224,4.666,5.0796,5.661,5.6647,5.6647,5.6683,5.7008,5.7152,5.7152,5.7152,5.7152,5.7152,5.7152,5.7152,5.7116,5.6791,5.6647,5.6814,5.8091,5.8577,5.8577,5.8577,5.8577,5.8577,5.8577,5.8766,5.7922,5.1612,4.9586,4.9586,4.9586,4.9586,0.0,0.0,5.4097,5.8988,5.8988,5.9214,5.9477,5.9477,5.9477,5.9477,5.9477,5.9477,5.9402,5.9064,5.3871,4.9586,4.9586,0.0,5.9477,5.9477,5.9061,5.8252,5.6895,5.771,5.8455,5.853,5.8567,5.8567,5.8567,5.8567,5.8567,5.8567,5.8696,5.8113,5.6639,5.6586,5.4318,4.9548,4.7522,0.0,0.0,0.0,0.0,0.0,0.0,0.0,0.0,0.0,0.0,0.0,0.0,0.0,0.0,0.0,0.0,0.0,0.0,0.0,0.0,0.0,0.0,0.0,0.0,0.0,0.0,2.8941,3.1183,3.1369,3.4196,3.6027,0.0,0.0,0.0,0.0,0.0,0.0,4.0789,4.1272,4.3148,4.6839,4.7648,4.8667,5.0044,5.0044,5.0044,5.0116,5.4876,5.7152,5.7152,5.7152,5.7152,5.7152,5.7152,5.7152,5.6791,5.2022,5.0044,5.0183,5.1261,5.1694,5.1694,5.1694,5.1694,5.1694,5.1694,5.1776,5.159,5.0068,4.9586,4.9586,4.9586,0.0,0.0,0.0,0.0,5.2104,5.2104,5.5755,5.9477,5.9477,5.9477,5.9477,5.9477,5.9477,5.8011,5.3082,5.0751,4.9586,4.9586,5.5078,0.0,5.9477,5.7984,5.7308,5.8571,5.7927,5.7817,5.9092,5.9242,5.9242,5.9242,5.9242,5.9242,5.9242,5.7927,5.7082,5.6839,5.3191,5.0093,4.7743,0.0,0.0,0.0,0.0,0.0,0.0,0.0,0.0,0.0,0.0,0.0,0.0,0.0,0.0,0.0,0.0,0.0,0.0,0.0,0.0,0.0,0.0,0.0,0.0,0.0,0.0,0.0,2.5625,2.7191,2.7234,2.9577,3.0895,0.0,0.0,0.0,0.0,0.0,0.0,0.0,0.0,0.0,4.4143,4.3908,4.3655,4.3633,4.6271,4.7623,4.7659,5.1273,5.2962,5.307,5.5852,5.7152,5.7008,5.419,5.3232,5.3176,4.6717,4.4095,4.4168,0.0,0.0,0.0,0.0,4.4996,4.4996,4.4996,4.4951,4.4963,4.5171,0.0,0.0,0.0,0.0,0.0,0.0,0.0,4.5898,4.8796,5.233,5.5154,5.5154,5.5154,5.5154,5.5154,5.5154,5.3157,4.6499,4.5265,4.5301,4.5301,4.8386,0.0,0.0,0.0,5.7743,5.8006,5.8048,5.8429,5.9402,5.9477,5.9477,5.9477,5.9477,5.9176,5.8424,5.736,5.5845,5.3796,5.0207,4.648,0.0,0.0,0.0,0.0,0.0,0.0,0.0,0.0,0.0,0.0,0.0,0.0,0.0,0.0,0.0,0.0,0.0,0.0,0.0,0.0,0.0,0.0,0.0,0.0,0.0,0.0,0.0,0.0,0.0,2.3773,2.3999,0.0,0.0,0.0,0.0,0.0,0.0,0.0,0.0,0.0,0.0,0.0,0.0,0.0,3.7518,3.861,4.3914,4.6498,4.635,4.635,4.6828,4.7812,5.3517,5.6085,5.5712,4.921,0.0,4.7308,4.1743,0.0,0.0,0.0,0.0,0.0,0.0,0.0,0.0,0.0,0.0,0.0,0.0,0.0,0.0,0.0,0.0,0.0,0.0,0.0,0.0,0.0,0.0,4.8495,4.936,4.9586,4.9326,4.848,4.8295,4.6336,3.9638,3.8444,3.8504,0.0,0.0,0.0,0.0,0.0,0.0,5.6724,5.8044,5.9139,5.944,5.9477,5.9477,5.9477,5.9252,5.8537,5.7038,5.6302,5.393,4.9398,4.6936,0.0,0.0,0.0,0.0,0.0,0.0,0.0,0.0,0.0,0.0,0.0,0.0,0.0,0.0,0.0,0.0,0.0,0.0,0.0,0.0,0.0,0.0,0.0,0.0,0.0,0.0,0.0,0.0,0.0,0.0,0.0,0.0,0.0,0.0,0.0,0.0,0.0,0.0,0.0,0.0,0.0,0.0,0.0,0.0,0.0,0.0,0.0,0.0,0.0,0.0,3.9747,4.2506,4.7701,4.9646,5.0568,5.0157,4.2902,3.9886,3.9992,3.9728,0.0,0.0,0.0,0.0,0.0,0.0,0.0,0.0,0.0,0.0,0.0,0.0,0.0,0.0,0.0,0.0,0.0,0.0,0.0,0.0,0.0,0.0,4.2778,4.827,4.9586,4.8107,4.2714,0.0,0.0,0.0,0.0,0.0,0.0,0.0,0.0,0.0,0.0,0.0,5.8274,5.7668,5.748,5.9289,5.9477,5.9477,5.9477,5.8203,5.7263,5.6963,5.291,4.9622,0.0,0.0,0.0,0.0,0.0,0.0,0.0,0.0,0.0,0.0,0.0,0.0,0.0,0.0,0.0,0.0,0.0,0.0,0.0,0.0,0.0,0.0,0.0,0.0,0.0,0.0,0.0,0.0,0.0,0.0,0.0,0.0,0.0,0.0,0.0,0.0,0.0,0.0,0.0,0.0,0.0,0.0,0.0,0.0,0.0,0.0,0.0,0.0,0.0,0.0,0.0,0.0,0.0,0.0,0.0,0.0,0.0,0.0,3.6747,3.3688,0.0,0.0,0.0,0.0,0.0,0.0,0.0,0.0,0.0,0.0,0.0,0.0,0.0,0.0,0.0,0.0,0.0,0.0,0.0,0.0,0.0,0.0,0.0,0.0,0.0,0.0,0.0,0.0,0.0,0.0,0.0,0.0,0.0,0.0,0.0,0.0,0.0,0.0,0.0,0.0,5.8208,5.8533,5.8307,5.9364,5.9477,5.9139,5.8241,5.7414,5.5872,5.3274,4.9923,0.0,0.0,0.0,0.0,0.0,0.0,0.0,0.0,0.0,0.0,0.0,0.0,0.0,0.0,0.0,0.0,0.0,0.0,0.0,0.0,0.0,0.0,0.0,0.0,0.0,0.0,0.0,0.0,0.0,0.0,0.0,0.0,0.0,0.0,0.0,0.0,0.0,0.0,0.0,0.0,0.0,0.0,0.0,0.0,0.0,0.0,0.0,0.0,0.0,0.0,0.0,0.0,0.0,0.0,0.0,0.0,0.0,0.0,0.0,3.1905,2.9631,0.0,0.0,0.0,0.0,0.0,0.0,0.0,0.0,0.0,0.0,0.0,0.0,0.0,0.0,0.0,0.0,0.0,0.0,0.0,0.0,0.0,0.0,0.0,0.0,0.0,0.0,0.0,0.0,0.0,0.0,0.0,0.0,0.0,0.0,0.0,0.0,0.0,0.0,0.0,0.0,5.5893,5.8635,5.9477,5.9477,5.9477,5.8725,5.6921,5.6549,5.4443,4.9849,4.7334,0.0,0.0,0.0,0.0,0.0,0.0,0.0,0.0,0.0,0.0,0.0,0.0,0.0,0.0,0.0,0.0,0.0,0.0,0.0,0.0,0.0,0.0,0.0,0.0,0.0,0.0,0.0,0.0,0.0,0.0,0.0,0.0,0.0,0.0,0.0,0.0,0.0,0.0,0.0,0.0,0.0,0.0,0.0,0.0,0.0,0.0,0.0,0.0,0.0,0.0,0.0,0.0,0.0,0.0,0.0,0.0,0.0,0.0,0.0,0.0,0.0,0.0,0.0,0.0,0.0,0.0,0.0,0.0,0.0,0.0,0.0,0.0,0.0,0.0,0.0,0.0,0.0,0.0,0.0,0.0,0.0,0.0,0.0,0.0,0.0,0.0,0.0,0.0,0.0,0.0,0.0,0.0,0.0,0.0,0.0,0.0,0.0,0.0,0.0,0.0,0.0,4.9707,5.5841,5.9477,5.9477,5.9477,5.8608,5.6423,5.5271,5.3203,4.9773,0.0,0.0,0.0,0.0,0.0,0.0,0.0,0.0,0.0,0.0,0.0,0.0,0.0,0.0,0.0,0.0,0.0,0.0,0.0,0.0,0.0,0.0,0.0,0.0,0.0,0.0,0.0,0.0,0.0,0.0,0.0,0.0,0.0,0.0,0.0,0.0,0.0,0.0,0.0,0.0,0.0,0.0,0.0,0.0,0.0,0.0,0.0,0.0,0.0,0.0,0.0,0.0,0.0,0.0,0.0,0.0,0.0,0.0,0.0,0.0,0.0,0.0,0.0,0.0,0.0,0.0,0.0,0.0,0.0,0.0,0.0,0.0,0.0,0.0,0.0,0.0,0.0,0.0,0.0,0.0,0.0,0.0,0.0,0.0,0.0,0.0,0.0,0.0,0.0,0.0,0.0,0.0,0.0,0.0,0.0,0.0,0.0,0.0,0.0,0.0,0.0,0.0,4.2925,4.9557,5.5145,5.9035,5.9477,5.8312,5.5379,5.2898,5.0078,4.6732,0.0,0.0,0.0,0.0,0.0,0.0,0.0,0.0,0.0,0.0,0.0,0.0,0.0,0.0,0.0,0.0,0.0,0.0,0.0,0.0,0.0,0.0,0.0,0.0,0.0,0.0,0.0,0.0,0.0,0.0,0.0,0.0,0.0,0.0,0.0,0.0,0.0,0.0,0.0,0.0,0.0,0.0,0.0,0.0,0.0,0.0,0.0,0.0,0.0,0.0,0.0,0.0,0.0,0.0,0.0,0.0,0.0,0.0,0.0,0.0,0.0,0.0,0.0,0.0,0.0,0.0,0.0,0.0,0.0,0.0,0.0,0.0,0.0,0.0,0.0,0.0,0.0,0.0,0.0,0.0,0.0,0.0,0.0,0.0,0.0,0.0,0.0,0.0,0.0,0.0,0.0,0.0,0.0,0.0,0.0,0.0,0.0,0.0,0.0,0.0,0.0,0.0,3.8957,4.5644,5.1534,5.6134,5.8338,5.771,5.3353,5.0905,4.7706,4.3348,0.0,0.0,0.0,0.0,0.0,0.0,0.0,0.0,0.0,0.0,0.0,0.0,0.0,0.0,0.0,0.0,0.0,0.0,0.0,0.0,0.0,0.0,0.0,0.0,0.0,0.0,0.0,0.0,0.0,0.0,0.0,0.0,0.0,0.0,0.0,0.0,0.0,0.0,0.0,0.0,0.0,0.0,0.0,0.0,0.0,0.0,0.0,0.0,0.0,0.0,0.0,0.0,0.0,0.0,0.0,0.0,0.0,0.0,0.0,0.0,0.0,0.0,0.0,0.0,0.0,0.0,0.0,0.0,0.0,0.0,0.0,0.0,0.0,0.0,0.0,0.0,0.0,0.0,0.0,0.0,0.0,0.0,0.0,0.0,0.0,0.0,0.0,0.0,0.0,0.0,0.0,0.0,0.0,0.0,0.0,0.0,0.0,0.0,0.0,0.0,0.0,0.0,3.8957,4.5644,4.9799,4.9875,5.5619,5.6808,5.0187,4.9586,4.6762,0.0,0.0,0.0,0.0,0.0,0.0,0.0,0.0,0.0,0.0,0.0,0.0,0.0,0.0,0.0,0.0,0.0,0.0,0.0,0.0,0.0,0.0,0.0,0.0,0.0,0.0,0.0,0.0,0.0,0.0,0.0,0.0,0.0,0.0,0.0,0.0,0.0,0.0,0.0,0.0,0.0,0.0,0.0,0.0,0.0,0.0,0.0,0.0,0.0,0.0,0.0,0.0,0.0,0.0,0.0,0.0,0.0,0.0,0.0,0.0,0.0,0.0,0.0,0.0,0.0,0.0,0.0,0.0,0.0,0.0,0.0,0.0,0.0,0.0,0.0,0.0,0.0,0.0,0.0,0.0,0.0,0.0,0.0,0.0,0.0,0.0,0.0,0.0,0.0,0.0,0.0,0.0,0.0,0.0,0.0,0.0,0.0,0.0,0.0,0.0,0.0,0.0,0.0,3.9561,4.5644,4.9762,4.9762,5.5585,5.6808,5.0149,4.9586,4.6725,4.0068,0.0,0.0,0.0,0.0,0.0,0.0,0.0,0.0,0.0,0.0,0.0,0.0,0.0,0.0,0.0,0.0,0.0,0.0,0.0,0.0,0.0,0.0,0.0,0.0,0.0,0.0,0.0,0.0,0.0,0.0,0.0,0.0,0.0,0.0,0.0,0.0,0.0,0.0,0.0,0.0,0.0,0.0,0.0,0.0,0.0,0.0,0.0,0.0,0.0,0.0,0.0,0.0,0.0,0.0,0.0,0.0,0.0,0.0,0.0,0.0,0.0,0.0,0.0,0.0,0.0,0.0,0.0,0.0,0.0,0.0,0.0,0.0,0.0,0.0,0.0,0.0,0.0,0.0,0.0,0.0,0.0,0.0,0.0,0.0,0.0,0.0,0.0,0.0,0.0,0.0,0.0,0.0,0.0,0.0,0.0,0.0,0.0,0.0,0.0,0.0,0.0,0.0,0.0,4.5644,4.9762,4.9762,5.5585,5.6808,5.0149,4.9586,4.6725,4.0068,0.0,0.0,0.0,0.0,0.0,0.0,0.0,0.0,0.0,0.0,0.0,0.0,0.0,0.0,0.0,0.0,0.0,0.0,0.0,0.0,0.0,0.0,0.0,0.0,0.0,0.0,0.0,0.0,0.0,0.0,0.0,0.0,0.0,0.0,0.0,0.0,0.0,0.0,0.0,0.0,0.0,0.0,0.0,0.0,0.0,0.0,0.0,0.0,0.0,0.0,0.0,0.0,0.0,0.0,0.0,0.0,0.0,0.0,0.0,0.0,0.0,0.0,0.0,0.0,0.0,0.0,0.0,0.0,0.0,0.0,0.0,0.0,0.0,0.0,0.0,0.0,0.0,0.0,0.0,0.0,0.0,0.0,0.0,0.0,0.0,0.0,0.0,0.0,0.0,0.0,0.0,0.0,0.0,0.0,0.0,0.0,0.0,0.0,0.0,0.0,0.0,0.0,0.0,4.5644,4.9762,4.9762,5.5179,5.6294,5.0074,4.9586,4.6725,4.0068,3.3428,0.0,0.0,0.0,0.0,0.0,0.0,0.0,0.0,0.0,0.0,0.0,0.0,0.0,0.0,0.0,0.0,0.0,0.0,0.0,0.0,0.0,0.0,0.0,0.0,0.0,0.0,0.0,0.0,0.0,0.0,0.0,0.0,0.0,0.0,0.0,0.0,0.0,0.0,0.0,0.0,0.0,0.0,0.0,0.0,0.0,0.0,0.0,0.0,0.0,0.0,0.0,0.0,0.0,0.0,0.0,0.0,0.0,0.0,0.0,0.0,0.0,0.0,0.0,0.0,0.0,0.0,0.0,0.0,0.0,0.0,0.0,0.0,0.0,0.0,0.0,0.0,0.0,0.0,0.0,0.0,0.0,0.0,0.0,0.0,0.0,0.0,0.0,0.0,0.0,0.0,0.0,0.0,0.0,0.0,0.0,0.0,0.0,0.0,0.0,0.0,0.0,0.0,4.5644,4.9762,4.9762,5.1128,5.1368,4.971,4.9586,4.6725,4.0068,3.3428,0.0,0.0,0.0,0.0,0.0,0.0,0.0,0.0,0.0,0.0,0.0,0.0,0.0,0.0,0.0,0.0,0.0,0.0,0.0,0.0,0.0,0.0,0.0,0.0,0.0,0.0,0.0,0.0,0.0,0.0,0.0,0.0,0.0,0.0,0.0,0.0,0.0,0.0,0.0,0.0,0.0,0.0,0.0,0.0,0.0,0.0,0.0,0.0,0.0,0.0,0.0,0.0,0.0,0.0,0.0,0.0,0.0,0.0,0.0,0.0,0.0,0.0,0.0,0.0,0.0,0.0,0.0,0.0,0.0,0.0,0.0,0.0,0.0,0.0,0.0,0.0,0.0,0.0,0.0,0.0,0.0,0.0,0.0,0.0,0.0,0.0,0.0,0.0,0.0,0.0,0.0,0.0,0.0,0.0,0.0,0.0,0.0,0.0,0.0,0.0,0.0,0.0,4.1076,4.6361,4.9422,4.9762,4.9711,4.9601,4.9586,4.6725,4.0068,3.3428,0.0,0.0,0.0,0.0,0.0,0.0,0.0,0.0,0.0,0.0,0.0,0.0,0.0,0.0,0.0,0.0,0.0,0.0,0.0,0.0,0.0,0.0,0.0,0.0,0.0,0.0,0.0,0.0,0.0,0.0,0.0,0.0,0.0,0.0,0.0,0.0,0.0,0.0,0.0,0.0,0.0,0.0,0.0,0.0,0.0,0.0,0.0,0.0,0.0,0.0,0.0,0.0,0.0,0.0,0.0,0.0,0.0,0.0,0.0,0.0,0.0,0.0,0.0,0.0,0.0,0.0,0.0,0.0,0.0,0.0,0.0,0.0,0.0,0.0,0.0,0.0,0.0,0.0,0.0,0.0,0.0,0.0,0.0,0.0,0.0,0.0,0.0,0.0,0.0,0.0,0.0,0.0,0.0,0.0,0.0,0.0,0.0,0.0,0.0,0.0,0.0,0.0,0.0,4.2017,4.7647,4.9158,4.9711,4.9601,4.9586,4.6725,4.0068,0.0,0.0,0.0,0.0,0.0,0.0,0.0,0.0,0.0,0.0,0.0,0.0,0.0,0.0,0.0,0.0,0.0,0.0,0.0,0.0,0.0,0.0,0.0,0.0,0.0,0.0,0.0,0.0,0.0,0.0,0.0,0.0,0.0,0.0,0.0,0.0,0.0,0.0,0.0,0.0,0.0,0.0,0.0,0.0,0.0,0.0,0.0,0.0,0.0,0.0,0.0,0.0,0.0,0.0,0.0,0.0,0.0,0.0,0.0,0.0,0.0,0.0,0.0,0.0,0.0,0.0,0.0,0.0,0.0,0.0,0.0,0.0,0.0,0.0,0.0,0.0,0.0,0.0,0.0,0.0,0.0,0.0,0.0,0.0,0.0,0.0,0.0,0.0,0.0,0.0,0.0,0.0,0.0,0.0,0.0,0.0,0.0,0.0,0.0,0.0,0.0,0.0,0.0,0.0,4.024,4.1262,4.6399,4.9711,4.9601,4.9586,4.6725,4.0068,0.0,0.0,0.0,0.0,0.0,0.0,0.0,0.0,0.0,0.0,0.0,0.0,0.0,0.0]}],[{"header":{"parameterUnit":"kt","parameterCategory":2,"dx":1,"dy":1,"la1":29.285339999999998,"la2":30.599998999999997,"lo1":-89.70041500000002,"lo2":-87.6738589999976,"nx":112,"ny":82,"refTime":"2022-10-28T18:00:00:Z","depth":0,"parameterNumber":2,"parameterNumberName":"V-component_of_WINDS"},"data":[2.6529,2.5028,2.3226,2.1419,2.0441,1.9529,1.8159,1.6345,1.4846,1.4605,1.3642,1.2795,1.2641,1.183,1.1018,1.05,0.9478,0.8515,0.0,0.7323,0.731,0.8183,0.9791,1.1294,1.2496,1.3427,1.492,1.7276,1.8078,1.9006,2.0223,2.1818,2.2999,2.3704,2.6076,2.7914,2.9175,3.0402,3.1322,3.1902,3.1902,3.1868,3.1834,3.1698,3.1494,3.1272,3.1101,3.122,3.146,3.1289,3.1323,3.146,3.146,3.146,3.1425,3.0929,3.0723,3.0792,3.1289,3.1152,3.0723,3.0723,3.0723,3.0723,3.0723,3.0723,3.0723,3.0723,3.0723,3.0723,3.0723,3.0723,3.0723,3.0723,3.0723,3.0723,3.0723,3.0723,3.0723,3.0723,3.0723,3.0723,3.0723,3.0723,3.0723,3.0723,3.0723,3.0723,3.0723,2.8811,2.747,2.747,2.747,2.8324,3.05,2.5092,2.1562,2.1562,2.1562,2.1562,2.1562,2.1562,2.1562,2.1562,2.1562,2.1562,2.1562,2.1562,2.1562,2.1562,2.1562,2.1562,2.2347,2.0636,1.8917,1.793,1.7372,1.6732,1.534,1.4016,1.292,1.2349,1.1785,1.1241,1.0716,1.0439,1.0075,0.9385,0.8936,0.8471,0.0,0.7783,0.8203,0.9334,1.1385,1.3363,1.5033,1.5805,1.7194,1.9628,2.0279,2.1063,2.2071,2.3709,2.4576,2.4453,2.6862,2.8386,2.8811,3.0056,3.0967,3.1562,3.1562,3.1494,3.1426,3.1323,3.1169,3.0912,3.0775,3.0929,3.1186,3.0844,3.0723,3.0723,3.0723,3.0723,3.0723,3.0723,3.0723,3.0723,3.0723,3.0723,3.0723,3.0723,3.0723,3.0723,3.0723,3.0723,3.0723,3.0723,3.0723,3.0723,3.0723,3.0723,3.0723,3.0723,3.0723,3.0723,3.0723,3.0723,3.0723,3.0723,3.0723,3.0723,3.0723,3.0723,3.0723,3.0723,3.0723,3.0723,3.0723,3.0723,3.0723,3.0723,3.0723,3.0723,3.0723,2.7,2.3772,2.1707,2.1562,2.1562,2.1562,2.1562,2.1562,2.1562,2.1562,2.1562,2.1562,2.1562,2.1562,2.1562,2.1562,2.1562,1.7775,1.7329,1.6645,1.4948,1.4066,1.346,1.29,1.2391,1.1848,1.1176,1.094,1.07,1.0204,0.9808,0.9388,0.8893,0.8677,0.0,0.0,0.8755,0.9935,1.1312,1.346,1.5585,1.7428,1.8544,2.0152,2.2633,2.2681,2.3667,2.6121,2.5642,2.5592,2.6217,2.6995,2.7777,2.8575,2.9225,3.0108,3.1255,3.1255,3.1391,3.163,3.1391,3.1255,3.1255,3.0878,3.0723,3.0723,3.0723,3.0723,3.0723,3.0723,3.0723,3.0723,3.0723,3.0723,3.0723,3.0723,3.0723,3.0723,3.0723,3.0723,3.0723,3.0723,3.0723,3.0723,3.0723,3.0723,3.0723,3.0723,3.0723,3.0723,3.0723,3.0723,3.0723,3.0723,3.0723,3.0723,3.0723,3.0723,3.0723,3.0723,3.0723,3.0723,3.0723,3.0723,3.0723,3.0723,3.0723,3.0723,3.0723,3.0723,3.0723,3.0723,3.0723,2.8185,2.2238,2.1707,2.1562,2.1562,2.1562,2.1562,2.1562,2.1562,2.1562,2.1562,2.1562,2.1562,2.1562,2.1562,2.1562,1.6103,1.5927,1.5666,1.3774,1.3461,1.3248,1.1875,1.1453,1.1163,1.0516,1.0193,0.0,0.0,0.0,1.0018,1.0256,0.0,0.9244,0.9558,1.0587,1.2417,1.5439,1.6187,1.7347,1.9546,2.0428,2.1915,2.4391,2.4109,2.4536,2.6171,2.608,2.6063,2.6246,2.6995,2.7777,2.8575,2.9225,2.9991,3.0878,3.0878,3.0912,3.0981,3.0912,3.0878,3.0878,3.0741,3.0723,3.0723,3.0723,3.0723,3.0723,3.0723,3.0723,3.0723,3.0723,3.0723,3.0723,3.0723,3.0723,3.0723,3.0723,3.0723,3.0723,3.0723,3.0723,3.0723,3.0723,3.0723,3.0723,3.0723,3.0723,3.0723,3.0723,3.0723,3.0723,3.0723,3.0723,3.0723,3.0723,3.0723,3.0723,3.0723,3.0723,3.0723,3.0723,3.0723,3.0723,3.0723,3.0723,3.0723,3.0723,3.0723,3.0723,3.0723,3.0723,3.0002,2.8324,2.4058,2.1562,2.1562,2.1562,2.1562,2.1562,2.1562,2.1562,2.1562,2.1562,2.1562,2.1562,2.1562,2.1562,1.4434,1.4299,1.4131,1.2499,1.2324,1.2228,1.1015,1.0719,1.06,1.0395,0.0,0.0,0.0,0.0,0.0,0.0,1.0469,1.0474,1.1397,1.2432,1.4599,1.8561,1.9349,2.004,2.1295,2.2456,2.3829,2.5544,2.5342,2.5435,2.6204,2.6562,2.6729,2.6729,2.7478,2.8243,2.8976,2.9342,2.9924,3.0723,3.0723,3.0723,3.0723,3.0723,3.0723,3.0723,3.0723,3.0723,3.0723,3.0723,3.0723,3.0723,3.0723,3.0723,3.0723,3.0723,3.0723,3.0723,3.0723,3.0723,3.0723,3.0723,3.0723,3.0723,3.0723,3.0723,3.0723,3.0723,3.0723,3.0723,3.0723,3.0723,3.0723,3.0723,3.0723,3.0723,3.0723,3.0723,3.0723,3.0723,3.0723,3.0723,3.0723,3.0723,3.0723,3.0723,3.0723,3.0723,3.0723,3.0723,3.0723,3.0723,3.0723,3.0723,3.0723,3.0723,3.0723,3.0723,2.4972,2.1562,2.1562,2.1562,2.1562,2.1562,2.1562,2.1562,2.1562,2.1562,2.1562,2.1562,2.1562,2.1562,1.2835,1.264,1.2367,1.1254,1.0995,1.0878,1.0482,0.0,1.0332,1.0719,0.0,1.0708,1.1173,0.0,0.0,1.1183,1.1493,1.2252,1.3705,1.4789,1.6985,2.1136,2.2493,2.303,2.2982,2.4351,2.5542,2.6167,2.6233,2.6233,2.6233,2.6978,2.7394,2.7394,2.8175,2.8876,2.9525,2.9542,2.9924,3.0723,3.0723,3.0723,3.0723,3.0723,3.0723,3.0723,3.0723,3.0723,3.0723,3.0723,3.0723,3.0723,3.0723,3.0723,3.0723,3.0723,3.0723,3.0723,3.0723,3.0723,3.0723,3.0723,3.0723,3.0723,3.0723,3.0723,3.0723,3.0723,3.0723,3.0723,3.0723,3.0723,3.0723,3.0723,3.0723,3.0723,3.0723,3.0723,3.0723,3.0723,3.0723,3.0723,3.0723,3.0723,3.0723,3.0723,3.0723,3.0723,3.0723,3.0723,3.0723,3.0723,3.0723,3.0723,3.0723,3.0071,2.9675,2.9675,2.4594,2.1562,2.1562,2.1562,2.1562,2.1562,2.1562,2.1562,2.1562,2.1562,2.1562,2.1562,2.1562,2.1562,1.163,1.141,1.1254,1.0612,1.0458,1.0534,0.0,0.0,0.0,1.1401,1.1845,1.221,1.2328,1.2754,1.3048,1.2932,1.3851,1.538,1.7754,1.9608,2.1643,2.4184,2.413,2.4317,2.5426,2.535,2.5542,2.6167,2.6233,2.6233,2.6233,2.6978,2.7394,2.7394,2.8175,2.8876,2.9525,2.9542,2.9924,3.0723,3.0723,3.0723,3.0723,3.0723,3.0723,3.0723,3.0723,3.0723,3.0723,3.0723,3.0723,3.0723,3.0723,3.0723,3.0723,3.0723,3.0723,3.0723,3.0723,3.0723,3.0723,3.0723,3.0723,3.0723,3.0723,3.0723,3.0723,3.0723,3.0723,3.0723,3.0723,3.0723,3.0723,3.0723,3.0723,3.0723,3.0723,3.0723,3.0723,3.0723,3.0723,3.0723,3.0723,3.0723,3.0723,3.0723,3.0723,3.0723,3.0723,3.0723,3.0723,3.0723,3.0723,3.0723,3.0723,2.619,2.3342,2.3342,2.2238,2.1562,2.1562,2.1562,2.1562,2.1562,2.1562,2.1562,2.1562,2.1562,2.1562,2.1562,2.1562,2.1562,1.0797,1.0687,1.0625,1.0367,1.04,0.0,0.0,1.1192,1.1599,1.2062,1.2577,1.3098,1.3621,1.3968,1.4362,1.4879,1.5514,1.7089,2.0349,2.2561,2.4451,2.6145,2.6342,2.6642,2.7345,2.7125,2.7059,2.7378,2.7394,2.7394,2.7394,2.8093,2.8493,2.8493,2.9225,2.9791,3.0141,3.0141,3.034,3.0723,3.0723,3.0723,3.0723,3.0723,3.0723,3.0723,3.0723,3.0723,3.0723,3.0723,3.0723,3.0723,3.0723,3.0723,3.0723,3.0723,3.0723,3.0723,3.0723,3.0723,3.0723,3.0723,3.0723,3.0723,3.0723,3.0723,3.0723,3.0723,3.0723,3.0723,3.0723,3.0723,3.0723,3.0723,3.0723,3.0723,3.0723,3.0723,3.0723,3.0723,3.0723,3.0723,3.0723,3.0723,3.0723,3.0723,3.0723,3.0723,3.0723,3.0723,3.0723,3.0723,2.796,2.6119,2.6119,2.3342,2.1562,2.1562,2.1562,2.1562,2.1562,2.1562,2.1562,2.1562,2.1562,2.1562,2.1562,2.1562,2.1562,2.1562,2.1562,2.1562,1.0304,1.0304,1.0304,1.0304,1.045,0.0,1.1102,1.1668,1.2323,1.3007,1.3488,1.4053,1.4943,1.5419,1.5949,1.6768,1.7235,1.8819,2.2595,2.4618,2.6182,2.7504,2.8177,2.8575,2.8575,2.8575,2.8575,2.8575,2.8575,2.8575,2.8575,2.9192,2.9542,2.9542,3.0324,3.0723,3.0723,3.0723,3.0723,3.0723,3.0723,3.0723,3.0723,3.0723,3.0723,3.0723,3.0723,3.0723,3.0723,3.0723,3.0723,3.0723,3.0723,3.0723,3.0723,3.0723,3.0723,3.0723,3.0723,3.0723,3.0723,3.0723,3.0723,3.0723,3.0723,3.0723,3.0723,3.0723,3.0723,3.0723,3.0723,3.0723,3.0723,3.0723,3.0723,3.0723,3.0723,3.0723,3.0723,3.0723,3.0723,3.0723,3.0723,3.0723,3.0723,3.0723,3.0723,3.0723,3.0723,2.964,2.8931,2.8931,2.4509,2.1562,2.1562,2.1562,2.1562,2.1562,2.1562,2.1562,2.1562,2.1562,2.1562,2.1562,2.1562,2.1562,2.1562,2.1562,2.1562,2.1562,2.1562,2.1562,1.0304,1.0304,1.0304,1.0304,1.0326,0.0,1.2552,1.3013,1.3434,1.4775,1.5463,1.5911,1.6279,1.7732,1.8778,1.831,1.9798,2.214,2.5369,2.6225,2.6972,2.8283,2.8525,2.8575,2.8575,2.8575,2.8575,2.8575,2.8575,2.8575,2.8575,2.9192,2.9542,2.9542,3.0324,3.0723,3.0723,3.0723,3.0723,3.0723,3.0723,3.0723,3.0723,3.0723,3.0723,3.0723,3.0723,3.0723,3.0723,3.0723,3.0723,3.0723,3.0723,3.0723,3.0723,3.0723,3.0723,3.0723,3.0723,3.0723,3.0723,3.0723,3.0723,3.0723,3.0723,3.0723,3.0723,3.0723,3.0723,3.0723,3.0723,3.0723,3.0723,3.0723,3.0723,3.0723,3.0723,3.0723,3.0723,3.0723,3.0723,3.0723,3.0723,3.0723,3.0723,3.0723,3.0723,3.0723,3.0723,2.5943,2.2599,2.2599,2.1985,2.1562,2.1562,2.1562,2.1562,2.1562,2.1562,2.1562,2.1562,2.1562,2.1562,2.1562,2.1562,2.1562,2.1562,2.1562,2.1562,2.1562,2.1562,2.1562,1.0304,1.0304,1.0304,1.0304,0.0,0.0,1.2574,1.3639,1.4637,1.5245,1.6006,1.6717,1.7114,1.8118,1.9276,2.0511,2.3265,2.5775,2.7373,2.8033,2.8538,2.9077,2.9541,2.9808,2.9808,2.9808,2.9808,2.9808,2.9808,2.9808,2.9808,3.0074,3.024,3.024,3.054,3.0723,3.0723,3.0723,3.0723,3.0723,3.0723,3.0723,3.0723,3.0723,3.0723,3.0723,3.0723,3.0723,3.0723,3.0723,3.0723,3.0723,3.0723,3.0723,3.0723,3.0723,3.0723,3.0723,3.0723,3.0723,3.0723,3.0723,3.0723,3.0723,3.0723,3.0723,3.0723,3.0723,3.0723,3.0723,3.0723,3.0723,3.0723,3.0723,3.0723,3.0723,3.0723,3.0723,3.0723,3.0723,3.0723,3.0723,3.0723,3.0723,3.0723,3.0723,3.0723,3.0723,3.0723,2.8464,2.5553,2.1949,2.1562,2.1562,2.1562,2.1562,2.1562,2.1562,2.1562,2.1562,2.1562,2.1562,2.1562,2.1562,2.1562,2.1562,2.1562,2.1562,2.1562,2.1562,2.1562,2.1562,1.0163,0.0,0.0,0.0,0.0,0.0,1.3127,1.4335,1.5464,1.5864,1.6564,1.7293,1.7808,1.861,2.0133,2.2966,2.634,2.8717,2.9112,2.9575,2.9891,2.9891,3.034,3.0723,3.0723,3.0723,3.0723,3.0723,3.0723,3.0723,3.0723,3.0723,3.0723,3.0723,3.0723,3.0723,3.0723,3.0723,3.0723,3.0723,3.0723,3.0723,3.0723,3.0723,3.0723,3.0723,3.0723,3.0723,3.0723,3.0723,3.0723,3.0723,3.0723,3.0723,3.0723,3.0723,3.0723,3.0723,3.0723,3.0723,3.0723,3.0723,3.0723,3.0723,3.0723,3.0723,3.0723,3.0723,3.0723,3.0723,3.0723,3.0723,3.0723,3.0723,3.0723,3.0723,3.0723,3.0723,3.0723,3.0723,3.0723,3.0723,3.0723,3.0723,3.0723,3.0723,3.0723,3.0105,2.8394,2.8185,2.6507,2.2021,2.309,2.3414,2.1707,2.1562,2.1562,2.1562,2.1562,2.1562,2.1562,2.1562,2.1562,2.1562,2.1562,2.1562,2.1562,2.1562,2.1562,2.1562,2.1562,2.1345,0.0,0.0,0.0,1.0304,1.1385,1.2939,1.4836,1.5312,1.5758,1.7135,1.7557,1.7831,1.8338,1.9902,2.2234,2.5585,2.8646,3.064,3.0656,3.0673,3.0673,3.0673,3.0706,3.0723,3.0723,3.0723,3.0723,3.0723,3.0723,3.0723,3.0723,3.0723,3.0723,3.0723,3.0723,3.0723,3.0723,3.0723,3.0723,3.0723,3.0723,3.0723,3.0723,3.0723,3.0723,3.0723,3.0723,3.0723,3.0723,3.0723,3.0723,3.0723,3.0723,3.0723,3.0723,3.0723,3.0723,3.0723,3.0723,3.0723,3.0723,3.0723,3.0723,3.0723,3.0723,3.0723,3.0723,3.0723,3.0723,3.0723,3.0723,3.0723,3.0723,3.0723,3.0723,3.0723,3.0723,3.0723,3.0723,3.0723,3.0723,3.0723,3.0723,3.0723,3.0723,3.0723,3.0723,2.8568,2.2599,2.1852,2.178,2.1599,2.6894,2.8045,2.2094,2.1562,2.1562,2.1562,2.1562,2.1562,2.1562,2.1562,2.1562,2.1562,2.1562,2.1562,2.1562,2.1562,2.1562,2.1562,2.1562,2.0763,0.9513,0.956,0.9991,1.138,1.3067,1.4557,1.5207,1.6419,1.7556,1.8042,1.8451,1.8778,1.8965,2.1124,2.3597,2.5857,2.8744,3.0723,3.0723,3.0723,3.0723,3.0723,3.0723,3.0723,3.0723,3.0723,3.0723,3.0723,3.0723,3.0723,3.0723,3.0723,3.0723,3.0723,3.0723,3.0723,3.0723,3.0723,3.0723,3.0723,3.0723,3.0723,3.0723,3.0723,3.0723,3.0723,3.0723,3.0723,3.0723,3.0723,3.0723,3.0723,3.0723,3.0723,3.0723,3.0723,3.0723,3.0723,3.0723,3.0723,3.0723,3.0723,3.0723,3.0723,3.0723,3.0723,3.0723,3.0723,3.0723,3.0723,3.0723,3.0723,3.0723,3.0723,3.0723,3.0723,3.0723,3.0723,3.0723,3.0723,3.0723,3.0087,2.8091,2.7741,2.8405,3.0397,3.0723,2.9967,2.7925,2.4081,2.1562,2.1562,2.3414,2.3808,2.1744,2.1562,2.1562,2.1562,2.1562,2.1562,2.1562,2.1562,2.1562,2.1562,2.1562,2.1562,2.1562,2.1562,2.1054,2.0008,2.0008,1.9752,0.9385,0.9881,1.0924,1.2964,1.4429,1.5557,1.6291,1.7521,1.8467,1.8467,1.8863,1.9258,1.9258,2.1265,2.3674,2.5911,2.8749,3.0723,3.0723,3.0723,3.0723,3.0723,3.0723,3.0723,3.0723,3.0723,3.0723,3.0723,3.0723,3.0723,3.0723,3.0723,3.0723,3.0723,3.0723,3.0723,3.0723,3.0723,3.0723,3.0723,3.0723,3.0723,3.0723,3.0723,3.0723,3.0723,3.0723,3.0723,3.0723,3.0723,3.0723,3.0723,3.0723,3.0723,3.0723,3.0723,3.0723,3.0723,3.0723,3.0723,3.0723,3.0723,3.0723,3.0723,3.0723,3.0723,3.0723,3.0723,3.0723,3.0723,3.0723,3.0723,3.0723,3.0723,3.0723,3.0723,3.0723,3.0723,3.0723,3.0723,3.0723,3.0121,2.8161,2.7846,2.851,3.0431,3.0723,3.0723,3.0723,2.726,2.4843,2.4843,2.2875,2.1562,2.1562,2.1562,2.1562,2.1562,2.1562,2.1562,2.1562,2.1562,2.1562,2.1562,2.1562,2.1308,2.0727,2.0727,2.0216,1.925,1.925,1.925,0.9468,1.0942,1.2903,1.4871,1.5441,1.6035,1.8023,1.8467,1.8467,1.8467,1.8887,1.9305,1.9328,2.0639,2.2724,2.566,2.8723,3.0723,3.0723,3.0723,3.0723,3.0723,3.0723,3.0723,3.0723,3.0723,3.0723,3.0723,3.0723,3.0723,3.0723,3.0723,3.0723,3.0723,3.0723,3.0723,3.0723,3.0723,3.0723,3.0723,3.0723,3.0723,3.0723,3.0723,3.0723,3.0723,3.0723,3.0723,3.0723,3.0723,3.0723,3.0723,3.0723,3.0723,3.0723,3.0723,3.0723,3.0723,3.0723,3.0723,3.0723,3.0723,3.0723,3.0723,3.0723,3.0723,3.0723,3.0723,3.0723,3.0723,3.0723,3.0723,3.0723,3.0723,3.0723,3.0723,3.0723,3.0723,3.0723,3.0723,3.0723,3.0723,3.0723,3.0723,3.0723,3.0723,3.0723,3.0723,3.0723,3.0431,3.0208,3.0139,2.4901,2.1454,2.1454,2.1454,2.1454,2.1454,2.1526,2.1526,2.1454,2.1526,2.1562,2.1562,2.149,2.0727,1.925,1.925,1.925,1.925,1.925,1.925,1.1237,1.2039,1.2903,1.4871,1.6513,1.7813,1.835,1.8467,1.8467,1.8467,1.9199,1.9936,2.0344,2.233,2.4163,2.4963,2.8247,3.0723,3.0723,3.0723,3.0723,3.0723,3.0723,3.0723,3.0723,3.0723,3.0723,3.0723,3.0723,3.0723,3.0723,3.0723,3.0723,3.0723,3.0723,3.0723,3.0723,3.0723,3.0723,3.0723,3.0723,3.0723,3.0723,3.0723,3.0723,3.0723,3.0723,3.0723,3.0723,3.0723,3.0723,3.0723,3.0723,3.0723,3.0723,3.0723,3.0723,3.0723,3.0723,3.0723,3.0723,3.0723,3.0723,3.0723,3.0723,3.0723,3.0723,3.0723,3.0723,3.0723,3.0723,3.0723,3.0723,3.0723,3.0723,3.0723,3.0723,3.0723,3.0723,3.0723,3.0723,3.0723,3.0723,3.0723,3.0723,3.0723,3.0723,3.0723,3.0723,2.6718,2.3437,2.2286,2.0752,1.9825,1.9825,1.9825,1.9825,1.9825,2.0945,2.1054,1.9899,2.0945,2.1562,2.1562,2.0446,1.9642,1.925,1.925,1.925,1.925,1.925,1.925,1.0765,1.2375,1.4207,1.6225,1.7614,1.8467,1.8467,1.8467,1.8467,1.8467,1.9305,2.0133,2.0415,2.279,2.4689,2.4689,2.8078,3.0723,3.0723,3.0723,3.0723,3.0723,3.0723,3.0723,3.0723,3.0723,3.0723,3.0723,3.0723,3.0723,3.0723,3.0723,3.0723,3.0723,3.0723,3.0723,3.0723,3.0723,3.0723,3.0723,3.0723,3.0723,3.0723,3.0723,3.0723,3.0723,3.0723,3.0723,3.0723,3.0723,3.0723,3.0723,3.0723,3.0723,3.0723,3.0723,3.0723,3.0723,3.0723,3.0723,3.0723,3.0723,3.0723,3.0723,3.0723,3.0723,3.0723,3.0723,3.0723,3.0723,3.0723,3.0723,3.0723,3.0723,3.0723,3.0723,3.0723,3.0723,3.0723,3.0723,2.9638,2.8754,2.8754,2.8754,2.9206,3.05,3.0723,2.9744,2.7035,2.3078,2.0216,1.9349,1.925,1.925,1.925,1.925,1.925,1.925,2.0045,2.0154,1.9276,2.0081,2.0556,2.0556,1.9679,1.925,1.925,1.925,1.925,1.925,1.925,1.925,0.9504,1.2193,1.5537,1.7883,1.8467,1.8467,1.8467,1.8467,1.8467,1.8467,1.9305,2.0029,2.0133,2.2624,2.4724,2.4893,2.8162,3.0723,3.0723,3.0723,3.0723,3.0723,3.0723,3.0723,3.0723,3.0723,3.0723,3.0723,3.0723,3.0723,3.0723,3.0723,3.0723,3.0723,3.0723,3.0723,3.0723,3.0723,3.0723,3.0723,3.0723,3.0723,3.0723,3.0723,3.0723,3.0723,3.0723,3.0723,3.0723,3.0723,3.0723,3.0723,3.0723,3.0723,3.0723,3.0723,3.0723,3.0723,3.0723,3.0723,3.0723,3.0723,3.0723,3.0723,3.0723,3.0723,3.0723,3.0723,3.0723,3.0723,3.0723,3.0723,3.0723,3.0723,3.0723,3.0723,3.0723,3.0723,3.0723,3.0723,2.8615,2.6826,2.6826,2.6509,2.7108,2.9741,3.0121,2.7975,2.2021,2.0081,1.925,1.925,1.925,1.925,1.925,1.925,1.925,1.925,1.925,1.925,1.925,1.925,1.925,1.925,1.925,1.925,1.925,1.925,1.925,1.925,1.925,1.925,1.0382,1.1748,1.3832,1.7551,1.8467,1.8467,1.8467,1.8467,1.8467,1.8467,1.9305,2.0169,2.059,2.2844,2.4963,2.583,2.8622,3.0723,3.0723,3.0723,3.0723,3.0723,3.0723,3.0723,3.0723,3.0723,3.0723,3.0723,3.0723,3.0723,3.0723,3.0723,3.0723,3.0723,3.0723,3.0723,3.0723,3.0723,3.0723,3.0723,3.0723,3.0723,3.0723,3.0723,3.0723,3.0723,3.0723,3.0723,3.0723,3.0723,3.0723,3.0723,3.0723,3.0723,3.0723,3.0723,3.0723,3.0723,3.0723,3.0723,3.0723,3.0723,3.0723,3.0723,3.0723,3.0723,3.0723,3.0723,3.0723,3.0723,3.0723,3.0723,3.0723,3.0723,3.0723,3.0723,3.0723,3.0723,3.0723,3.0723,3.0294,2.9949,2.9949,2.7881,2.6403,2.6932,2.7003,2.5226,2.0253,1.9423,1.925,1.925,1.925,1.925,1.925,1.925,1.925,1.925,1.925,1.925,1.925,1.925,1.925,1.925,1.925,1.925,1.925,1.925,1.925,1.925,1.925,1.925,1.0701,1.1657,1.2901,1.4853,1.6908,1.8467,1.8467,1.8467,1.8467,1.8467,1.9305,2.0088,2.0356,2.2535,2.4704,2.6013,2.8065,2.9762,3.0603,3.0723,3.0723,3.0723,3.0723,3.0723,3.0723,3.0723,3.0723,3.0723,3.0723,3.0723,3.0723,3.0723,3.0723,3.0723,3.0723,3.0723,3.0723,3.0723,3.0723,3.0723,3.0723,3.0723,3.0723,3.0723,3.0723,3.0723,3.0723,3.0723,3.0723,3.0723,3.0723,3.0723,3.0723,3.0723,3.0723,3.0723,3.0723,3.0723,3.0723,3.0723,3.0723,3.0723,3.0723,3.0723,3.0723,3.0723,3.0723,3.0723,3.0723,3.0723,3.0723,3.0723,3.0723,3.0723,3.0723,3.0723,3.0723,3.0723,3.0723,3.0723,3.0723,3.0723,3.0723,2.8231,2.6226,2.6226,2.6226,2.4562,1.9862,1.925,2.0191,2.2611,2.069,1.925,1.925,1.925,1.925,1.925,1.925,1.925,1.925,1.925,1.925,1.925,1.925,1.925,1.925,1.925,1.925,1.925,1.925,1.925,1.0807,1.1744,1.2642,1.2642,1.5413,1.8186,1.842,1.8467,1.8467,1.8467,1.9211,1.9842,1.9842,2.2004,2.4256,2.5829,2.7366,2.8934,3.05,3.0723,3.0723,3.0723,3.0723,3.0723,3.0723,3.0723,3.0723,3.0723,3.0723,3.0723,3.0723,3.0723,3.0723,3.0723,3.0723,3.0723,3.0723,3.0723,3.0723,3.0723,3.0723,3.0723,3.0723,3.0723,3.0723,3.0723,3.0723,3.0723,3.0723,3.0723,3.0723,3.0723,3.0723,3.0723,3.0723,3.0723,3.0723,3.0723,3.0723,3.0723,3.0723,3.0723,3.0723,3.0723,3.0723,3.0723,3.0723,3.0723,3.0723,3.0723,3.0723,3.0723,3.0723,3.0723,3.0723,3.0723,3.0723,3.0723,3.0723,3.0723,3.0723,3.0723,3.0723,2.8231,2.6226,2.6226,2.6226,2.4562,1.9862,1.925,2.0654,2.4348,2.1454,1.925,1.925,1.925,1.925,1.925,1.925,1.925,1.925,1.925,1.925,1.925,1.925,1.925,1.925,1.925,1.925,1.925,1.925,1.925,1.0878,1.2066,1.3315,1.3315,1.5203,1.7288,1.8245,1.8467,1.8467,1.8467,1.891,1.9328,1.9328,2.1444,2.3728,2.5295,2.7136,2.8934,3.05,3.0723,3.0723,3.0723,3.0723,3.0723,3.0723,3.0723,3.0723,3.0723,3.0723,3.0723,3.0723,3.0723,3.0723,3.0723,3.0723,3.0723,3.0723,3.0723,3.0723,3.0723,3.0723,3.0723,3.0723,3.0723,3.0723,3.0723,3.0723,3.0723,3.0723,3.0723,3.0723,3.0723,3.0723,3.0723,3.0723,3.0723,3.0723,3.0723,3.0723,3.0723,3.0723,3.0723,3.0723,3.0723,3.0723,3.0723,3.0723,3.0723,3.0723,3.0723,3.0723,3.0723,3.0723,3.0723,3.0723,3.0723,3.0723,3.0723,3.0723,3.0723,3.0723,3.0723,3.0723,2.8231,2.6226,2.6226,2.6226,2.4562,1.9862,1.925,1.9386,1.9825,1.9496,1.925,1.925,1.925,1.925,1.925,1.925,1.925,1.925,1.925,1.925,1.925,1.925,1.925,1.925,1.925,1.925,1.925,1.925,1.925,1.0878,1.2062,1.3431,1.4079,1.5123,1.633,1.7703,1.8007,1.81,1.8397,1.8863,1.9258,1.9258,2.0595,2.253,2.5074,2.6381,2.7596,2.9108,3.0089,3.0346,2.9401,3.0139,3.0723,3.0723,3.0723,3.0723,3.0723,3.0723,3.0723,3.0723,3.0723,3.0723,3.0723,3.0723,3.0723,3.0723,3.0723,3.0723,3.0723,3.0723,3.0723,3.0723,3.0723,3.0723,3.0723,3.0723,3.0723,3.0723,3.0723,3.0723,3.0723,3.0723,3.0723,3.0723,3.0723,3.0723,3.0723,3.0723,3.0723,3.0723,3.0723,3.0723,3.0723,3.0723,3.0723,3.0723,3.0723,3.0723,3.0723,3.0723,3.0723,3.0723,3.0723,3.0723,3.0723,3.0723,3.0723,3.0723,3.0723,3.0723,3.0723,3.0723,2.9741,2.8335,2.6509,2.6226,2.5552,2.3703,2.0981,1.925,1.925,1.925,1.925,1.925,1.925,1.925,1.925,1.925,1.925,1.925,1.925,1.925,1.925,1.925,1.925,1.925,1.925,1.925,1.925,1.925,1.925,1.0842,1.1929,1.323,1.4279,1.4958,1.572,1.7141,1.7574,1.7749,1.7953,1.8525,1.9024,1.9024,1.9737,2.1417,2.4696,2.528,2.6011,2.8089,2.9331,2.9624,2.8537,2.9762,3.0723,3.0723,3.0723,3.0723,3.0723,3.0723,3.0723,3.0723,3.0723,3.0723,3.0723,3.0723,3.0723,3.0723,3.0723,3.0723,3.0723,3.0723,3.0723,3.0723,3.0723,3.0723,3.0723,3.0723,3.0723,3.0723,3.0723,3.0723,3.0723,3.0723,3.0723,3.0723,3.0723,3.0723,3.0723,3.0723,3.0723,3.0723,3.0723,3.0723,3.0723,3.0723,3.0723,3.0723,3.0723,3.0723,3.0723,3.0723,3.0723,3.0723,3.0723,3.0723,3.0723,3.0723,3.0723,3.0723,3.0723,3.0723,3.0139,2.8324,2.7995,2.7591,2.6403,2.5075,2.4169,2.4169,2.1272,1.925,1.925,1.925,1.925,1.925,1.925,1.925,1.925,1.925,1.925,1.925,1.925,1.925,1.925,1.925,1.925,1.925,1.925,1.925,1.925,1.925,1.925,1.0736,1.1638,1.2699,1.3748,1.47,1.5627,1.6669,1.7328,1.7539,1.7048,1.7743,1.8467,1.8467,1.8898,2.0433,2.4104,2.3816,2.4368,2.7908,2.8382,2.8382,2.8382,2.9762,3.0723,3.0723,3.0723,3.0723,3.0723,3.0723,3.0723,3.0723,3.0723,3.0723,3.0723,3.0723,3.0723,3.0723,3.0723,3.0723,3.0723,3.0723,3.0723,3.0723,3.0723,3.0723,3.0723,3.0723,3.0723,3.0723,3.0723,3.0723,3.0723,3.0723,3.0723,3.0723,3.0723,3.0723,3.0723,3.0723,3.0723,3.0723,3.0723,3.0723,3.0723,3.0723,3.0723,3.0723,3.0723,3.0723,3.0723,3.0723,3.0723,3.0723,3.0723,3.0723,3.0723,3.0723,3.0723,3.0723,3.0723,3.0723,2.8792,2.2707,2.1671,2.2719,2.5765,2.2286,1.9323,1.9323,1.9287,1.925,1.925,1.925,1.925,1.925,1.925,1.925,1.925,1.925,1.925,1.925,1.925,1.925,1.925,1.925,1.925,1.925,1.925,1.925,1.925,1.925,1.925,1.07,1.1657,1.2699,1.3748,1.4688,1.5441,1.5767,1.598,1.6155,1.6342,1.7194,1.7936,1.7936,1.8661,1.9853,2.1723,2.2643,2.3507,2.4617,2.5989,2.6929,2.6929,2.8224,2.9555,3.0603,3.0723,3.0723,3.0723,3.0723,3.0723,3.0723,3.0723,3.0723,3.0723,3.0723,3.0723,3.0723,3.0723,3.0723,3.0723,3.0723,3.0723,3.0723,3.0723,3.0723,3.0723,3.0723,3.0723,3.0723,3.0723,3.0723,3.0723,3.0723,3.0723,3.0723,3.0723,3.0723,3.0723,3.0723,3.0723,3.0723,3.0723,3.0723,3.0723,3.0723,3.0723,3.0723,3.0723,3.0723,3.0723,3.0723,3.0723,3.0723,3.0723,3.0723,3.0723,3.0723,2.7435,2.4438,2.4438,2.3616,2.2574,2.1744,2.069,2.03,2.1308,2.0191,1.925,1.925,1.925,1.925,1.925,1.925,1.925,1.925,1.925,1.925,1.925,1.925,1.925,1.925,1.925,1.925,1.925,1.925,1.925,1.925,1.925,1.925,1.925,1.925,1.925,1.04,1.122,1.2098,1.3157,1.3844,1.43,1.4487,1.4863,1.5226,1.5542,1.6338,1.6974,1.7089,1.7644,1.875,2.0755,2.1251,2.1764,2.2949,2.4233,2.5387,2.614,2.7511,2.9004,3.0569,3.0723,3.0723,3.0723,3.0723,3.0723,3.0723,3.0723,3.0723,3.0723,3.0723,3.0723,3.0723,3.0723,3.0989,3.1539,3.1539,3.1539,3.1503,3.0834,3.0921,3.1503,3.0834,3.0921,3.1522,3.1274,3.1172,3.1222,3.0856,3.0723,3.0723,3.0723,3.0723,3.0723,3.0723,3.0723,3.0723,3.0723,3.0723,3.0723,3.0723,3.0723,3.0723,3.0723,3.0723,3.0723,3.0723,3.0723,3.0723,3.0723,3.0723,3.0723,3.0723,2.5907,2.1562,2.1562,2.0799,2.0446,2.1417,2.0763,1.9935,1.9313,1.925,1.925,1.925,1.925,1.925,1.925,1.925,1.925,1.925,1.925,1.925,1.925,1.925,1.925,1.925,1.925,1.925,1.925,1.925,1.925,1.925,1.925,1.925,1.925,1.925,1.925,0.9963,1.0464,1.109,1.218,1.2395,1.2513,1.3054,1.3949,1.4621,1.4597,1.5194,1.5759,1.593,1.6008,1.7195,2.0613,1.9688,1.9572,2.2502,2.2945,2.3757,2.5992,2.7421,2.89,3.0569,3.0723,3.0723,3.0723,3.0723,3.0723,3.0723,3.0773,3.079,3.079,3.0856,3.0873,3.0873,3.0873,3.152,3.285,3.2739,3.2666,3.2629,3.0899,3.1026,3.2408,3.084,3.1026,3.2453,3.185,3.1666,3.1692,3.0821,3.0599,3.0723,3.0723,3.0723,3.0723,3.0723,3.0723,3.0723,3.0723,3.0723,3.0723,3.0723,3.0723,3.0723,3.0723,3.0723,3.0723,3.0723,3.0723,3.0723,3.0723,3.0723,3.0723,3.0723,2.626,2.2094,2.1671,2.1562,2.1526,2.1417,2.1417,2.0909,1.9459,1.925,1.925,1.925,1.925,1.925,1.925,1.925,1.925,1.925,1.925,1.925,1.925,1.925,1.925,1.925,1.925,1.925,1.925,1.9313,1.9375,1.9448,1.9448,1.9448,1.9448,1.9448,1.9448,0.9902,1.0205,1.0642,1.2086,1.2003,1.1792,1.2722,1.3103,1.3231,1.3038,1.4126,1.5014,1.4574,1.4904,1.5722,1.7183,1.8325,1.947,2.0595,2.1073,2.2558,2.5837,2.6542,2.7785,3.0466,3.0723,3.0723,3.0723,3.0723,3.0723,3.0723,3.1274,3.1609,3.1609,3.2088,3.2334,3.2334,3.2334,3.2517,3.285,3.1509,3.0899,3.0861,2.9141,2.859,2.8982,2.8552,2.8628,2.8967,2.8806,2.8776,2.8753,2.8563,2.9371,3.0723,3.0723,3.0723,3.0723,3.0723,3.0723,3.0723,3.0723,3.0723,3.0723,3.0723,3.0723,3.0723,3.0723,3.0723,3.0723,3.0723,3.0723,3.0723,3.0723,3.0723,3.0723,3.0723,2.9571,2.7175,2.2491,2.1562,2.1199,2.0008,1.9789,1.9679,1.9287,1.925,1.925,1.925,1.925,1.925,1.925,1.925,1.925,1.925,1.925,1.925,1.925,1.925,1.925,1.925,1.925,1.925,1.925,1.9912,2.0621,2.1329,2.1329,2.1329,2.1329,2.1329,2.1329,0.9636,0.9916,1.0429,1.1764,1.1683,1.1474,1.2281,1.2378,1.2317,1.2421,1.3077,1.3555,1.3323,1.4,1.4634,1.4773,1.6582,1.8377,1.9527,2.0133,2.1537,2.4467,2.5647,2.7155,2.9416,3.0277,3.0723,3.0723,3.0971,3.1154,3.1154,3.1888,3.2324,3.2324,3.2687,3.285,3.285,3.2746,3.2674,3.2674,3.1762,3.0901,3.0105,2.9187,2.8772,2.8733,2.7896,2.8431,2.9935,2.9563,2.916,2.8772,2.8772,2.8449,2.7951,2.7951,2.9948,3.2484,3.1189,3.0723,3.0723,3.0723,3.0723,3.0723,3.0723,3.0723,3.0723,3.0723,3.0723,3.0723,3.0723,3.0723,3.0723,3.0723,3.0723,2.9933,2.712,2.6507,2.5553,2.2202,2.0981,2.0227,1.9397,1.925,1.925,1.925,1.925,1.925,1.925,1.925,1.925,1.925,1.925,1.925,1.925,1.925,1.925,1.925,1.925,1.925,1.925,1.9657,2.0047,2.0475,2.0975,2.1475,2.1976,2.1976,2.1976,2.1976,2.1976,2.1976,0.9433,0.9822,1.0464,1.1428,1.1405,1.1291,1.1814,1.1686,1.1568,1.1978,1.1938,1.1926,1.2189,1.3048,1.3643,1.333,1.4981,1.7013,1.898,1.9632,2.0686,2.2893,2.4751,2.6542,2.8208,2.9382,3.0154,3.0441,3.0772,3.0988,3.1082,3.2052,3.2592,3.2592,3.2967,3.3034,3.2794,3.2566,3.234,3.2061,3.1767,3.0901,2.9519,2.9276,2.914,2.9019,2.7512,2.8504,3.1242,3.0824,3.0391,3.0004,3.0488,2.8883,2.6282,2.6282,2.9315,3.3069,3.0631,3.0476,3.1389,3.1389,3.1389,3.1306,3.0856,3.0723,3.0583,2.9943,2.9788,2.9788,2.9788,2.9542,2.9536,3.05,3.0723,2.9294,2.4094,2.2238,2.1852,2.2815,2.0934,1.925,1.925,1.925,1.925,1.925,1.925,1.925,1.925,1.925,1.925,1.925,1.925,1.925,1.925,1.925,1.925,1.925,1.925,1.925,1.925,2.0099,2.0996,2.1851,2.1944,2.1976,2.1976,2.1976,2.1976,2.1976,2.1976,2.1976,0.9869,1.037,1.0901,1.1523,1.1138,1.0759,1.1279,1.0936,1.0478,1.0341,1.0619,1.0978,1.124,1.1528,1.212,1.3344,1.458,1.628,1.8875,1.9328,2.0278,2.2841,2.3815,2.5354,2.8104,2.7491,2.7603,2.9263,2.836,2.7924,2.8378,3.0376,3.1508,3.1508,3.3575,3.3962,3.2559,3.247,3.1742,3.0313,2.8762,2.7866,2.7581,2.6171,2.547,2.547,2.5181,2.5388,2.5982,2.7285,2.8693,3.0206,3.3102,3.3893,3.3403,3.3403,3.0364,2.6191,2.5773,2.9431,3.4324,3.4324,3.4324,3.3897,3.1455,3.0723,2.9998,2.6583,2.558,2.558,2.558,2.4318,2.4273,2.9502,3.0723,3.0466,2.9536,2.522,2.309,2.8324,2.3853,1.925,1.925,1.925,1.925,1.925,1.925,1.925,1.925,1.925,1.925,1.925,1.925,1.925,1.925,1.925,1.925,1.925,1.925,1.925,1.925,2.0099,2.0879,2.1453,2.1767,2.1976,2.1976,2.1976,2.1976,2.1976,2.1976,2.1976,1.0393,1.0901,1.1421,1.1952,1.1707,1.1325,1.1291,1.0924,1.0492,1.0006,1.0106,1.0284,1.0342,1.0786,1.1463,1.24,1.415,1.5882,1.7364,1.8762,2.0098,2.1288,2.2882,2.4442,2.5836,2.6133,2.6746,2.7925,2.7702,2.7763,2.8323,3.063,3.1933,3.1933,3.3928,3.3735,3.1116,3.0123,2.9734,2.9923,2.9059,2.8694,2.8653,2.788,2.698,2.5994,2.5057,2.5222,2.6117,2.6885,2.8274,3.0085,3.1652,3.3379,3.4988,3.4988,3.2991,3.0284,3.0284,2.9881,2.9396,2.9396,2.9396,2.9186,2.7874,2.745,2.7068,2.5192,2.4696,2.4696,2.4696,2.398,2.3966,2.68,2.745,2.7127,2.601,2.3557,2.2419,2.522,2.2911,2.0227,1.9386,1.925,1.925,1.925,1.925,1.925,1.925,1.925,1.925,1.925,1.925,1.925,1.925,1.925,1.925,1.925,1.9527,1.9789,1.9943,2.0639,2.1254,2.1683,2.1872,2.1976,2.1976,2.1976,2.1976,2.1976,2.1976,2.1976,1.122,0.0,1.2271,1.2546,1.2376,1.1999,0.0,1.0954,1.0421,0.9921,0.9676,0.9544,0.9543,1.02,1.0935,1.1448,1.3477,1.5202,1.574,1.7829,1.9468,1.9959,2.1995,2.3511,2.3883,2.4777,2.5701,2.6586,2.687,2.7241,2.7785,2.997,3.1247,3.1247,3.2912,3.2331,2.9343,2.7907,2.7907,2.9303,2.9303,2.9303,2.9303,2.9303,2.8328,2.657,2.5264,2.5429,2.6693,2.7213,2.792,2.8856,3.0474,3.2704,3.4776,3.3149,3.2539,3.2792,3.4405,3.0445,2.4696,2.4696,2.4696,2.4696,2.4696,2.4696,2.4696,2.4696,2.4696,2.4696,2.4696,2.4696,2.4696,2.4696,2.4696,2.4262,2.2628,2.2326,2.2256,2.1972,2.1937,2.1494,2.0133,1.9723,1.9501,1.9281,1.925,1.925,1.925,1.925,1.925,1.925,1.925,1.925,1.925,1.9448,1.9574,1.9574,2.0061,2.048,2.0785,2.1275,2.1652,2.1976,2.1976,2.1976,2.1976,2.1976,2.1976,2.1976,2.1976,2.1976,0.0,1.3441,1.3724,1.3265,1.2772,1.2278,1.1756,1.0585,0.0,0.9568,0.8977,0.8578,0.8937,0.9454,1.0103,1.0977,1.2395,1.3728,1.4727,1.6174,1.7855,1.9784,2.1047,2.2322,2.3762,2.3127,2.3455,2.5413,2.4714,2.4421,2.4973,2.6626,2.7581,2.7581,2.9343,2.9384,2.7417,2.7254,2.7254,2.7417,2.7417,2.7417,2.7417,2.7417,2.6487,2.4862,2.4737,2.4779,2.5015,2.7213,2.6885,2.5718,3.2141,3.4792,3.4209,2.7771,2.5429,2.6352,3.2792,3.0445,2.4696,2.4696,2.4696,2.4696,2.4696,2.4696,2.4696,2.4696,2.4696,2.4696,2.4696,2.4696,2.4696,2.4696,2.4696,2.4661,2.4508,2.4473,2.4191,2.3202,2.3026,2.2755,2.1901,2.1082,2.0204,1.9375,1.925,1.925,1.925,1.925,1.925,1.925,1.925,1.925,1.925,2.0044,2.0495,2.0495,2.1003,2.1305,2.1336,2.1725,2.1944,2.1976,2.1976,2.1976,2.1976,2.1976,2.1976,2.1976,2.1976,2.1976,1.3464,1.3359,1.3123,1.3594,1.3065,1.2392,1.218,1.1237,1.0237,0.9733,0.9097,0.8615,0.8686,0.9268,1.0009,1.0935,1.256,1.4142,1.545,1.664,1.8042,1.9807,2.0942,2.1816,2.2395,2.2388,2.2809,2.3925,2.3957,2.4156,2.4672,2.6282,2.6734,2.5664,2.6282,2.6323,2.5635,2.5635,2.6159,2.7213,2.7213,2.7826,2.8856,2.7744,2.6857,2.62,2.514,2.4696,0.0,2.5635,2.547,2.4945,2.7581,2.8585,2.8788,3.0485,2.8382,2.5057,2.7649,2.6844,2.4696,2.4696,2.4696,2.4696,2.4696,2.4696,2.4696,2.4696,2.4696,2.4696,2.4696,2.4696,2.4696,2.4696,2.4696,2.4696,2.4696,2.4696,2.4579,2.4191,2.3501,2.2777,2.2075,2.1199,2.0475,2.012,2.0117,2.0012,1.9768,1.9737,1.9621,1.9281,1.9521,1.9814,2.0085,2.0391,2.06,2.06,2.1097,2.1389,2.1389,2.1767,2.1976,2.1976,2.1976,2.1976,2.1976,2.1976,2.1976,2.1976,2.1976,2.1976,1.4325,1.4149,1.3914,1.4185,1.3796,1.3209,1.2584,1.1814,1.1005,1.0155,0.9413,0.8901,0.8761,0.9281,1.0051,1.1093,1.2657,1.4298,1.5913,1.6904,1.8088,1.9807,2.0661,2.1211,2.1527,2.2207,2.2719,2.3108,2.3753,2.4332,2.4672,2.5788,2.587,2.4737,2.4696,2.4696,2.4696,2.4696,2.5553,2.7213,2.7213,2.788,2.9019,2.7226,2.6405,2.6364,2.5181,2.4696,2.4696,2.4696,2.4696,2.4696,2.4696,2.4696,2.5264,3.0002,2.8748,2.4696,2.4696,2.4696,2.4696,2.4696,2.4696,2.4696,2.4696,2.4696,2.4696,2.4696,2.4696,2.4696,2.4696,2.4696,2.4696,2.4696,2.4696,2.4696,2.4696,2.453,2.4376,2.4293,2.3514,2.2666,2.208,2.1343,2.0796,2.0621,2.06,2.0524,2.0221,2.0179,2.0054,1.972,2.0019,2.0367,2.0806,2.0944,2.1038,2.1038,2.137,2.1578,2.1578,2.1851,2.1976,2.1976,2.1976,2.1976,2.1976,2.1976,2.1976,2.1976,2.1976,2.1976,1.5371,1.6132,1.6545,1.5152,1.5076,1.4848,1.2892,1.2253,1.1756,1.0724,0.9881,0.9315,0.9185,0.9477,1.0147,1.1448,1.2557,1.3905,1.5858,1.6577,1.7703,1.9761,2.0006,2.0438,2.1493,2.2511,2.312,2.3132,2.4069,2.4684,2.4696,2.4696,2.4696,2.4696,2.4696,2.4696,2.4696,2.4696,2.5511,2.7185,2.7185,2.7185,2.7144,2.5429,2.4696,2.4696,2.4696,2.4696,2.4696,2.4696,2.4696,2.4696,2.4696,2.4696,2.4696,2.4696,2.4696,2.4696,2.4696,2.4696,2.4696,2.4696,2.4696,2.4696,2.4696,2.4696,2.4696,2.4696,2.4696,2.4696,2.4696,2.4696,2.4696,2.4696,2.4696,2.4696,2.4696,2.4262,2.3774,2.341,2.3034,2.259,2.2043,2.1643,2.1202,2.0723,2.061,2.061,2.06,2.06,2.06,2.06,2.061,2.0827,2.1357,2.1746,2.1976,2.1976,2.1976,2.1976,2.1976,2.1976,2.1976,2.1976,2.1976,2.1976,2.1976,2.1976,2.1976,2.1976,2.1976,2.1976,1.6354,1.6144,1.5899,1.621,1.5592,1.4785,1.4232,1.3174,1.2137,1.1447,1.0707,1.0113,0.9977,1.0422,1.0911,1.1208,1.2986,1.4637,1.5594,1.6714,1.8088,1.9807,2.0006,2.0438,2.1493,2.1843,2.2335,2.3073,2.3753,2.4309,2.4672,2.4696,2.4696,2.4696,2.4696,2.4696,2.4696,2.4696,2.4945,2.5429,2.5429,2.5429,2.5429,2.4933,2.4696,2.4696,2.4696,2.4696,2.4696,2.4696,2.4696,2.4696,2.4696,2.4696,2.4696,2.4696,2.4696,2.4696,2.4696,2.4696,2.4696,2.4696,2.4696,2.4696,2.4696,2.4696,2.4696,2.4696,2.4696,2.4696,2.4696,2.4696,2.4696,2.4696,2.4696,2.4613,2.4323,2.3888,2.3452,2.3327,2.3034,2.2698,2.2547,2.21,2.1726,2.159,2.1569,2.1455,2.1191,2.1149,2.1024,2.0631,2.1183,2.1632,2.1757,2.1903,2.1976,2.1976,2.1976,2.1976,2.1976,2.1976,2.1976,2.1976,2.1976,2.1976,2.1976,2.1976,2.1976,2.1976,2.1976,2.1976,1.7141,1.6914,1.6657,1.6844,1.6104,1.5232,1.4858,1.3736,1.2605,1.2082,1.1351,1.0816,1.0836,1.1087,1.1506,1.2198,1.3858,1.5341,1.615,1.7429,1.8732,1.9877,2.0181,2.0661,2.1517,2.1562,2.1914,2.2769,2.3495,2.4156,2.4672,2.4696,2.4696,2.4696,2.4696,2.4696,2.4696,2.4696,2.4696,2.4696,2.4696,2.4696,2.4696,2.4696,2.4696,2.4696,2.4696,2.4696,2.4696,2.4696,2.4696,2.4696,2.4696,2.4696,2.4696,2.4696,2.4696,2.4696,2.4696,2.4696,2.4696,2.4696,2.4696,2.4696,2.4696,2.4696,2.4696,2.4696,2.4696,2.4696,2.4696,2.4696,2.4696,2.4696,2.4417,2.4055,2.3627,2.3137,2.2783,2.2783,2.2573,2.2448,2.2448,2.2196,2.1976,2.1976,2.1976,2.1882,2.1631,2.1641,2.1485,2.1173,2.1653,2.1976,2.1976,2.1976,2.1976,2.1976,2.1976,2.1976,2.1976,2.1976,2.1976,2.1976,2.1976,2.1976,2.1976,2.1976,2.1976,2.1976,2.1976,2.1976,1.7749,1.8124,1.8233,1.7276,1.6657,1.6019,1.5044,1.409,1.3253,1.264,1.1985,1.157,1.172,1.1632,1.2088,1.3795,1.4943,1.6032,1.7148,1.8446,1.9457,2.0018,2.052,2.1012,2.1516,2.1562,2.1773,2.2228,2.3249,2.4022,2.4532,2.4649,2.4696,2.4696,2.4696,2.4696,2.4696,2.4696,2.4696,2.4696,2.4696,2.4696,2.4696,2.4696,2.4696,2.4696,2.4696,2.4696,2.4696,2.4696,2.4696,2.4696,2.4696,2.4696,2.4696,2.4696,2.4696,2.4696,2.4696,2.4696,2.4696,2.4696,2.4696,2.4696,2.4696,2.4696,2.4696,2.4696,2.4696,2.4696,2.4696,2.4696,2.4696,2.4696,2.3971,2.3201,2.2825,2.2322,2.1976,2.1976,2.1976,2.1976,2.1976,2.1976,2.1976,2.1976,2.1976,2.1976,2.1976,2.1976,2.1976,2.1976,2.1976,2.1976,2.1976,2.1976,2.1976,2.1976,2.1976,2.1955,2.1913,2.1913,2.1913,2.1913,2.1913,2.1934,2.1976,2.1976,2.1976,2.1976,2.1976,2.1976,1.8175,1.8373,1.8408,1.8186,1.7761,1.6989,1.5563,1.5072,1.4546,1.3302,1.3255,1.3182,1.2409,1.2979,1.3468,1.3165,1.4905,1.6571,1.7335,1.8478,1.9585,2.0532,2.0743,2.1012,2.1516,2.1562,2.1609,2.1726,2.271,2.3343,2.3448,2.4262,2.4696,2.4696,2.4696,2.4696,2.4696,2.4696,2.4696,2.4696,2.4696,2.4696,2.4696,2.4696,2.4696,2.4696,2.4696,2.4696,2.4696,2.4696,2.4696,2.4696,2.4696,2.4696,2.4696,2.4696,2.4696,2.4696,2.4696,2.4696,2.4696,2.4696,2.4696,2.4696,2.4696,2.4696,2.4696,2.4696,2.4696,2.4696,2.4696,2.4696,2.4696,2.4696,2.3971,2.3201,2.2825,2.2322,2.1976,2.1976,2.1976,2.1976,2.1976,2.1976,2.1976,2.1976,2.1976,2.1976,2.1976,2.1976,2.1976,2.1976,2.1976,2.1976,2.1976,2.1976,2.1976,2.1976,2.1976,2.1809,2.1516,2.1505,2.1505,2.1505,2.1505,2.1652,2.1976,2.1976,2.1976,2.1976,2.1976,2.1976,1.8315,1.8467,1.8467,1.8467,1.7901,1.7176,1.6599,1.5551,1.4548,1.4067,1.3594,1.3249,1.3275,1.3687,1.4209,1.4876,1.5942,1.7081,1.8191,1.9065,1.9901,2.0707,2.1012,2.127,2.1575,2.1562,2.1562,2.1562,2.2312,2.2769,2.2769,2.3741,2.4438,2.4684,2.4696,2.4696,2.4696,2.4696,2.4696,2.4696,2.4696,2.4696,2.4696,2.4696,2.4696,2.4696,2.4696,2.4696,2.4696,2.4696,2.4696,2.4696,2.4696,2.4696,2.4696,2.4696,2.4696,2.4696,2.4696,2.4696,2.4696,2.4696,2.4696,2.4696,2.4696,2.4696,2.4696,2.4696,2.4696,2.4696,2.4696,2.4696,2.4696,2.4696,2.4168,2.3555,2.3118,2.249,2.1976,2.1976,2.1976,2.1976,2.1976,2.1976,2.1976,2.1976,2.1976,2.1976,2.1976,2.1976,2.1976,2.1976,2.1976,2.1976,2.1976,2.1767,2.1683,2.1683,2.1475,2.1245,2.0994,2.1024,2.1024,2.1024,2.1024,2.1213,2.1683,2.1683,2.1798,2.1976,2.1976,2.1976,1.8175,1.8397,1.8467,1.8467,1.7813,1.7258,1.7504,1.6026,1.4715,1.4951,1.4043,1.3471,1.4341,1.4293,1.4786,1.6786,1.6933,1.7368,1.9061,1.9682,2.0194,2.0871,2.1305,2.1562,2.1562,2.1562,2.1562,2.1562,2.1984,2.2239,2.2371,2.3179,2.3945,2.4543,2.4567,2.4602,2.4696,2.4696,2.4696,2.4696,2.4696,2.4696,2.4696,2.4696,2.4696,2.4696,2.4696,2.4696,2.4696,2.4696,2.4696,2.4696,2.4696,2.4696,2.4696,2.4696,2.4696,2.4696,2.4696,2.4696,2.4696,2.4696,2.4696,2.4696,2.4696,2.4696,2.4696,2.4696,2.4696,2.4696,2.4696,2.4696,2.4654,2.4613,2.4281,2.3835,2.3315,2.2563,2.1976,2.1976,2.1976,2.1976,2.1976,2.1976,2.1976,2.1976,2.1976,2.1976,2.1976,2.1913,2.1851,2.1851,2.1788,2.1746,2.1746,2.1422,2.1233,2.1233,2.0837,2.0558,2.0524,2.0514,2.0514,2.0514,2.0514,2.0743,2.1233,2.1357,2.1557,2.1861,2.1944,2.1976,1.7656,1.8135,1.8467,1.8467,1.8362,1.8035,1.7194,1.7106,1.6971,1.6124,1.6148,1.6186,1.578,1.5595,1.5659,1.6194,1.6271,1.7019,1.9257,1.9646,2.014,2.1316,2.1552,2.1562,2.1562,2.1562,2.1562,2.1562,2.1633,2.1879,2.2347,2.2499,2.3015,2.4004,2.3999,2.4209,2.4684,2.4696,2.4696,2.4696,2.4696,2.4696,2.4696,2.4696,2.4696,2.4696,2.4696,2.4696,2.4696,2.4696,2.4696,2.4696,2.4696,2.4696,2.4696,2.4696,2.4696,2.4696,2.4696,2.4696,2.4696,2.4696,2.4696,2.4696,2.4696,2.4696,2.4696,2.4696,2.4696,2.4696,2.4696,2.4696,2.4613,2.4281,2.3805,2.3315,2.2908,2.2364,2.1976,2.1976,2.1976,2.1976,2.1976,2.1976,2.1976,2.1976,2.1976,2.1976,2.1976,2.1663,2.1442,2.1442,2.1057,2.0777,2.0777,2.0725,2.0683,2.0683,2.0631,2.0461,2.0113,2.0103,2.0103,2.0103,2.0103,2.0284,2.0683,2.116,2.1379,2.1453,2.1788,2.1976,1.7469,1.7855,1.8112,1.8385,1.8467,1.835,1.7883,1.7498,1.713,1.6657,1.6295,1.6101,1.6255,1.6043,1.6075,1.6791,1.6785,1.7281,1.9049,1.9489,2.0025,2.112,2.1454,2.1562,2.1562,2.1562,2.1562,2.1562,2.1562,2.1668,2.1902,2.2207,2.2581,2.3026,2.36,2.4039,2.4221,2.4543,2.4696,2.4696,2.4696,2.4696,2.4696,2.4696,2.4696,2.4696,2.4696,2.4696,2.4696,2.4696,2.4696,2.4696,2.4696,2.4696,2.4696,2.4696,2.4696,2.4696,2.4696,2.4696,2.4696,2.4696,2.4696,2.4696,2.4696,2.4696,2.4696,2.4696,2.4696,2.4613,2.4406,2.4364,2.4239,2.3763,2.3482,2.3201,2.2825,2.2573,2.2322,2.2018,2.1976,2.1976,2.1976,2.1976,2.1976,2.1976,2.1976,2.1788,2.1267,2.1057,2.0971,2.0971,2.0754,2.06,2.06,2.0409,2.0263,2.0263,2.0012,1.9772,1.9574,1.96,1.96,1.96,1.96,1.9793,2.0263,2.05,2.0731,2.0942,2.1401,2.1621,1.7095,1.7492,1.7784,1.8163,1.8362,1.8467,1.8467,1.786,1.7299,1.7299,1.6692,1.6317,1.691,1.6624,1.655,1.7363,1.7158,1.7369,1.8702,1.915,1.9749,2.0867,2.1236,2.1454,2.1562,2.1562,2.1562,2.1562,2.1562,2.1562,2.1562,2.1949,2.223,2.2371,2.3108,2.3635,2.3893,2.4309,2.4567,2.4696,2.4696,2.4696,2.4696,2.4696,2.4696,2.4696,2.4696,2.4696,2.4696,2.4696,2.4696,2.4696,2.4696,2.4696,2.4696,2.4696,2.4696,2.4696,2.4696,2.4696,2.4696,2.4696,2.4696,2.4696,2.4696,2.4696,2.4696,2.4696,2.4696,2.4613,2.4323,2.4198,2.3949,2.3441,2.3243,2.3076,2.2657,2.2532,2.2448,2.2028,2.1976,2.1976,2.1976,2.1882,2.1799,2.1799,2.1705,2.1382,2.0683,2.0535,2.0461,2.0461,2.0318,2.0235,2.0235,1.9971,1.9831,1.9831,1.9448,1.925,1.925,1.925,1.925,1.925,1.925,1.9427,1.9831,1.9946,2.0186,2.0472,2.0971,2.1233,1.6202,1.6926,1.7691,1.7714,1.8112,1.8467,1.8467,1.842,1.8385,1.8385,1.835,1.8326,1.8342,1.7733,1.7301,1.748,1.6854,1.6875,1.8288,1.8516,1.9139,2.0795,2.1018,2.1163,2.1526,2.1562,2.1562,2.1562,2.1562,2.1562,2.1562,2.1586,2.1843,2.2321,2.2429,2.2921,2.3933,2.3917,2.4215,2.4696,2.4696,2.4696,2.4696,2.4696,2.4696,2.4696,2.4696,2.4696,2.4696,2.4696,2.4696,2.4696,2.4696,2.4696,2.4696,2.4696,2.4696,2.4696,2.4696,2.4696,2.4696,2.4696,2.4696,2.4696,2.4696,2.4696,2.4696,2.4696,2.4696,2.4696,2.4654,2.4364,2.3949,2.3441,2.3034,2.2615,2.2112,2.2018,2.1986,2.1976,2.1976,2.1976,2.1976,2.1642,2.1431,2.1431,2.0984,2.0652,2.06,2.0263,2.004,2.004,1.9632,1.9323,1.9323,1.9292,1.9281,1.9281,1.926,1.925,1.925,1.925,1.925,1.925,1.925,1.926,1.9281,1.9789,2.0019,2.005,2.0461,2.09,1.5984,1.64,1.6762,1.7118,1.7586,1.7972,1.7972,1.821,1.8467,1.8467,1.8467,1.8435,1.8256,1.7797,1.7451,1.7505,1.7114,1.708,1.7856,1.8195,1.8724,1.9763,2.0312,2.0783,2.1176,2.1199,2.1199,2.1199,2.1454,2.1562,2.1562,2.1562,2.1644,2.1843,2.2195,2.252,2.2909,2.3565,2.4027,2.4215,2.4532,2.4696,2.4696,2.4696,2.4696,2.4696,2.4696,2.4696,2.4696,2.4696,2.4696,2.4696,2.4696,2.4696,2.4696,2.4696,2.4696,2.4696,2.4696,2.4696,2.4696,2.4696,2.4696,2.4696,2.4696,2.4696,2.4696,2.4696,2.4696,2.453,2.3741,2.3449,2.321,2.2605,2.2364,2.2196,2.2018,2.1777,2.1599,2.1599,2.1328,2.109,2.109,2.0994,2.0879,2.0879,2.0232,1.9741,1.9741,1.9605,1.9501,1.9501,1.9354,1.925,1.925,1.925,1.925,1.925,1.925,1.925,1.925,1.925,1.925,1.925,1.925,1.925,1.925,1.9417,1.9501,1.9548,1.9991,2.0333,1.5252,1.5645,1.5969,1.6307,1.6931,1.7434,1.7434,1.7843,1.8186,1.8186,1.8338,1.8393,1.812,1.7871,1.7621,1.7413,1.7225,1.7241,1.764,1.7825,1.8272,1.9091,1.9671,2.0177,2.0564,2.0598,2.067,2.0778,2.118,2.1454,2.1562,2.1562,2.1562,2.1562,2.1914,2.2195,2.2345,2.305,2.3472,2.3647,2.4027,2.4274,2.445,2.4614,2.4696,2.4696,2.4696,2.4696,2.4696,2.4696,2.4696,2.4696,2.4696,2.4696,2.4696,2.4696,2.4696,2.4696,2.4696,2.4696,2.4696,2.4696,2.4696,2.4696,2.4696,2.4696,2.4696,2.4696,2.4696,2.4447,2.3335,2.2848,2.252,2.2076,2.1714,2.1517,2.1517,2.1307,2.1128,2.1128,2.0837,2.06,2.06,2.06,2.0587,2.0441,1.9887,1.9427,1.9271,1.925,1.925,1.925,1.925,1.925,1.925,1.925,1.925,1.925,1.925,1.925,1.925,1.925,1.925,1.925,1.925,1.925,1.925,1.925,1.925,1.926,1.9051,1.9085,1.3996,1.4642,1.5312,1.5312,1.6085,1.6861,1.6872,1.727,1.7644,1.7656,1.807,1.8338,1.8097,1.8046,1.7839,1.7205,1.711,1.723,1.7608,1.7466,1.7712,1.8869,1.9137,1.9351,1.9692,1.9784,1.9971,2.0369,2.0732,2.1115,2.1526,2.1562,2.1562,2.1562,2.1562,2.182,2.2347,2.2371,2.2628,2.3108,2.3132,2.3401,2.3933,2.4426,2.4649,2.4649,2.4684,2.4696,2.4696,2.4696,2.4696,2.4696,2.4696,2.4696,2.4696,2.4696,2.4696,2.4684,2.4626,2.4602,2.4602,2.4602,2.4602,2.4602,2.4602,2.4602,2.4602,2.4602,2.4561,2.4336,2.3513,2.2646,2.1963,2.1931,2.1256,2.061,2.061,2.0589,2.0568,2.0568,2.0558,2.0548,2.0548,2.0548,2.0451,2.005,1.9988,1.982,1.9302,1.925,1.925,1.925,1.925,1.925,1.925,1.925,1.925,1.925,1.925,1.925,1.925,1.925,1.925,1.925,1.925,1.925,1.925,1.925,1.9203,1.9129,1.7621,1.7158,1.3901,1.4185,1.4385,1.4385,1.4867,1.543,1.5712,1.619,1.6613,1.6812,1.7266,1.7532,1.7289,1.7305,1.7382,1.7382,1.7236,1.7154,1.7252,1.721,1.7382,1.7977,1.8194,1.817,1.8014,1.8766,1.9335,1.9538,1.9929,2.0438,2.1104,2.1163,2.1272,2.1562,2.1562,2.1633,2.1785,2.2171,2.2453,2.2555,2.2956,2.3214,2.3354,2.3495,2.3553,2.36,2.4367,2.4696,2.4696,2.4696,2.4696,2.4696,2.4696,2.4696,2.4696,2.4696,2.4696,2.4485,2.2971,2.2417,2.2417,2.2417,2.2417,2.2417,2.2417,2.2417,2.2417,2.2417,2.1624,2.1,2.2086,2.2153,2.1806,2.112,2.1028,2.1043,2.1043,2.0584,2.0197,2.0197,1.9866,1.9626,1.9626,1.9626,1.9584,1.9459,1.9448,1.9396,1.926,1.925,1.925,1.925,1.925,1.925,1.925,1.925,1.925,1.925,1.925,1.925,1.925,1.925,1.925,1.925,1.925,1.925,1.925,1.925,1.8652,1.7547,1.7094,1.637,1.2673,1.285,1.3015,1.3015,1.3491,1.4055,1.4394,1.4875,1.5366,1.58,1.6258,1.6551,1.6443,1.6614,1.6787,1.6827,1.6845,1.6922,1.7079,1.6953,1.6997,1.7382,1.735,1.7329,1.7382,1.8042,1.858,1.883,1.9245,1.9787,2.0483,2.0506,2.0668,2.1079,2.1236,2.1308,2.1308,2.1805,2.2043,2.2043,2.2335,2.2628,2.2971,2.2971,2.2769,2.2511,2.3147,2.3394,2.3464,2.4332,2.4696,2.4696,2.4696,2.4696,2.459,2.3722,2.3394,2.3229,2.2021,2.1562,2.1562,2.1562,2.1562,2.1562,2.1562,2.1127,2.0592,2.0592,1.9935,1.9501,2.0537,2.0819,2.0683,2.0141,2.0228,2.0354,2.0354,2.0019,1.9705,1.9705,1.9438,1.925,1.925,1.925,1.925,1.925,1.925,1.925,1.925,1.925,1.925,1.925,1.925,1.925,1.925,1.925,1.925,1.925,1.925,1.925,1.925,1.925,1.925,1.925,1.925,1.925,1.925,1.925,1.8762,1.7879,1.7214,1.525,1.1026,1.1227,1.1563,1.1435,1.188,1.2416,0.0,1.3128,1.3638,1.4256,1.4778,1.5181,1.5337,1.5774,1.6068,1.5943,1.623,1.6587,1.6985,1.6733,1.665,1.6985,1.6776,1.6796,1.7339,1.7542,1.7771,1.8151,1.8581,1.9079,1.9671,1.9658,1.9869,2.0346,2.0684,2.0888,2.0981,2.1308,2.1526,2.1562,2.1562,2.1939,2.2599,2.2599,2.2246,2.1562,2.1562,2.1562,2.1703,2.3593,2.4344,2.4344,2.4344,2.4344,2.4121,2.2242,2.1562,2.1562,2.1562,2.1562,2.1562,2.1562,2.1562,2.1526,2.1345,2.0373,1.925,1.925,1.925,1.925,1.925,1.925,1.925,1.925,1.925,1.925,1.925,1.925,1.925,1.925,1.925,1.925,1.925,1.925,1.925,1.925,1.925,1.925,1.925,1.925,1.925,1.925,1.925,1.925,1.925,1.925,1.925,1.925,1.925,1.9219,1.9177,1.9177,1.9145,1.9093,1.9093,1.902,1.8875,1.8875,1.8682,1.8354,1.6955,1.3821,0.0,0.0,0.0,0.0,0.0,0.0,0.0,1.0001,1.0217,1.0648,1.1717,1.2677,1.3013,1.3991,1.5014,1.5808,1.6008,1.6197,1.6587,1.6587,1.6555,1.6608,1.6859,1.6922,1.6733,1.7008,1.7307,1.7488,1.7572,1.7971,1.8692,1.8714,1.9104,1.9929,2.0022,2.0344,2.0981,2.0968,2.1186,2.1562,2.1562,2.1633,2.181,2.181,2.1691,2.1562,2.1562,2.1562,2.1634,2.1996,2.216,2.216,2.216,2.216,2.215,2.1751,2.1562,2.1562,2.1562,2.1562,2.1562,2.1562,2.1562,2.1345,2.0081,1.9459,1.925,1.925,1.925,1.925,1.925,1.925,1.925,1.925,1.925,1.925,1.925,1.925,1.925,1.925,1.925,1.925,1.925,1.925,1.925,1.925,1.925,1.925,1.925,1.925,1.925,1.925,1.925,1.925,1.925,1.925,1.925,1.925,1.925,1.9083,1.8799,1.8778,1.8564,1.8167,1.8167,1.7648,1.6581,1.6581,1.5351,1.2956,1.2682,1.1984,0.0,0.0,0.0,0.0,0.0,0.0,0.0,0.0,0.0,0.0,0.0,1.0479,1.1397,0.0,1.373,1.4706,1.5471,1.6008,1.6188,1.6409,1.6524,1.6524,1.6702,1.6796,1.6796,1.6985,1.7145,1.719,1.7211,1.7414,1.786,1.7882,1.8196,1.8829,1.9058,1.9465,2.0125,2.0325,2.0817,2.1562,2.1562,2.1562,2.1562,2.1562,2.1562,2.1562,2.1562,2.1562,2.1562,2.1562,2.1562,2.1562,2.1562,2.1562,2.1562,2.1562,2.1562,2.1562,2.1562,2.1562,2.1562,2.1562,2.1054,2.0253,1.9459,1.925,1.925,1.925,1.925,1.925,1.925,1.925,1.925,1.925,1.925,1.925,1.925,1.925,1.925,1.925,1.925,1.925,1.925,1.925,1.8983,1.821,1.8762,1.925,1.925,1.925,1.925,1.925,1.925,1.925,1.925,1.925,1.9156,1.8973,1.8721,1.8491,1.8271,1.8261,1.8146,1.7895,1.7247,1.6607,1.5921,1.5224,1.4112,1.2574,1.0515,0.9539,0.0,0.0,0.0,0.0,0.0,0.0,0.0,0.0,0.0,0.0,0.0,0.0,0.0,0.0,0.0,1.3309,1.4623,1.5618,1.5892,1.6125,1.6284,1.6398,1.6419,1.6576,1.6943,1.6985,1.6985,1.6985,1.6985,1.703,1.7143,1.7164,1.7342,1.7748,1.8082,1.8527,1.9051,1.9606,2.0457,2.1562,2.1562,0.0,2.1562,2.1562,2.1562,2.1562,2.1562,2.1562,2.1562,2.1562,2.1562,2.1562,2.1562,2.1562,2.1562,2.1562,2.1562,2.1417,2.0194,1.9757,1.972,1.938,1.8438,1.7417,1.7417,1.7417,0.0,1.7417,1.7417,1.7417,1.7417,1.7417,1.7417,1.7417,1.7417,1.7417,1.7417,1.7417,1.7417,1.7417,1.7417,1.7795,1.9019,1.8752,1.8068,1.7209,1.8171,1.901,1.9104,1.9114,1.9156,1.9239,1.9166,1.9114,1.9114,1.903,1.8857,1.8537,1.8114,1.7717,1.7387,1.7353,1.7201,1.685,1.5805,1.5102,1.4819,1.3663,1.2914,1.2519,0.9135,0.7586,0.0,0.0,0.0,0.0,0.0,0.0,0.0,0.0,0.0,0.0,0.0,0.0,0.0,0.0,0.0,0.0,1.3272,1.4486,1.5755,1.557,1.5496,1.5966,1.6008,1.6145,1.6534,1.6587,1.6587,1.6587,1.6587,1.6608,1.6628,1.6597,0.0,0.0,0.0,1.7862,1.8393,1.9027,2.0078,2.1562,2.1562,2.1562,2.1562,2.1562,2.1562,2.1562,2.1562,2.1562,2.1562,2.1562,2.1562,2.1562,2.1562,2.1562,2.1562,2.1562,2.1562,2.0788,1.524,0.0,0.0,1.1542,1.0946,1.0801,1.0801,1.0801,1.0801,1.0801,1.0801,1.0801,1.0801,1.0801,1.0801,1.0801,1.0801,1.0801,1.0801,1.0801,1.0801,1.0801,1.0801,1.2587,1.8274,1.6928,1.5731,1.7509,1.7914,1.8209,1.8673,1.8736,1.8847,1.9198,1.8931,0.0,1.8736,1.8303,1.802,1.7978,1.7916,1.7157,1.5529,1.5477,1.4709,1.3074,1.2913,1.2161,1.0776,1.0596,0.9741,0.8283,0.7813,0.7586,0.0,0.0,0.0,0.0,0.0,0.0,0.0,0.0,0.0,0.0,0.0,0.0,0.0,0.0,0.0,0.0,1.1915,1.3042,1.3795,1.417,1.4647,1.5391,1.5505,1.5654,1.6156,1.6198,1.6283,1.6503,1.6524,1.6524,1.6524,1.6524,1.6639,1.6827,1.689,1.7029,1.7254,1.7544,1.8368,1.9761,1.9761,2.0415,2.1562,2.1562,2.1562,2.1562,2.1562,2.1562,2.1562,2.1562,2.1562,2.1445,0.0,0.0,0.0,0.0,2.1562,2.1188,1.8585,1.7085,1.6214,1.5492,1.526,1.526,1.526,1.526,1.526,1.526,1.526,1.526,1.526,1.526,1.4338,1.0612,0.9716,0.9716,0.9716,0.9716,0.9716,0.9716,0.9716,0.0,1.5035,1.6157,1.6495,1.6533,1.7305,1.7968,1.8167,1.8198,1.8261,1.8414,1.8313,1.8198,1.8198,1.801,0.0,0.0,0.0,1.7068,1.6003,1.5225,0.0,0.0,0.0,1.0688,0.9868,0.9056,0.0,0.0,0.6533,0.6522,0.0,0.0,0.0,0.0,0.0,0.0,0.0,0.0,0.0,0.0,0.0,0.0,0.0,0.0,0.0,0.0,1.0385,1.144,1.1371,1.2442,1.339,1.387,1.4523,1.5038,1.5217,1.5526,1.5851,1.6116,1.6137,1.622,1.6346,1.6356,1.6419,1.6513,1.6524,1.6702,1.7058,1.6713,1.6996,1.7936,1.8311,1.9269,2.0731,2.0731,2.0731,2.0731,2.0731,2.0731,2.0731,2.0731,2.0731,2.0579,1.9071,1.9398,2.0731,2.0731,2.0731,2.044,1.8586,1.7212,1.6239,1.6239,1.6239,1.6239,1.6239,1.6239,1.6239,1.6239,1.6239,1.6239,1.6239,1.6239,1.5099,1.0446,0.9332,0.9332,0.9332,1.0929,1.1753,0.9744,0.9332,1.0364,1.3573,1.6004,1.6951,1.5332,1.6171,1.7025,1.7103,1.747,1.7759,1.7884,1.778,1.7706,1.7706,1.7591,1.7382,1.71,1.6745,1.6365,1.6019,1.4335,1.2809,1.156,1.0083,0.9236,0.0,0.0,0.0,0.0,0.0,0.0,0.0,0.0,0.0,0.0,0.0,0.0,0.0,0.0,0.0,0.0,0.0,0.0,0.0,0.0,0.0,0.0,0.0,0.0,0.8792,1.0437,1.151,1.0904,1.2936,1.4169,1.3562,1.4509,1.5184,1.5205,1.5205,1.5423,1.5923,1.5955,1.6135,1.6503,1.6524,1.7121,1.8404,1.7142,1.6555,1.6587,1.7873,1.8502,1.856,1.856,1.856,1.856,1.856,1.856,1.856,1.856,1.856,1.8548,1.849,1.8502,1.856,1.856,1.856,1.7627,1.1031,0.8727,0.8689,0.8689,0.8689,0.8689,0.8689,0.8689,0.8689,0.8689,0.8689,0.8689,0.8689,0.8689,0.8662,0.8434,0.8401,0.8401,0.8401,1.3952,1.6872,0.976,0.8401,1.0106,1.5479,1.6492,1.5955,1.4117,1.4339,0.0,1.5209,1.647,1.7446,1.7842,1.7541,1.7311,1.7311,1.6848,1.6555,1.6545,1.5345,1.4671,1.4652,1.1921,1.0347,1.0166,0.8399,0.7347,0.7066,0.0,0.0,0.0,0.0,0.0,0.0,0.0,0.0,0.0,0.0,0.0,0.0,0.0,0.0,0.0,0.0,0.0,0.0,0.0,0.0,0.0,0.0,0.0,0.0,0.9246,1.0324,0.9831,1.1217,1.1977,1.1408,1.2263,1.2986,1.3317,1.4148,1.472,1.4905,1.5226,1.5551,1.5876,1.5699,1.6532,1.8455,1.803,1.7811,1.7811,1.8248,1.8467,1.8467,1.8467,1.8467,1.8467,1.8467,1.8467,1.8467,1.8467,1.8467,1.8467,1.8467,1.6304,1.319,1.319,1.319,1.2871,1.0577,0.9169,0.8359,0.8359,0.8359,0.8359,0.8359,0.8359,0.8359,0.8359,0.8359,0.8359,0.8359,0.8359,0.8359,0.8359,0.8359,0.8359,0.8359,1.0288,1.1308,0.8842,0.8359,1.0094,1.5589,1.501,1.3818,1.3795,1.3436,1.3215,1.3341,1.3777,1.4119,1.4251,1.4146,1.4075,1.4075,1.392,1.3818,1.3818,1.3405,1.3173,1.3173,1.1253,1.0167,1.0105,0.8137,0.6991,0.6726,0.0,0.0,0.0,0.0,0.0,0.0,0.0,0.0,0.0,0.0,0.0,0.0,0.0,0.0,0.0,0.0,0.0,0.0,0.0,0.0,0.0,0.0,0.0,0.0,0.0,0.0,0.8646,0.9894,0.0,0.9672,1.0348,1.097,1.1317,1.2091,1.2699,1.2912,1.3641,1.3875,1.3497,1.4255,1.5906,1.8455,1.8467,1.8467,1.8467,1.8467,1.8467,1.8467,1.8467,1.8467,1.8467,1.8467,1.8467,1.8467,1.8467,1.8467,1.8268,1.6367,1.354,1.0487,1.0487,1.0487,1.0487,1.0487,0.9551,0.8306,0.7973,0.7862,0.7862,0.7862,0.7862,0.7862,0.7862,0.8105,0.8359,0.8359,0.8359,0.8359,0.8359,0.8359,0.8359,0.8359,0.8359,0.8359,0.8359,0.8089,0.8977,1.2533,1.1938,1.12,1.1784,1.1905,1.1859,1.1644,1.2107,1.244,1.244,1.244,1.244,1.244,1.244,1.244,1.244,1.1953,1.1646,1.1605,1.0167,0.9221,0.8989,0.7581,0.6625,0.0,0.0,0.0,0.0,0.0,0.0,0.0,0.0,0.0,0.0,0.0,0.0,0.0,0.0,0.0,0.0,0.0,0.0,0.0,0.0,0.0,0.0,0.0,0.0,0.0,0.0,0.0,0.7209,0.8853,0.0,0.0,0.0,0.0,0.9172,0.9233,0.9535,1.014,1.1224,1.1255,0.9956,1.2448,1.5258,1.8291,1.8303,1.8303,1.8315,1.842,1.8467,1.8467,1.8467,1.8467,1.8467,1.8467,1.8467,1.8455,1.835,1.8303,1.7777,1.248,1.0395,1.0395,1.0395,1.0395,1.0395,1.0395,0.9505,0.8237,0.7311,0.6996,0.6996,0.6996,0.6996,0.0,0.0,0.7633,0.829,0.829,0.8322,0.8359,0.8359,0.8359,0.8359,0.8359,0.8359,0.8348,0.8301,0.7601,0.6996,0.6996,0.0,0.8359,0.8359,0.9817,1.0698,1.0096,1.1316,1.2225,1.2241,1.2249,1.2249,1.2249,1.2249,1.2249,1.2249,1.1011,1.0182,1.0019,0.8709,0.7694,0.6991,0.6679,0.0,0.0,0.0,0.0,0.0,0.0,0.0,0.0,0.0,0.0,0.0,0.0,0.0,0.0,0.0,0.0,0.0,0.0,0.0,0.0,0.0,0.0,0.0,0.0,0.0,0.0,0.5511,0.6114,0.5531,0.6531,0.686,0.0,0.0,0.0,0.0,0.0,0.0,0.8415,0.8702,1.0061,1.266,1.3438,1.456,1.614,1.614,1.614,1.6163,1.7731,1.8467,1.8467,1.8467,1.8467,1.8467,1.8467,1.8467,1.835,1.6809,1.614,1.5702,1.1013,0.9202,0.9202,0.9202,0.9202,0.9202,0.9202,0.8955,0.846,0.7371,0.6996,0.6996,0.6996,0.0,0.0,0.0,0.0,0.7352,0.7352,0.7836,0.8359,0.8359,0.8359,0.8359,0.8359,0.8359,0.8153,0.749,0.7161,0.6996,0.6996,0.7741,0.0,0.8359,0.8601,0.8757,0.8786,0.8981,0.919,0.9392,0.9416,0.9416,0.9416,0.9416,0.9416,0.9416,0.9694,0.9456,0.8558,0.8544,0.7962,0.6736,0.0,0.0,0.0,0.0,0.0,0.0,0.0,0.0,0.0,0.0,0.0,0.0,0.0,0.0,0.0,0.0,0.0,0.0,0.0,0.0,0.0,0.0,0.0,0.0,0.0,0.0,0.0,0.4865,0.5362,0.514,0.5415,0.5378,0.0,0.0,0.0,0.0,0.0,0.0,0.0,0.0,0.0,1.0141,1.2151,1.3295,1.3496,1.4728,1.5359,1.5371,1.6536,1.7113,1.7148,1.8046,1.8467,1.842,1.7509,1.5989,1.4093,1.2381,1.1455,1.0859,0.0,0.0,0.0,0.0,0.7378,0.7378,0.7378,0.7648,0.7802,0.6751,0.0,0.0,0.0,0.0,0.0,0.0,0.0,0.6502,0.6885,0.7384,0.7751,0.7751,0.7751,0.7751,0.7751,0.7751,0.75,0.6587,0.6085,0.5813,0.5813,0.6236,0.0,0.0,0.0,0.8147,0.8185,0.8158,0.8179,0.8348,0.8359,0.8359,0.8359,0.8359,0.8317,0.8211,0.8669,0.8533,0.759,0.7728,0.7232,0.0,0.0,0.0,0.0,0.0,0.0,0.0,0.0,0.0,0.0,0.0,0.0,0.0,0.0,0.0,0.0,0.0,0.0,0.0,0.0,0.0,0.0,0.0,0.0,0.0,0.0,0.0,0.0,0.0,0.5202,0.5238,0.0,0.0,0.0,0.0,0.0,0.0,0.0,0.0,0.0,0.0,0.0,0.0,0.0,1.1024,1.0368,1.2826,1.4383,1.4976,1.4976,1.5103,1.5391,1.6617,1.718,1.7099,1.5634,0.0,0.9115,0.7478,0.0,0.0,0.0,0.0,0.0,0.0,0.0,0.0,0.0,0.0,0.0,0.0,0.0,0.0,0.0,0.0,0.0,0.0,0.0,0.0,0.0,0.0,0.6843,0.6965,0.6996,0.6932,0.6679,0.6626,0.6383,0.5483,0.4656,0.4132,0.0,0.0,0.0,0.0,0.0,0.0,0.8035,0.819,0.8311,0.8354,0.8359,0.8359,0.8359,0.8327,0.8227,0.7984,0.8038,0.7729,0.697,0.6753,0.0,0.0,0.0,0.0,0.0,0.0,0.0,0.0,0.0,0.0,0.0,0.0,0.0,0.0,0.0,0.0,0.0,0.0,0.0,0.0,0.0,0.0,0.0,0.0,0.0,0.0,0.0,0.0,0.0,0.0,0.0,0.0,0.0,0.0,0.0,0.0,0.0,0.0,0.0,0.0,0.0,0.0,0.0,0.0,0.0,0.0,0.0,0.0,0.0,0.0,1.2939,1.3785,1.5241,1.1948,1.0432,1.0547,1.2226,1.2504,1.1491,0.752,0.0,0.0,0.0,0.0,0.0,0.0,0.0,0.0,0.0,0.0,0.0,0.0,0.0,0.0,0.0,0.0,0.0,0.0,0.0,0.0,0.0,0.0,0.606,0.6811,0.6996,0.6601,0.5079,0.0,0.0,0.0,0.0,0.0,0.0,0.0,0.0,0.0,0.0,0.0,0.819,0.8137,0.811,0.8333,0.8359,0.8359,0.8359,0.8148,0.8016,0.7974,0.838,0.8026,0.0,0.0,0.0,0.0,0.0,0.0,0.0,0.0,0.0,0.0,0.0,0.0,0.0,0.0,0.0,0.0,0.0,0.0,0.0,0.0,0.0,0.0,0.0,0.0,0.0,0.0,0.0,0.0,0.0,0.0,0.0,0.0,0.0,0.0,0.0,0.0,0.0,0.0,0.0,0.0,0.0,0.0,0.0,0.0,0.0,0.0,0.0,0.0,0.0,0.0,0.0,0.0,0.0,0.0,0.0,0.0,0.0,0.0,0.8252,0.8478,0.0,0.0,0.0,0.0,0.0,0.0,0.0,0.0,0.0,0.0,0.0,0.0,0.0,0.0,0.0,0.0,0.0,0.0,0.0,0.0,0.0,0.0,0.0,0.0,0.0,0.0,0.0,0.0,0.0,0.0,0.0,0.0,0.0,0.0,0.0,0.0,0.0,0.0,0.0,0.0,0.8116,0.8259,0.8227,0.8343,0.8359,0.8311,0.8153,0.8037,0.7821,0.7487,0.7572,0.0,0.0,0.0,0.0,0.0,0.0,0.0,0.0,0.0,0.0,0.0,0.0,0.0,0.0,0.0,0.0,0.0,0.0,0.0,0.0,0.0,0.0,0.0,0.0,0.0,0.0,0.0,0.0,0.0,0.0,0.0,0.0,0.0,0.0,0.0,0.0,0.0,0.0,0.0,0.0,0.0,0.0,0.0,0.0,0.0,0.0,0.0,0.0,0.0,0.0,0.0,0.0,0.0,0.0,0.0,0.0,0.0,0.0,0.0,0.5089,0.4643,0.0,0.0,0.0,0.0,0.0,0.0,0.0,0.0,0.0,0.0,0.0,0.0,0.0,0.0,0.0,0.0,0.0,0.0,0.0,0.0,0.0,0.0,0.0,0.0,0.0,0.0,0.0,0.0,0.0,0.0,0.0,0.0,0.0,0.0,0.0,0.0,0.0,0.0,0.0,0.0,0.7389,0.8078,0.8359,0.8359,0.8359,0.8253,0.8,0.7916,0.7621,0.7033,0.6652,0.0,0.0,0.0,0.0,0.0,0.0,0.0,0.0,0.0,0.0,0.0,0.0,0.0,0.0,0.0,0.0,0.0,0.0,0.0,0.0,0.0,0.0,0.0,0.0,0.0,0.0,0.0,0.0,0.0,0.0,0.0,0.0,0.0,0.0,0.0,0.0,0.0,0.0,0.0,0.0,0.0,0.0,0.0,0.0,0.0,0.0,0.0,0.0,0.0,0.0,0.0,0.0,0.0,0.0,0.0,0.0,0.0,0.0,0.0,0.0,0.0,0.0,0.0,0.0,0.0,0.0,0.0,0.0,0.0,0.0,0.0,0.0,0.0,0.0,0.0,0.0,0.0,0.0,0.0,0.0,0.0,0.0,0.0,0.0,0.0,0.0,0.0,0.0,0.0,0.0,0.0,0.0,0.0,0.0,0.0,0.0,0.0,0.0,0.0,0.0,0.0,0.5416,0.7197,0.8359,0.8359,0.8359,0.8269,0.7993,0.7737,0.7448,0.7023,0.0,0.0,0.0,0.0,0.0,0.0,0.0,0.0,0.0,0.0,0.0,0.0,0.0,0.0,0.0,0.0,0.0,0.0,0.0,0.0,0.0,0.0,0.0,0.0,0.0,0.0,0.0,0.0,0.0,0.0,0.0,0.0,0.0,0.0,0.0,0.0,0.0,0.0,0.0,0.0,0.0,0.0,0.0,0.0,0.0,0.0,0.0,0.0,0.0,0.0,0.0,0.0,0.0,0.0,0.0,0.0,0.0,0.0,0.0,0.0,0.0,0.0,0.0,0.0,0.0,0.0,0.0,0.0,0.0,0.0,0.0,0.0,0.0,0.0,0.0,0.0,0.0,0.0,0.0,0.0,0.0,0.0,0.0,0.0,0.0,0.0,0.0,0.0,0.0,0.0,0.0,0.0,0.0,0.0,0.0,0.0,0.0,0.0,0.0,0.0,0.0,0.0,0.4559,0.5728,0.6954,0.8231,0.8359,0.8195,0.7783,0.7434,0.7038,0.6568,0.0,0.0,0.0,0.0,0.0,0.0,0.0,0.0,0.0,0.0,0.0,0.0,0.0,0.0,0.0,0.0,0.0,0.0,0.0,0.0,0.0,0.0,0.0,0.0,0.0,0.0,0.0,0.0,0.0,0.0,0.0,0.0,0.0,0.0,0.0,0.0,0.0,0.0,0.0,0.0,0.0,0.0,0.0,0.0,0.0,0.0,0.0,0.0,0.0,0.0,0.0,0.0,0.0,0.0,0.0,0.0,0.0,0.0,0.0,0.0,0.0,0.0,0.0,0.0,0.0,0.0,0.0,0.0,0.0,0.0,0.0,0.0,0.0,0.0,0.0,0.0,0.0,0.0,0.0,0.0,0.0,0.0,0.0,0.0,0.0,0.0,0.0,0.0,0.0,0.0,0.0,0.0,0.0,0.0,0.0,0.0,0.0,0.0,0.0,0.0,0.0,0.0,0.418,0.4848,0.5815,0.7297,0.8004,0.8111,0.7469,0.7154,0.6731,0.6092,0.0,0.0,0.0,0.0,0.0,0.0,0.0,0.0,0.0,0.0,0.0,0.0,0.0,0.0,0.0,0.0,0.0,0.0,0.0,0.0,0.0,0.0,0.0,0.0,0.0,0.0,0.0,0.0,0.0,0.0,0.0,0.0,0.0,0.0,0.0,0.0,0.0,0.0,0.0,0.0,0.0,0.0,0.0,0.0,0.0,0.0,0.0,0.0,0.0,0.0,0.0,0.0,0.0,0.0,0.0,0.0,0.0,0.0,0.0,0.0,0.0,0.0,0.0,0.0,0.0,0.0,0.0,0.0,0.0,0.0,0.0,0.0,0.0,0.0,0.0,0.0,0.0,0.0,0.0,0.0,0.0,0.0,0.0,0.0,0.0,0.0,0.0,0.0,0.0,0.0,0.0,0.0,0.0,0.0,0.0,0.0,0.0,0.0,0.0,0.0,0.0,0.0,0.418,0.4848,0.5262,0.527,0.7137,0.7984,0.7081,0.6996,0.6624,0.0,0.0,0.0,0.0,0.0,0.0,0.0,0.0,0.0,0.0,0.0,0.0,0.0,0.0,0.0,0.0,0.0,0.0,0.0,0.0,0.0,0.0,0.0,0.0,0.0,0.0,0.0,0.0,0.0,0.0,0.0,0.0,0.0,0.0,0.0,0.0,0.0,0.0,0.0,0.0,0.0,0.0,0.0,0.0,0.0,0.0,0.0,0.0,0.0,0.0,0.0,0.0,0.0,0.0,0.0,0.0,0.0,0.0,0.0,0.0,0.0,0.0,0.0,0.0,0.0,0.0,0.0,0.0,0.0,0.0,0.0,0.0,0.0,0.0,0.0,0.0,0.0,0.0,0.0,0.0,0.0,0.0,0.0,0.0,0.0,0.0,0.0,0.0,0.0,0.0,0.0,0.0,0.0,0.0,0.0,0.0,0.0,0.0,0.0,0.0,0.0,0.0,0.0,0.4245,0.4848,0.5258,0.5258,0.7102,0.7984,0.7076,0.6996,0.6619,0.5698,0.0,0.0,0.0,0.0,0.0,0.0,0.0,0.0,0.0,0.0,0.0,0.0,0.0,0.0,0.0,0.0,0.0,0.0,0.0,0.0,0.0,0.0,0.0,0.0,0.0,0.0,0.0,0.0,0.0,0.0,0.0,0.0,0.0,0.0,0.0,0.0,0.0,0.0,0.0,0.0,0.0,0.0,0.0,0.0,0.0,0.0,0.0,0.0,0.0,0.0,0.0,0.0,0.0,0.0,0.0,0.0,0.0,0.0,0.0,0.0,0.0,0.0,0.0,0.0,0.0,0.0,0.0,0.0,0.0,0.0,0.0,0.0,0.0,0.0,0.0,0.0,0.0,0.0,0.0,0.0,0.0,0.0,0.0,0.0,0.0,0.0,0.0,0.0,0.0,0.0,0.0,0.0,0.0,0.0,0.0,0.0,0.0,0.0,0.0,0.0,0.0,0.0,0.0,0.4848,0.5258,0.5258,0.7102,0.7984,0.7076,0.6996,0.6619,0.5698,0.0,0.0,0.0,0.0,0.0,0.0,0.0,0.0,0.0,0.0,0.0,0.0,0.0,0.0,0.0,0.0,0.0,0.0,0.0,0.0,0.0,0.0,0.0,0.0,0.0,0.0,0.0,0.0,0.0,0.0,0.0,0.0,0.0,0.0,0.0,0.0,0.0,0.0,0.0,0.0,0.0,0.0,0.0,0.0,0.0,0.0,0.0,0.0,0.0,0.0,0.0,0.0,0.0,0.0,0.0,0.0,0.0,0.0,0.0,0.0,0.0,0.0,0.0,0.0,0.0,0.0,0.0,0.0,0.0,0.0,0.0,0.0,0.0,0.0,0.0,0.0,0.0,0.0,0.0,0.0,0.0,0.0,0.0,0.0,0.0,0.0,0.0,0.0,0.0,0.0,0.0,0.0,0.0,0.0,0.0,0.0,0.0,0.0,0.0,0.0,0.0,0.0,0.0,0.4848,0.5258,0.5258,0.6989,0.7818,0.7065,0.6996,0.6619,0.5698,0.4661,0.0,0.0,0.0,0.0,0.0,0.0,0.0,0.0,0.0,0.0,0.0,0.0,0.0,0.0,0.0,0.0,0.0,0.0,0.0,0.0,0.0,0.0,0.0,0.0,0.0,0.0,0.0,0.0,0.0,0.0,0.0,0.0,0.0,0.0,0.0,0.0,0.0,0.0,0.0,0.0,0.0,0.0,0.0,0.0,0.0,0.0,0.0,0.0,0.0,0.0,0.0,0.0,0.0,0.0,0.0,0.0,0.0,0.0,0.0,0.0,0.0,0.0,0.0,0.0,0.0,0.0,0.0,0.0,0.0,0.0,0.0,0.0,0.0,0.0,0.0,0.0,0.0,0.0,0.0,0.0,0.0,0.0,0.0,0.0,0.0,0.0,0.0,0.0,0.0,0.0,0.0,0.0,0.0,0.0,0.0,0.0,0.0,0.0,0.0,0.0,0.0,0.0,0.4848,0.5258,0.5258,0.5684,0.625,0.6931,0.6996,0.6619,0.5698,0.4661,0.0,0.0,0.0,0.0,0.0,0.0,0.0,0.0,0.0,0.0,0.0,0.0,0.0,0.0,0.0,0.0,0.0,0.0,0.0,0.0,0.0,0.0,0.0,0.0,0.0,0.0,0.0,0.0,0.0,0.0,0.0,0.0,0.0,0.0,0.0,0.0,0.0,0.0,0.0,0.0,0.0,0.0,0.0,0.0,0.0,0.0,0.0,0.0,0.0,0.0,0.0,0.0,0.0,0.0,0.0,0.0,0.0,0.0,0.0,0.0,0.0,0.0,0.0,0.0,0.0,0.0,0.0,0.0,0.0,0.0,0.0,0.0,0.0,0.0,0.0,0.0,0.0,0.0,0.0,0.0,0.0,0.0,0.0,0.0,0.0,0.0,0.0,0.0,0.0,0.0,0.0,0.0,0.0,0.0,0.0,0.0,0.0,0.0,0.0,0.0,0.0,0.0,0.4363,0.4924,0.5222,0.5258,0.5719,0.6888,0.6996,0.6619,0.5698,0.4661,0.0,0.0,0.0,0.0,0.0,0.0,0.0,0.0,0.0,0.0,0.0,0.0,0.0,0.0,0.0,0.0,0.0,0.0,0.0,0.0,0.0,0.0,0.0,0.0,0.0,0.0,0.0,0.0,0.0,0.0,0.0,0.0,0.0,0.0,0.0,0.0,0.0,0.0,0.0,0.0,0.0,0.0,0.0,0.0,0.0,0.0,0.0,0.0,0.0,0.0,0.0,0.0,0.0,0.0,0.0,0.0,0.0,0.0,0.0,0.0,0.0,0.0,0.0,0.0,0.0,0.0,0.0,0.0,0.0,0.0,0.0,0.0,0.0,0.0,0.0,0.0,0.0,0.0,0.0,0.0,0.0,0.0,0.0,0.0,0.0,0.0,0.0,0.0,0.0,0.0,0.0,0.0,0.0,0.0,0.0,0.0,0.0,0.0,0.0,0.0,0.0,0.0,0.0,0.4486,0.5034,0.5194,0.5719,0.6888,0.6996,0.6619,0.5698,0.0,0.0,0.0,0.0,0.0,0.0,0.0,0.0,0.0,0.0,0.0,0.0,0.0,0.0,0.0,0.0,0.0,0.0,0.0,0.0,0.0,0.0,0.0,0.0,0.0,0.0,0.0,0.0,0.0,0.0,0.0,0.0,0.0,0.0,0.0,0.0,0.0,0.0,0.0,0.0,0.0,0.0,0.0,0.0,0.0,0.0,0.0,0.0,0.0,0.0,0.0,0.0,0.0,0.0,0.0,0.0,0.0,0.0,0.0,0.0,0.0,0.0,0.0,0.0,0.0,0.0,0.0,0.0,0.0,0.0,0.0,0.0,0.0,0.0,0.0,0.0,0.0,0.0,0.0,0.0,0.0,0.0,0.0,0.0,0.0,0.0,0.0,0.0,0.0,0.0,0.0,0.0,0.0,0.0,0.0,0.0,0.0,0.0,0.0,0.0,0.0,0.0,0.0,0.0,0.4318,0.4405,0.4928,0.5719,0.6888,0.6996,0.6619,0.5698,0.0,0.0,0.0,0.0,0.0,0.0,0.0,0.0,0.0,0.0,0.0,0.0,0.0,0.0]}]]]